[[{"header":{"parameterUnit":"m.s-1","parameterCategory":1,"la1":31.0,"la2":29.5877,"lo1":-88.7671,"lo2":-86.6584,"dy":0.0162,"dx":0.0185,"nx":115,"ny":88,"refTime":"2024-03-03T18:00:00:Z","depth":0,"parameterNumber":2,"parameterNumberName":"U-component_of_WINDS"},"data":[0.0,0.0,0.0,0.0,0.0,0.0,0.0,0.0,0.0,0.0,0.0,0.0,0.0,0.0,0.0,0.0,0.0,0.0,0.0,0.0,0.0,0.0,0.0,0.0,0.0,0.0,0.0,0.0,0.0,0.0,0.0,0.0,0.0,0.0,0.0,0.0,0.0,0.0,0.0,0.0,0.0,0.0,0.0,0.0,0.0,0.0,0.0,0.0,0.0,0.0,0.0,0.0,0.0,0.0,0.0,0.0,0.0,0.0,0.0,0.0,0.0,0.0,0.0,0.0,0.0,0.0,0.0,0.0,0.0,0.0,0.0,0.0,0.0,0.0,0.0,0.0,0.0,0.0,0.0,0.0,0.0,0.0,0.0,0.0,0.0,0.0,0.0,0.0,0.0,0.0,0.0,0.0,0.0,0.0,0.0,0.0,0.0,0.0,0.0,0.0,0.0,0.0,0.0,0.0,0.0,0.0,0.0,0.0,0.0,0.0,0.0,0.0,0.0,0.0,0.0,0.0,0.0,0.0,0.0,0.0,0.0,0.0,0.0,0.0,0.0,0.0,0.0,0.0,0.0,0.0,0.0,0.0,0.0,0.0,0.0,0.0,0.0,0.0,0.0,0.0,0.0,0.0,0.0,0.0,0.0,0.0,0.0,0.0,0.0,0.0,0.0,0.0,0.0,0.0,0.0,0.0,0.0,0.0,0.0,0.0,0.0,0.0,0.0,0.0,0.0,0.0,0.0,0.0,0.0,0.0,0.0,0.0,0.0,0.0,0.0,0.0,0.0,0.0,0.0,0.0,0.0,0.0,0.0,0.0,0.0,0.0,0.0,0.0,0.0,0.0,0.0,0.0,0.0,0.0,0.0,0.0,0.0,0.0,0.0,0.0,0.0,0.0,0.0,0.0,0.0,0.0,0.0,0.0,0.0,0.0,0.0,0.0,0.0,0.0,0.0,0.0,0.0,0.0,0.0,0.0,0.0,0.0,0.0,0.0,0.0,0.0,0.0,0.0,0.0,0.0,0.0,0.0,0.0,0.0,0.0,0.0,0.0,0.0,0.0,0.0,0.0,0.0,0.0,0.0,0.0,0.0,0.0,0.0,0.0,0.0,0.0,0.0,0.0,0.0,0.0,0.0,0.0,0.0,0.0,0.0,0.0,0.0,0.0,0.0,0.0,0.0,0.0,0.0,0.0,0.0,0.0,0.0,0.0,0.0,0.0,0.0,0.0,0.0,0.0,0.0,0.0,0.0,0.0,0.0,0.0,0.0,0.0,0.0,0.0,0.0,0.0,0.0,0.0,0.0,0.0,0.0,0.0,0.0,0.0,0.0,0.0,0.0,0.0,0.0,0.0,0.0,0.0,0.0,0.0,0.0,0.0,0.0,0.0,0.0,0.0,0.0,0.0,0.0,0.0,0.0,0.0,0.0,0.0,0.0,0.0,0.0,0.0,0.0,0.0,0.0,0.0,0.0,0.0,0.0,0.0,0.0,0.0,0.0,0.0,0.0,0.0,0.0,0.0,0.0,0.0,0.0,0.0,0.0,0.0,0.0,0.0,0.0,0.0,0.0,0.0,0.0,0.0,0.0,0.0,0.0,0.0,0.0,0.0,0.0,0.0,0.0,0.0,0.0,0.0,0.0,0.0,0.0,0.0,0.0,0.0,0.0,0.0,0.0,0.0,0.0,0.0,0.0,0.0,0.0,0.0,0.0,0.0,0.0,0.0,0.0,0.0,0.0,0.0,0.0,0.0,0.0,0.0,0.0,0.0,0.0,0.0,0.0,0.0,0.0,0.0,0.0,0.0,0.0,0.0,0.0,0.0,0.0,0.0,0.0,0.0,0.0,0.0,0.0,0.0,0.0,0.0,0.0,0.0,0.0,0.0,0.0,0.0,0.0,0.0,0.0,0.0,0.0,0.0,0.0,0.0,0.0,0.0,0.0,0.0,0.0,0.0,0.0,0.0,0.0,0.0,0.0,0.0,0.0,0.0,0.0,0.0,0.0,0.0,0.0,0.0,0.0,0.0,0.0,0.0,0.0,0.0,0.0,0.0,0.0,0.0,0.0,0.0,0.0,0.0,0.0,0.0,0.0,0.0,0.0,0.0,0.0,0.0,0.0,0.0,0.0,0.0,0.0,0.0,0.0,0.0,0.0,0.0,0.0,0.0,0.0,0.0,0.0,0.0,0.0,0.0,0.0,0.0,0.0,0.0,0.0,0.0,0.0,0.0,0.0,0.0,0.0,0.0,0.0,0.0,0.0,0.0,0.0,0.0,0.0,0.0,0.0,0.0,0.0,0.0,0.0,0.0,0.0,0.0,0.0,0.0,0.0,0.0,0.0,0.0,0.0,0.0,0.0,0.0,0.0,0.0,0.0,0.0,0.0,0.0,0.0,0.0,0.0,0.0,0.0,0.0,0.0,0.0,0.0,0.0,0.0,0.0,0.0,0.0,0.0,0.0,0.0,0.0,0.0,0.0,0.0,0.0,0.0,0.0,0.0,0.0,0.0,0.0,0.0,0.0,0.0,0.0,0.0,0.0,0.0,0.0,0.0,0.0,0.0,0.0,0.0,0.0,0.0,0.0,0.0,0.0,0.0,0.0,0.0,0.0,0.0,0.0,0.0,0.0,0.0,0.0,0.0,0.0,0.0,0.0,0.0,0.0,0.0,0.0,0.0,0.0,0.0,0.0,0.0,0.0,0.0,0.0,0.0,0.0,0.0,0.0,0.0,0.0,0.0,0.0,0.0,0.0,0.0,0.0,0.0,0.0,0.0,0.0,0.0,0.0,0.0,0.0,0.0,0.0,0.0,0.0,0.0,0.0,0.0,0.0,0.0,0.0,0.0,0.0,0.0,0.0,0.0,0.0,0.0,0.0,0.0,0.0,0.0,0.0,0.0,0.0,0.0,0.0,0.0,0.0,0.0,0.0,0.0,0.0,0.0,0.0,0.0,0.0,0.0,0.0,0.0,0.0,0.0,0.0,0.0,0.0,0.0,0.0,0.0,0.0,0.0,0.0,0.0,0.0,0.0,0.0,0.0,0.0,0.0,0.0,0.0,0.0,0.0,0.0,0.0,0.0,0.0,0.0,0.0,0.0,0.0,0.0,0.0,0.0,0.0,0.0,0.0,0.0,0.0,0.0,0.0,0.0,0.0,0.0,0.0,0.0,0.0,0.0,0.0,0.0,0.0,0.0,0.0,0.0,0.0,0.0,0.0,0.0,0.0,0.0,0.0,0.0,0.0,0.0,0.0,0.0,0.0,0.0,0.0,0.0,0.0,0.0,0.0,0.0,0.0,0.0,0.0,0.0,0.0,0.0,0.0,0.0,0.0,0.0,0.0,0.0,0.0,0.0,0.0,0.0,0.0,0.0,0.0,0.0,0.0,0.0,0.0,0.0,0.0,0.0,0.0,0.0,0.0,0.0,0.0,0.0,0.0,0.0,0.0,0.0,0.0,0.0,0.0,0.0,0.0,0.0,0.0,0.0,0.0,0.0,0.0,0.0,0.0,0.0,0.0,0.0,0.0,0.0,0.0,0.0,0.0,0.0,0.0,0.0,0.0,0.0,0.0,0.0,0.0,0.0,0.0,0.0,0.0,0.0,0.0,0.0,0.0,0.0,0.0,0.0,0.0,0.0,0.0,0.0,0.0,0.0,0.0,0.0,0.0,0.0,0.0,0.0,0.0,0.0,0.0,0.0,0.0,0.0,0.0,0.0,0.0,0.0,0.0,0.0,0.0,0.0,0.0,0.0,0.0,0.0,0.0,0.0,0.0,0.0,0.0,0.0,0.0,0.0,0.0,0.0,0.0,0.0,0.0,0.0,0.0,0.0,0.0,0.0,0.0,0.0,0.0,0.0,0.0,0.0,0.0,0.0,0.0,0.0,0.0,0.0,0.0,0.0,0.0,0.0,0.0,0.0,0.0,0.0,0.0,0.0,0.0,0.0,0.0,0.0,0.0,0.0,0.0,0.0,0.0,0.0,0.0,0.0,0.0,0.0,0.0,0.0,0.0,0.0,0.0,0.0,0.0,0.0,0.0,0.0,0.0,0.0,0.0,0.0,0.0,0.0,0.0,0.0,0.0,0.0,0.0,0.0,0.0,0.0,0.0,0.0,0.0,0.0,0.0,0.0,0.0,0.0,0.0,0.0,0.0,0.0,0.0,0.0,0.0,0.0,0.0,0.0,0.0,0.0,0.0,0.0,0.0,0.0,0.0,0.0,0.0,0.0,0.0,0.0,0.0,0.0,0.0,0.0,0.0,0.0,0.0,0.0,0.0,-1.2918,0.0,0.0,0.0,0.0,0.0,0.0,0.0,0.0,0.0,0.0,0.0,0.0,0.0,0.0,0.0,0.0,0.0,0.0,0.0,0.0,0.0,0.0,0.0,0.0,0.0,0.0,0.0,0.0,0.0,0.0,0.0,0.0,0.0,0.0,0.0,0.0,0.0,0.0,0.0,0.0,0.0,0.0,0.0,0.0,0.0,0.0,0.0,0.0,0.0,0.0,0.0,0.0,0.0,0.0,0.0,0.0,0.0,0.0,0.0,0.0,0.0,0.0,0.0,0.0,0.0,0.0,0.0,0.0,0.0,0.0,0.0,0.0,0.0,0.0,0.0,0.0,0.0,0.0,0.0,0.0,0.0,0.0,0.0,0.0,0.0,0.0,0.0,0.0,0.0,0.0,0.0,0.0,0.0,0.0,0.0,0.0,0.0,0.0,0.0,0.0,0.0,0.0,0.0,0.0,0.0,0.0,0.0,0.0,0.0,0.0,-1.2668,-1.2785,-1.282,-1.2848,-1.2848,0.0,0.0,0.0,0.0,0.0,0.0,0.0,0.0,0.0,0.0,0.0,0.0,0.0,0.0,0.0,0.0,0.0,0.0,0.0,0.0,0.0,0.0,0.0,0.0,0.0,0.0,0.0,0.0,0.0,0.0,0.0,0.0,0.0,0.0,0.0,0.0,0.0,0.0,0.0,0.0,0.0,0.0,0.0,0.0,0.0,0.0,0.0,0.0,0.0,0.0,0.0,0.0,0.0,0.0,0.0,0.0,0.0,0.0,0.0,0.0,0.0,0.0,0.0,0.0,0.0,0.0,0.0,0.0,0.0,0.0,0.0,0.0,0.0,0.0,0.0,0.0,0.0,0.0,0.0,0.0,0.0,0.0,0.0,0.0,0.0,0.0,0.0,0.0,0.0,0.0,0.0,0.0,0.0,0.0,0.0,0.0,0.0,0.0,0.0,0.0,0.0,0.0,0.0,0.0,0.0,0.0,0.0,0.0,0.0,0.0,0.0,0.0,-1.2776,-1.2785,-1.2785,0.0,0.0,0.0,0.0,0.0,0.0,0.0,0.0,0.0,0.0,0.0,0.0,0.0,0.0,0.0,0.0,0.0,0.0,0.0,0.0,0.0,0.0,0.0,0.0,0.0,0.0,0.0,0.0,0.0,0.0,0.0,0.0,0.0,0.0,0.0,0.0,0.0,0.0,0.0,0.0,0.0,0.0,0.0,0.0,0.0,0.0,0.0,0.0,0.0,0.0,0.0,0.0,0.0,0.0,0.0,0.0,0.0,0.0,0.0,0.0,0.0,0.0,0.0,0.0,0.0,0.0,0.0,0.0,0.0,0.0,0.0,0.0,0.0,0.0,0.0,0.0,0.0,0.0,0.0,0.0,0.0,0.0,0.0,0.0,0.0,0.0,0.0,0.0,0.0,0.0,0.0,0.0,0.0,0.0,0.0,0.0,0.0,0.0,0.0,0.0,0.0,0.0,0.0,0.0,0.0,0.0,0.0,0.0,0.0,0.0,-1.2626,-1.2703,-1.2703,0.0,-1.2785,0.0,0.0,0.0,0.0,0.0,0.0,0.0,0.0,0.0,0.0,0.0,0.0,0.0,0.0,0.0,0.0,0.0,0.0,0.0,0.0,0.0,0.0,0.0,0.0,0.0,0.0,0.0,0.0,0.0,0.0,0.0,0.0,0.0,0.0,0.0,0.0,0.0,0.0,0.0,0.0,0.0,0.0,0.0,0.0,0.0,0.0,0.0,0.0,0.0,0.0,0.0,0.0,0.0,0.0,0.0,0.0,0.0,0.0,0.0,0.0,0.0,0.0,0.0,0.0,0.0,0.0,0.0,0.0,0.0,0.0,0.0,0.0,0.0,0.0,0.0,0.0,0.0,0.0,0.0,0.0,0.0,0.0,0.0,0.0,0.0,0.0,0.0,0.0,0.0,0.0,0.0,0.0,0.0,0.0,0.0,0.0,0.0,0.0,0.0,0.0,0.0,0.0,0.0,0.0,0.0,0.0,0.0,0.0,0.0,0.0,-1.2626,-1.2693,-1.2738,-1.2782,0.0,0.0,0.0,0.0,0.0,0.0,0.0,0.0,0.0,0.0,0.0,0.0,0.0,0.0,0.0,0.0,0.0,0.0,0.0,0.0,0.0,0.0,0.0,0.0,0.0,0.0,0.0,0.0,0.0,0.0,0.0,0.0,0.0,0.0,0.0,0.0,0.0,0.0,0.0,0.0,0.0,0.0,0.0,0.0,0.0,0.0,0.0,0.0,0.0,0.0,0.0,0.0,0.0,0.0,0.0,0.0,0.0,0.0,0.0,0.0,0.0,0.0,0.0,0.0,0.0,0.0,0.0,0.0,0.0,0.0,0.0,0.0,0.0,0.0,0.0,0.0,0.0,0.0,0.0,0.0,0.0,0.0,0.0,0.0,0.0,0.0,0.0,0.0,0.0,0.0,0.0,0.0,0.0,0.0,0.0,0.0,0.0,0.0,0.0,0.0,0.0,0.0,0.0,0.0,0.0,0.0,0.0,0.0,0.0,0.0,-1.2524,-1.2587,-1.2671,-1.2738,-1.2792,-1.2785,0.0,0.0,0.0,0.0,0.0,0.0,0.0,0.0,0.0,0.0,0.0,0.0,0.0,0.0,0.0,0.0,0.0,0.0,0.0,0.0,0.0,0.0,0.0,0.0,0.0,0.0,0.0,0.0,0.0,0.0,0.0,0.0,0.0,0.0,0.0,0.0,0.0,0.0,0.0,0.0,0.0,0.0,0.0,0.0,0.0,0.0,0.0,0.0,0.0,0.0,0.0,0.0,0.0,0.0,0.0,0.0,0.0,0.0,0.0,0.0,0.0,0.0,0.0,0.0,0.0,0.0,0.0,0.0,0.0,0.0,0.0,0.0,0.0,0.0,0.0,0.0,0.0,0.0,0.0,0.0,0.0,0.0,0.0,0.0,0.0,0.0,0.0,0.0,0.0,0.0,0.0,0.0,0.0,0.0,0.0,0.0,0.0,0.0,0.0,0.0,0.0,0.0,0.0,0.0,0.0,0.0,0.0,0.0,-1.2399,-1.2403,-1.2489,-1.26,-1.2655,-1.2738,0.0,0.0,0.0,0.0,0.0,0.0,0.0,0.0,0.0,0.0,0.0,0.0,0.0,0.0,0.0,0.0,0.0,0.0,0.0,0.0,0.0,0.0,0.0,0.0,0.0,0.0,0.0,0.0,0.0,0.0,0.0,0.0,0.0,0.0,0.0,0.0,0.0,0.0,0.0,0.0,0.0,0.0,0.0,0.0,0.0,0.0,0.0,0.0,0.0,0.0,0.0,0.0,0.0,0.0,0.0,0.0,0.0,0.0,0.0,0.0,0.0,0.0,0.0,0.0,0.0,0.0,0.0,0.0,0.0,0.0,0.0,0.0,0.0,0.0,0.0,0.0,0.0,0.0,0.0,0.0,0.0,0.0,0.0,0.0,0.0,0.0,0.0,0.0,0.0,0.0,0.0,0.0,0.0,0.0,0.0,0.0,0.0,0.0,0.0,0.0,0.0,0.0,0.0,0.0,0.0,0.0,0.0,0.0,0.0,-1.2266,-1.2399,-1.2499,-1.2603,-1.2662,-1.2719,0.0,0.0,0.0,0.0,0.0,0.0,0.0,0.0,0.0,0.0,0.0,0.0,0.0,0.0,0.0,0.0,0.0,0.0,0.0,0.0,0.0,0.0,0.0,0.0,0.0,0.0,0.0,0.0,0.0,0.0,0.0,0.0,0.0,0.0,0.0,0.0,0.0,0.0,0.0,0.0,0.0,0.0,0.0,0.0,0.0,0.0,0.0,0.0,0.0,0.0,0.0,0.0,0.0,0.0,0.0,0.0,0.0,0.0,0.0,0.0,0.0,0.0,0.0,0.0,0.0,0.0,0.0,0.0,0.0,0.0,0.0,0.0,0.0,0.0,0.0,0.0,0.0,0.0,0.0,0.0,0.0,0.0,0.0,0.0,0.0,0.0,0.0,0.0,0.0,0.0,0.0,0.0,0.0,0.0,0.0,0.0,0.0,0.0,0.0,0.0,0.0,0.0,0.0,0.0,0.0,0.0,0.0,0.0,0.0,-1.2205,0.0,-1.2489,-1.258,-1.2636,-1.2662,0.0,0.0,0.0,0.0,0.0,0.0,0.0,0.0,0.0,0.0,0.0,0.0,0.0,0.0,0.0,0.0,0.0,0.0,0.0,0.0,0.0,0.0,0.0,0.0,0.0,0.0,0.0,0.0,0.0,0.0,0.0,0.0,0.0,0.0,0.0,0.0,0.0,0.0,0.0,0.0,0.0,0.0,0.0,0.0,0.0,0.0,0.0,0.0,0.0,0.0,0.0,0.0,0.0,0.0,0.0,0.0,0.0,0.0,0.0,0.0,0.0,0.0,0.0,0.0,0.0,0.0,0.0,0.0,0.0,0.0,0.0,0.0,0.0,0.0,0.0,0.0,0.0,0.0,0.0,0.0,0.0,0.0,0.0,0.0,0.0,0.0,0.0,0.0,0.0,0.0,0.0,0.0,0.0,0.0,0.0,0.0,0.0,0.0,0.0,0.0,0.0,0.0,0.0,0.0,0.0,0.0,0.0,0.0,-1.2153,-1.2205,-1.2333,-1.2429,-1.2505,-1.2554,-1.2603,0.0,0.0,0.0,0.0,0.0,0.0,0.0,0.0,0.0,0.0,0.0,0.0,0.0,0.0,0.0,0.0,0.0,0.0,0.0,0.0,0.0,0.0,0.0,0.0,0.0,0.0,0.0,0.0,0.0,0.0,0.0,0.0,0.0,0.0,0.0,0.0,0.0,0.0,0.0,0.0,0.0,0.0,0.0,0.0,0.0,0.0,0.0,0.0,0.0,0.0,0.0,0.0,0.0,0.0,0.0,0.0,0.0,0.0,0.0,0.0,0.0,0.0,0.0,0.0,0.0,0.0,0.0,0.0,0.0,0.0,0.0,0.0,0.0,0.0,0.0,0.0,0.0,0.0,0.0,0.0,0.0,0.0,0.0,0.0,0.0,0.0,0.0,0.0,0.0,0.0,0.0,0.0,0.0,0.0,0.0,0.0,0.0,0.0,0.0,0.0,0.0,0.0,0.0,0.0,0.0,0.0,0.0,0.0,0.0,-1.2143,-1.2216,-1.2262,-1.2292,-1.2393,-1.2479,0.0,0.0,0.0,0.0,0.0,0.0,0.0,0.0,0.0,0.0,0.0,0.0,0.0,0.0,0.0,0.0,0.0,0.0,0.0,0.0,0.0,0.0,0.0,0.0,0.0,0.0,0.0,0.0,0.0,0.0,0.0,0.0,0.0,0.0,0.0,0.0,0.0,0.0,0.0,0.0,0.0,0.0,0.0,0.0,0.0,0.0,0.0,0.0,0.0,0.0,0.0,0.0,0.0,0.0,0.0,0.0,0.0,0.0,0.0,0.0,0.0,0.0,0.0,0.0,0.0,0.0,0.0,0.0,0.0,0.0,0.0,0.0,0.0,0.0,0.0,0.0,0.0,0.0,0.0,0.0,0.0,0.0,0.0,0.0,0.0,0.0,0.0,0.0,0.0,0.0,0.0,0.0,0.0,0.0,0.0,0.0,0.0,0.0,0.0,0.0,0.0,0.0,0.0,0.0,0.0,0.0,0.0,0.0,0.0,-1.2644,-1.2544,-1.2335,-1.2091,-1.2221,-1.2318,-1.2369,0.0,0.0,0.0,0.0,0.0,0.0,0.0,0.0,0.0,0.0,0.0,0.0,0.0,0.0,0.0,0.0,0.0,0.0,0.0,0.0,0.0,0.0,0.0,0.0,0.0,0.0,0.0,0.0,0.0,0.0,0.0,0.0,0.0,0.0,0.0,0.0,0.0,0.0,0.0,0.0,0.0,0.0,0.0,0.0,0.0,0.0,0.0,0.0,0.0,0.0,0.0,0.0,0.0,0.0,0.0,0.0,0.0,0.0,0.0,0.0,0.0,0.0,0.0,0.0,0.0,0.0,0.0,0.0,0.0,0.0,0.0,0.0,0.0,0.0,0.0,0.0,0.0,0.0,0.0,0.0,0.0,0.0,0.0,0.0,0.0,0.0,0.0,0.0,0.0,0.0,0.0,0.0,0.0,0.0,0.0,0.0,0.0,0.0,0.0,0.0,0.0,0.0,0.0,0.0,0.0,0.0,0.0,0.0,-1.3604,-1.3193,-1.2659,-1.197,-1.2027,-1.2112,0.0,0.0,0.0,0.0,0.0,0.0,0.0,0.0,0.0,0.0,0.0,0.0,0.0,0.0,0.0,0.0,0.0,0.0,0.0,0.0,0.0,0.0,0.0,0.0,0.0,0.0,0.0,0.0,0.0,0.0,0.0,0.0,0.0,0.0,0.0,0.0,0.0,0.0,0.0,0.0,0.0,0.0,0.0,0.0,0.0,0.0,0.0,0.0,0.0,0.0,0.0,0.0,0.0,0.0,0.0,0.0,0.0,0.0,0.0,0.0,0.0,0.0,0.0,0.0,0.0,0.0,0.0,0.0,0.0,0.0,0.0,0.0,0.0,0.0,0.0,0.0,0.0,0.0,0.0,0.0,0.0,0.0,0.0,0.0,0.0,0.0,0.0,0.0,0.0,0.0,0.0,0.0,0.0,0.0,0.0,0.0,0.0,0.0,0.0,0.0,0.0,0.0,0.0,0.0,0.0,0.0,0.0,0.0,0.0,-1.3524,-1.3806,-1.3491,-1.2513,-1.2096,-1.1949,0.0,0.0,0.0,0.0,0.0,0.0,0.0,0.0,0.0,0.0,0.0,0.0,0.0,0.0,0.0,0.0,0.0,0.0,0.0,0.0,0.0,0.0,0.0,0.0,0.0,0.0,0.0,0.0,0.0,0.0,0.0,0.0,0.0,0.0,0.0,0.0,0.0,0.0,0.0,0.0,0.0,0.0,0.0,0.0,0.0,0.0,0.0,0.0,0.0,0.0,0.0,0.0,0.0,0.0,0.0,0.0,0.0,0.0,0.0,0.0,0.0,0.0,0.0,0.0,0.0,0.0,0.0,0.0,0.0,0.0,0.0,0.0,0.0,0.0,0.0,0.0,0.0,0.0,0.0,0.0,0.0,0.0,0.0,0.0,0.0,0.0,0.0,0.0,0.0,0.0,0.0,0.0,0.0,0.0,0.0,0.0,0.0,0.0,0.0,0.0,0.0,0.0,0.0,0.0,0.0,0.0,0.0,0.0,-1.3737,-1.4209,-1.4253,-1.3887,-1.3023,-1.2405,-1.2022,0.0,0.0,0.0,0.0,0.0,0.0,0.0,0.0,0.0,0.0,0.0,0.0,0.0,0.0,0.0,0.0,0.0,0.0,0.0,0.0,0.0,0.0,0.0,0.0,0.0,0.0,0.0,0.0,0.0,0.0,0.0,0.0,0.0,0.0,0.0,0.0,0.0,0.0,0.0,0.0,0.0,0.0,0.0,0.0,0.0,0.0,0.0,0.0,0.0,0.0,0.0,0.0,0.0,0.0,0.0,0.0,0.0,0.0,0.0,0.0,0.0,0.0,0.0,0.0,0.0,0.0,0.0,0.0,0.0,0.0,0.0,0.0,0.0,0.0,0.0,0.0,0.0,0.0,0.0,0.0,0.0,0.0,0.0,0.0,0.0,0.0,0.0,0.0,0.0,0.0,0.0,0.0,0.0,0.0,0.0,0.0,0.0,0.0,0.0,0.0,0.0,0.0,0.0,0.0,0.0,0.0,0.0,0.0,-1.3889,-1.4977,-1.4486,-1.3919,-1.332,-1.2765,-1.2235,0.0,0.0,0.0,0.0,0.0,0.0,0.0,0.0,0.0,0.0,0.0,0.0,0.0,0.0,0.0,0.0,0.0,0.0,0.0,0.0,0.0,0.0,0.0,0.0,0.0,0.0,0.0,0.0,0.0,0.0,0.0,0.0,0.0,0.0,0.0,0.0,0.0,0.0,0.0,0.0,0.0,0.0,0.0,0.0,0.0,0.0,0.0,0.0,0.0,0.0,0.0,0.0,0.0,0.0,0.0,0.0,0.0,0.0,0.0,0.0,0.0,0.0,0.0,0.0,0.0,0.0,0.0,0.0,0.0,0.0,0.0,0.0,0.0,0.0,0.0,0.0,0.0,0.0,0.0,0.0,0.0,0.0,0.0,0.0,0.0,0.0,0.0,0.0,0.0,0.0,0.0,0.0,0.0,0.0,0.0,0.0,0.0,0.0,0.0,0.0,0.0,0.0,0.0,0.0,0.0,0.0,0.0,0.0,-1.2952,-1.3759,-1.3602,-1.3213,-1.263,-1.2482,-1.2176,0.0,0.0,0.0,0.0,0.0,0.0,0.0,0.0,0.0,0.0,0.0,0.0,0.0,0.0,0.0,0.0,0.0,0.0,0.0,0.0,0.0,0.0,0.0,0.0,0.0,0.0,0.0,0.0,0.0,0.0,0.0,0.0,0.0,0.0,0.0,0.0,0.0,0.0,0.0,0.0,0.0,0.0,0.0,0.0,0.0,0.0,0.0,0.0,-1.6837,0.0,0.0,0.0,0.0,0.0,0.0,0.0,0.0,0.0,0.0,0.0,0.0,0.0,0.0,0.0,0.0,0.0,0.0,0.0,0.0,0.0,0.0,0.0,0.0,0.0,0.0,0.0,0.0,0.0,0.0,0.0,0.0,0.0,0.0,0.0,0.0,0.0,0.0,0.0,0.0,0.0,0.0,0.0,0.0,0.0,0.0,0.0,0.0,0.0,0.0,0.0,0.0,0.0,0.0,0.0,0.0,0.0,0.0,0.0,-1.2616,-1.3235,-1.3249,-1.2958,-1.2392,-1.2349,-1.212,0.0,0.0,0.0,0.0,0.0,0.0,0.0,0.0,0.0,0.0,0.0,0.0,0.0,0.0,0.0,0.0,0.0,0.0,0.0,0.0,0.0,0.0,0.0,0.0,0.0,0.0,0.0,0.0,0.0,0.0,0.0,0.0,0.0,0.0,0.0,0.0,0.0,0.0,0.0,0.0,0.0,0.0,0.0,0.0,0.0,0.0,0.0,0.0,0.0,0.0,0.0,0.0,0.0,0.0,0.0,0.0,0.0,0.0,0.0,0.0,0.0,0.0,0.0,0.0,0.0,0.0,0.0,0.0,0.0,0.0,0.0,0.0,0.0,0.0,0.0,0.0,0.0,0.0,0.0,0.0,0.0,0.0,0.0,0.0,0.0,0.0,0.0,0.0,0.0,0.0,0.0,0.0,0.0,0.0,0.0,0.0,0.0,0.0,0.0,0.0,0.0,0.0,0.0,0.0,0.0,0.0,0.0,-1.2144,-1.2354,-1.2791,-1.287,-1.2664,-1.2185,-1.2144,-1.1971,-1.1597,0.0,0.0,0.0,0.0,0.0,0.0,0.0,0.0,0.0,0.0,0.0,0.0,0.0,0.0,0.0,0.0,0.0,0.0,0.0,0.0,0.0,0.0,0.0,0.0,0.0,0.0,0.0,0.0,0.0,0.0,0.0,0.0,0.0,0.0,0.0,0.0,0.0,0.0,-1.5609,-1.6049,0.0,0.0,0.0,0.0,0.0,0.0,0.0,0.0,-1.5979,0.0,0.0,0.0,0.0,0.0,0.0,0.0,0.0,0.0,0.0,0.0,0.0,0.0,0.0,0.0,0.0,0.0,0.0,0.0,0.0,0.0,0.0,0.0,0.0,0.0,0.0,0.0,0.0,0.0,0.0,0.0,0.0,0.0,0.0,0.0,0.0,0.0,0.0,0.0,0.0,0.0,0.0,0.0,0.0,0.0,0.0,0.0,0.0,0.0,0.0,0.0,0.0,0.0,0.0,0.0,0.0,-1.1557,-1.1442,-1.1449,-1.1585,-1.1549,-1.1506,-1.1465,-1.1523,-1.1548,-1.1515,0.0,0.0,0.0,0.0,0.0,0.0,0.0,0.0,0.0,0.0,0.0,0.0,0.0,0.0,0.0,0.0,0.0,0.0,0.0,0.0,0.0,0.0,0.0,0.0,0.0,0.0,0.0,0.0,0.0,0.0,0.0,0.0,0.0,0.0,0.0,0.0,0.0,0.0,0.0,-1.6262,-1.6411,0.0,0.0,0.0,0.0,0.0,0.0,0.0,0.0,-1.6998,0.0,0.0,0.0,0.0,0.0,0.0,0.0,0.0,0.0,0.0,0.0,0.0,0.0,0.0,0.0,0.0,0.0,0.0,0.0,0.0,0.0,0.0,0.0,0.0,0.0,0.0,0.0,0.0,0.0,0.0,0.0,0.0,0.0,0.0,0.0,0.0,0.0,0.0,0.0,0.0,0.0,0.0,0.0,0.0,0.0,0.0,0.0,0.0,0.0,0.0,0.0,0.0,0.0,0.0,0.0,-1.1353,-1.1296,-1.1224,-1.1204,-1.1167,-1.1204,-1.1282,-1.133,-1.1418,0.0,0.0,0.0,0.0,0.0,0.0,0.0,0.0,0.0,0.0,0.0,0.0,0.0,0.0,0.0,0.0,0.0,0.0,0.0,0.0,0.0,0.0,0.0,0.0,0.0,0.0,0.0,0.0,0.0,0.0,0.0,0.0,0.0,0.0,0.0,0.0,0.0,0.0,0.0,0.0,-1.618,-1.6245,-1.6346,0.0,0.0,0.0,0.0,0.0,0.0,-1.6462,-1.6743,0.0,0.0,0.0,0.0,0.0,0.0,0.0,0.0,0.0,0.0,0.0,0.0,0.0,0.0,0.0,0.0,0.0,0.0,0.0,0.0,0.0,0.0,0.0,0.0,0.0,0.0,0.0,0.0,0.0,0.0,0.0,0.0,0.0,0.0,0.0,0.0,0.0,0.0,0.0,0.0,0.0,0.0,0.0,0.0,0.0,0.0,0.0,0.0,0.0,0.0,0.0,0.0,0.0,0.0,0.0,-1.1293,-1.1273,-1.1215,-1.1111,-1.1108,-1.1192,-1.1282,-1.133,-1.1463,0.0,0.0,0.0,0.0,0.0,0.0,0.0,0.0,0.0,0.0,0.0,0.0,0.0,0.0,0.0,0.0,0.0,0.0,0.0,0.0,0.0,0.0,0.0,0.0,0.0,0.0,0.0,0.0,0.0,0.0,0.0,0.0,0.0,0.0,0.0,0.0,0.0,0.0,0.0,0.0,0.0,-1.6235,-1.6395,-1.6372,0.0,0.0,0.0,0.0,-1.6017,-1.6281,0.0,0.0,0.0,0.0,0.0,0.0,0.0,0.0,0.0,0.0,0.0,0.0,0.0,0.0,0.0,0.0,0.0,0.0,0.0,0.0,0.0,0.0,0.0,0.0,0.0,0.0,0.0,0.0,0.0,0.0,0.0,0.0,0.0,0.0,0.0,0.0,0.0,0.0,0.0,0.0,0.0,0.0,0.0,0.0,0.0,0.0,0.0,0.0,0.0,0.0,0.0,0.0,0.0,0.0,0.0,0.0,-1.1282,-1.1178,-1.1108,-1.1108,-1.1169,-1.1227,-1.1307,-1.1421,-1.1578,0.0,0.0,0.0,0.0,0.0,0.0,0.0,0.0,0.0,0.0,0.0,0.0,0.0,0.0,0.0,0.0,0.0,0.0,0.0,0.0,0.0,0.0,0.0,0.0,0.0,0.0,0.0,0.0,0.0,0.0,0.0,0.0,0.0,0.0,0.0,0.0,0.0,0.0,0.0,0.0,0.0,-1.6939,-1.6627,-1.6844,-1.7003,0.0,0.0,-1.684,-1.6788,-1.7105,0.0,0.0,0.0,0.0,0.0,0.0,0.0,0.0,0.0,0.0,0.0,0.0,0.0,0.0,0.0,0.0,0.0,0.0,0.0,0.0,0.0,0.0,0.0,0.0,0.0,0.0,0.0,0.0,0.0,0.0,0.0,0.0,0.0,0.0,0.0,0.0,0.0,0.0,0.0,0.0,0.0,0.0,0.0,0.0,0.0,0.0,0.0,0.0,0.0,0.0,0.0,0.0,0.0,0.0,0.0,-1.133,-1.1282,-1.1201,-1.1132,-1.1108,-1.1181,-1.1247,-1.141,-1.1129,-1.1152,0.0,0.0,0.0,0.0,0.0,0.0,0.0,0.0,0.0,0.0,0.0,0.0,0.0,0.0,0.0,0.0,0.0,0.0,0.0,0.0,0.0,0.0,0.0,0.0,0.0,0.0,0.0,0.0,0.0,0.0,0.0,0.0,0.0,0.0,0.0,0.0,0.0,0.0,0.0,0.0,0.0,0.0,-1.6841,-1.7084,0.0,0.0,0.0,-1.7517,-1.7169,0.0,0.0,0.0,0.0,0.0,0.0,0.0,0.0,0.0,0.0,0.0,0.0,0.0,0.0,0.0,0.0,0.0,0.0,0.0,0.0,0.0,0.0,0.0,0.0,0.0,0.0,0.0,0.0,0.0,0.0,0.0,0.0,0.0,0.0,0.0,0.0,0.0,0.0,0.0,0.0,0.0,0.0,0.0,0.0,0.0,0.0,0.0,0.0,0.0,0.0,0.0,0.0,0.0,0.0,0.0,0.0,0.0,-1.1273,-1.1215,-1.1143,-1.1111,-1.119,-1.1353,-1.1508,-1.0959,0.0,0.0,0.0,0.0,0.0,0.0,0.0,0.0,0.0,0.0,0.0,0.0,0.0,0.0,0.0,0.0,0.0,0.0,0.0,0.0,0.0,0.0,0.0,0.0,0.0,0.0,0.0,-1.1412,0.0,0.0,0.0,0.0,0.0,0.0,0.0,0.0,0.0,0.0,0.0,0.0,0.0,0.0,-1.6929,-1.7068,-1.7175,-1.7275,0.0,0.0,-1.7887,-1.7499,-1.7801,-1.803,0.0,0.0,0.0,0.0,0.0,0.0,0.0,0.0,0.0,0.0,0.0,0.0,0.0,0.0,0.0,0.0,0.0,0.0,0.0,0.0,0.0,0.0,0.0,0.0,0.0,0.0,0.0,0.0,0.0,0.0,0.0,0.0,0.0,0.0,0.0,0.0,0.0,0.0,0.0,0.0,0.0,0.0,0.0,0.0,0.0,0.0,0.0,0.0,0.0,0.0,0.0,0.0,0.0,0.0,-1.1273,-1.1215,-1.1146,-1.1111,-1.1108,-1.1285,-1.1466,-1.159,-1.1121,-1.1065,0.0,0.0,0.0,0.0,0.0,0.0,0.0,0.0,0.0,0.0,0.0,0.0,0.0,0.0,0.0,0.0,0.0,0.0,0.0,0.0,0.0,0.0,0.0,0.0,0.0,0.0,0.0,0.0,0.0,0.0,0.0,0.0,0.0,0.0,0.0,0.0,0.0,0.0,0.0,0.0,0.0,-1.7326,-1.7279,-1.719,-1.723,0.0,-1.7726,-1.7798,-1.7785,-1.8105,-1.8288,-1.8,0.0,0.0,0.0,0.0,0.0,0.0,0.0,0.0,0.0,0.0,0.0,0.0,0.0,0.0,0.0,0.0,0.0,0.0,0.0,0.0,0.0,0.0,0.0,0.0,0.0,0.0,0.0,0.0,0.0,0.0,0.0,0.0,0.0,0.0,0.0,0.0,0.0,0.0,0.0,0.0,0.0,0.0,0.0,0.0,0.0,0.0,0.0,0.0,0.0,0.0,0.0,0.0,0.0,-1.1447,-1.1745,-1.1331,-1.1111,-1.1108,-1.1307,-1.1474,-1.1659,-1.0846,-1.0614,0.0,0.0,0.0,0.0,0.0,0.0,0.0,0.0,0.0,0.0,0.0,0.0,0.0,0.0,0.0,0.0,0.0,0.0,0.0,0.0,0.0,0.0,0.0,0.0,0.0,0.0,0.0,0.0,-0.9296,-0.9,-0.9563,0.0,0.0,0.0,0.0,0.0,0.0,0.0,0.0,0.0,0.0,-1.7513,-1.7282,-1.7695,0.0,0.0,-1.8421,-1.8544,-1.8215,-1.8511,-1.8625,-1.8252,-1.867,0.0,0.0,0.0,0.0,0.0,0.0,0.0,0.0,0.0,0.0,0.0,0.0,0.0,0.0,0.0,0.0,0.0,0.0,0.0,0.0,0.0,0.0,0.0,0.0,0.0,0.0,0.0,0.0,0.0,0.0,0.0,0.0,0.0,0.0,0.0,0.0,0.0,0.0,0.0,0.0,0.0,0.0,0.0,0.0,0.0,0.0,0.0,0.0,0.0,0.0,0.0,0.0,-1.2031,-1.2371,-1.1897,-1.1575,-1.1366,-1.1556,-1.1678,-1.1677,-1.0877,-1.0536,0.0,0.0,0.0,0.0,0.0,0.0,0.0,0.0,0.0,0.0,0.0,0.0,0.0,0.0,0.0,0.0,0.0,0.0,0.0,0.0,0.0,0.0,0.0,0.0,0.0,0.0,0.0,0.0,-0.9721,-0.9623,-1.0451,0.0,0.0,0.0,0.0,0.0,0.0,0.0,0.0,0.0,0.0,-1.7579,-1.756,-1.8118,-1.8545,-1.8562,-1.8927,-1.9063,-1.8698,-1.8943,-1.9021,-1.8577,0.0,0.0,0.0,0.0,0.0,0.0,0.0,0.0,0.0,0.0,0.0,0.0,0.0,0.0,0.0,0.0,0.0,0.0,0.0,0.0,0.0,0.0,0.0,0.0,0.0,0.0,0.0,0.0,0.0,0.0,-1.3051,0.0,0.0,0.0,0.0,0.0,0.0,0.0,0.0,0.0,0.0,0.0,0.0,0.0,0.0,0.0,0.0,0.0,0.0,0.0,0.0,0.0,0.0,-1.3074,-1.2981,-1.2939,-1.2629,-1.2025,-1.2186,-1.2091,-1.1722,-1.1368,-1.1022,-1.0682,0.0,0.0,0.0,0.0,0.0,0.0,0.0,0.0,0.0,0.0,0.0,0.0,0.0,0.0,0.0,0.0,0.0,0.0,0.0,0.0,0.0,0.0,0.0,0.0,0.0,0.0,-0.956,-0.9637,-1.0078,0.0,0.0,0.0,0.0,0.0,0.0,0.0,0.0,0.0,0.0,-1.7052,-1.7567,-1.8275,-1.8395,-1.8576,-1.8917,-1.9105,-1.9196,-1.9172,-1.9384,-1.9443,0.0,0.0,0.0,0.0,0.0,0.0,0.0,0.0,0.0,0.0,0.0,0.0,0.0,0.0,0.0,0.0,0.0,0.0,0.0,0.0,0.0,0.0,0.0,0.0,0.0,0.0,0.0,-1.4388,-1.4472,0.0,0.0,0.0,0.0,0.0,0.0,0.0,0.0,0.0,0.0,0.0,-1.495,-1.4964,0.0,0.0,0.0,0.0,0.0,0.0,0.0,0.0,0.0,0.0,0.0,0.0,-1.3247,-1.3572,-1.3206,-1.2896,-1.2658,-1.2429,-1.2296,-1.2279,-1.1556,-1.0608,-0.9483,0.0,0.0,0.0,0.0,0.0,0.0,0.0,0.0,0.0,0.0,0.0,0.0,0.0,0.0,0.0,0.0,0.0,0.0,0.0,0.0,0.0,0.0,0.0,0.0,0.0,-1.0797,0.0,0.0,0.0,0.0,0.0,0.0,0.0,0.0,0.0,0.0,0.0,-1.6946,-1.7188,-1.7784,-1.8228,-1.8358,-1.871,-1.8937,0.0,0.0,0.0,0.0,0.0,0.0,0.0,0.0,0.0,0.0,0.0,0.0,0.0,0.0,-2.2834,-2.1818,-2.1723,-2.1976,-2.2559,0.0,0.0,0.0,0.0,0.0,0.0,0.0,0.0,0.0,0.0,0.0,0.0,0.0,0.0,-1.572,0.0,-1.546,0.0,0.0,0.0,0.0,0.0,0.0,0.0,0.0,-1.6461,-1.6308,-1.5965,-1.595,-1.5866,0.0,-1.5572,-1.4991,0.0,0.0,0.0,0.0,0.0,0.0,0.0,0.0,-1.3841,-1.4132,-1.3782,-1.3501,-1.3277,-1.2991,-1.2833,-1.2831,-1.1974,-1.0996,-0.9869,-1.0065,-0.9811,0.0,0.0,0.0,0.0,0.0,0.0,0.0,0.0,0.0,0.0,0.0,0.0,0.0,0.0,0.0,0.0,0.0,0.0,0.0,0.0,0.0,0.0,0.0,-1.1402,0.0,0.0,0.0,0.0,0.0,0.0,0.0,0.0,0.0,-1.7009,-1.705,-1.7276,-1.7677,-1.8179,-1.8443,-1.8458,0.0,0.0,0.0,0.0,0.0,0.0,0.0,-1.9876,-2.0228,-2.0459,-2.0849,-2.1584,-2.2267,-2.2831,-2.3254,0.0,0.0,-2.2376,-2.2345,-2.2608,-2.3179,-2.3703,-2.4268,-2.4882,-2.5302,-2.557,0.0,0.0,0.0,0.0,0.0,0.0,0.0,0.0,-1.634,-1.6532,0.0,-1.6666,0.0,0.0,0.0,0.0,0.0,-1.7127,0.0,0.0,-1.7195,-1.7214,-1.7185,-1.7185,-1.6849,-1.624,-1.611,-1.567,-1.5056,-1.5146,0.0,0.0,0.0,0.0,0.0,0.0,-1.4839,-1.47,-1.4686,-1.4407,-1.3849,-1.3809,-1.3643,-1.3314,-1.2682,-1.2183,-1.1776,-1.0725,-1.0142,-1.0203,-0.9594,0.0,0.0,0.0,0.0,0.0,0.0,0.0,0.0,0.0,0.0,0.0,0.0,0.0,0.0,0.0,0.0,0.0,0.0,0.0,0.0,-1.1999,0.0,0.0,0.0,0.0,0.0,0.0,0.0,0.0,0.0,0.0,-1.7067,-1.733,-1.7675,-1.8124,0.0,0.0,0.0,0.0,-1.8598,-1.8622,-1.9156,-1.961,-1.9634,-2.0278,-2.0775,-2.0823,0.0,0.0,-2.1824,-2.214,-2.2465,-2.2777,-2.3018,-2.3243,-2.3865,-2.3955,-2.4116,-2.4259,-2.4418,-2.4614,-2.479,-2.495,-2.4994,-1.7432,0.0,0.0,0.0,0.0,-1.6581,-1.6569,-1.6236,-1.6812,-1.7135,-1.724,-1.6863,0.0,0.0,0.0,0.0,0.0,0.0,-1.7791,-1.789,-1.7925,-1.7679,-1.7214,-1.7214,-1.7081,-1.6907,-1.674,-1.6327,-1.5741,-1.56,-1.5342,-1.4918,0.0,0.0,0.0,0.0,-1.4793,-1.4714,-1.4714,-1.457,-1.4297,-1.396,-1.37,-1.3537,-1.3525,-1.3126,-1.2332,-1.2099,-1.1652,-1.0873,-1.0219,0.0,0.0,0.0,0.0,0.0,0.0,0.0,0.0,0.0,0.0,0.0,0.0,0.0,0.0,0.0,0.0,0.0,0.0,0.0,-1.1354,-1.2394,-1.3362,0.0,0.0,0.0,0.0,0.0,0.0,0.0,0.0,0.0,-1.7786,-1.7861,-1.7981,0.0,0.0,-1.838,-1.8452,-1.8449,-1.8565,-1.8904,-1.9325,0.0,-2.0046,-2.0404,-2.08,-2.1174,-2.1655,-2.2138,-2.2543,-2.2749,-2.3025,-2.3485,-2.3714,-2.39,-2.413,-2.3891,-2.3699,-2.3826,-2.4273,-2.4735,-2.5038,-2.5403,-2.5757,-1.7973,-1.751,-1.7022,-1.681,-1.6856,-1.7279,-1.7287,-1.7046,-1.7509,-1.7808,-1.8003,-1.764,-1.7774,-1.8249,-1.7964,0.0,0.0,0.0,-1.848,-1.8564,-1.8564,-1.8346,-1.7969,-1.7954,-1.7838,-1.7606,-1.7386,-1.6844,-1.6,-1.5804,-1.5429,-1.4885,0.0,0.0,-1.4855,-1.4824,-1.4732,-1.4624,-1.4624,-1.456,-1.4467,-1.4293,-1.4055,-1.3813,-1.4061,-1.3843,-1.31,-1.3273,-1.2999,-1.2132,-1.1299,-1.058,0.0,0.0,0.0,0.0,0.0,0.0,0.0,0.0,0.0,0.0,0.0,-1.4905,-1.3767,0.0,0.0,0.0,-1.0965,-1.1212,-1.1856,-1.314,0.0,0.0,0.0,0.0,0.0,0.0,0.0,-1.8124,-1.81,-1.8141,-1.8281,-1.8171,-1.8116,-1.8177,-1.8315,-1.8437,-1.8591,0.0,-1.876,-1.9269,-1.9772,-2.0209,-2.0476,-2.0932,-2.1356,-2.1656,-2.214,-2.2592,-2.2848,-2.306,-2.336,-2.3688,-2.3848,-2.3953,-2.4128,-2.3879,-2.3784,-2.4108,-2.4611,-2.5063,-2.5279,-2.56,-2.5894,-1.8324,-1.8279,-1.8016,-1.7909,-1.7942,-1.8016,-1.8127,-1.8285,-1.8324,-1.8514,-1.8798,-1.875,-1.8851,-1.9101,-1.9116,0.0,-1.9116,-1.9116,-1.9101,-1.9116,-1.9116,-1.9116,-1.9116,-1.9101,-1.8811,-1.827,-1.8068,-1.7348,-1.62,-1.59,-1.5466,-1.4878,-1.4807,-1.4793,-1.4793,-1.4793,-1.4702,-1.4531,-1.4501,-1.4467,-1.4413,-1.4693,-1.4659,-1.4241,-1.4543,-1.4473,-1.4051,-1.4274,-1.4178,-1.3643,-1.2624,-1.1767,-1.1179,0.0,0.0,0.0,0.0,0.0,0.0,0.0,0.0,0.0,0.0,0.0,0.0,0.0,0.0,-1.1619,-1.2344,0.0,-1.282,-1.411,0.0,0.0,0.0,-1.7477,-1.7862,-1.8455,-1.8847,-1.8896,0.0,0.0,-1.8602,-1.836,-1.8246,-1.8484,-1.8449,-1.8556,-1.8873,-1.8925,-1.9149,-1.9666,-2.0372,-2.0929,-2.0976,-2.1587,-2.2101,-2.2137,-2.2463,-2.2708,-2.2848,-2.312,-2.339,-2.3509,-2.3556,-2.3658,-2.3832,-2.3972,-2.4274,-2.4781,-2.516,-2.5397,-2.5425,-2.5439,-2.5494,-1.847,-1.8285,-1.824,-1.8175,-1.8129,-1.8214,-1.8246,-1.8305,-1.8509,-1.8639,-1.8731,-1.8865,-1.8998,-1.9116,-1.9116,-1.9116,-1.9116,-1.9116,-1.9116,-1.9116,-1.9116,-1.9116,-1.9116,-1.9116,-1.9029,-1.8879,-1.8682,-1.8174,-1.7448,-1.6782,-1.6129,-1.5494,-1.5017,-1.4793,-1.4793,-1.4793,-1.4761,-1.4653,-1.4549,-1.4467,-1.4426,-1.4966,-1.5298,-1.5402,-1.6049,-1.598,-1.5094,-1.5303,-1.4999,-1.4027,-1.2967,-1.2104,-1.1506,-1.111,0.0,0.0,0.0,0.0,0.0,0.0,0.0,0.0,0.0,-1.4546,-1.387,0.0,-1.24,0.0,-1.2306,-1.2981,-1.3787,-1.4898,0.0,0.0,-1.7054,-1.7912,-1.8828,-1.8969,-1.8946,-1.8981,-1.878,-1.8706,-1.8939,-1.8813,-1.8862,-1.931,-1.896,-1.8794,-1.9204,-1.9283,-1.9465,-2.0023,-2.0544,-2.1028,-2.1447,-2.1873,-2.2197,-2.2197,-2.2359,-2.2512,-2.2708,-2.2878,-2.306,-2.3198,-2.336,-2.3492,-2.3671,-2.3894,-2.4157,-2.4421,-2.4664,-2.4877,-2.5075,-2.5131,-2.5188,-1.8664,-1.8519,-1.8533,-1.8495,-1.845,-1.8358,-1.8358,-1.8489,-1.8634,-1.8731,-1.8841,-1.8979,-1.9059,-1.9116,-1.9116,-1.9116,-1.9116,-1.9116,-1.9116,-1.9116,-1.9116,-1.9116,-1.9116,-1.9116,-1.9116,-1.9116,-1.8965,-1.8544,-1.7892,-1.7387,-1.6642,-1.5705,-1.5368,-1.5216,-1.5216,-1.5186,-1.5121,-1.5022,-1.5153,-1.5209,-1.5223,-1.5555,-1.5841,-1.603,-1.6501,-1.6528,-1.5965,-1.6205,-1.592,-1.511,-1.4059,-1.3237,-1.2702,-1.2104,-1.187,0.0,0.0,0.0,0.0,0.0,0.0,0.0,0.0,0.0,0.0,0.0,-1.3362,-1.3317,-1.3908,-1.4609,-1.5336,-1.6203,-1.6859,-1.7221,-1.7878,-1.8542,-1.9139,-1.9208,-1.9238,-1.9422,-1.9197,-1.9168,-1.9481,-1.9373,-1.9436,-1.9941,-1.968,-1.9559,-1.9768,-1.9867,-2.0038,-2.0579,-2.0993,-2.1407,-2.1851,-2.2061,-2.2197,-2.2197,-2.2389,-2.2574,-2.269,-2.286,-2.3017,-2.3108,-2.3198,-2.333,-2.3569,-2.376,-2.3923,-2.4144,-2.4303,-2.4505,-2.4835,-2.4907,-2.5018,-1.8836,-1.8803,-1.8803,-1.8803,-1.8784,-1.8495,-1.8509,-1.8711,-1.8731,-1.8827,-1.9017,-1.9064,-1.9116,-1.9116,-1.9116,-1.9116,-1.9116,-1.9116,-1.9116,-1.9116,-1.9116,-1.9116,-1.9116,-1.9116,-1.9116,-1.9116,-1.9021,-1.8654,-1.8039,-1.7811,-1.7121,-1.5988,-1.5876,-1.5831,-1.5817,-1.5901,-1.5817,-1.5561,-1.5922,-1.6146,-1.619,-1.6273,-1.635,-1.639,-1.6577,-1.6681,-1.6704,-1.6937,-1.686,-1.6345,-1.5359,-1.4616,-1.4197,-1.356,-1.3197,0.0,-1.4538,0.0,0.0,0.0,0.0,0.0,0.0,0.0,0.0,-1.4743,-1.4758,-1.5205,-1.5969,-1.6569,-1.6921,-1.7566,-1.7948,-1.7997,-1.8668,-1.9181,-1.9221,-1.9379,-1.9633,-2.0034,-1.9706,-1.9641,-2.0135,-2.0006,-2.0012,-2.0473,-2.0584,-2.0531,-2.0565,-2.0534,-2.0653,-2.1175,-2.1498,-2.1776,-2.2092,-2.2166,-2.2197,-2.2228,-2.2463,-2.2708,-2.2708,-2.2909,-2.3095,-2.3095,-2.3095,-2.3228,-2.3539,-2.3586,-2.373,-2.4054,-2.4112,-2.4258,-2.4649,-2.4778,-2.4806,-1.8889,-1.8803,-1.8803,-1.8803,-1.8784,-1.8726,-1.8726,-1.8798,-1.8903,-1.8998,-1.9082,-1.9116,-1.9116,-1.9116,-1.9116,-1.9116,-1.9116,-1.9116,-1.9116,-1.9116,-1.9116,-1.9116,-1.9116,-1.9116,-1.9116,-1.9116,-1.9036,-1.8936,-1.8773,-1.8043,-1.7578,-1.7319,-1.6786,-1.6508,-1.6536,0.0,0.0,0.0,-1.6338,-1.6304,-1.6218,-1.6608,-1.6886,-1.6967,-1.7452,0.0,-1.7209,-1.7421,-1.727,-1.6639,-1.5747,0.0,0.0,0.0,0.0,0.0,0.0,0.0,0.0,0.0,0.0,0.0,-1.6327,-1.6193,-1.5384,-1.5079,-1.504,-1.5338,-1.615,-1.6834,-1.7269,-1.7952,-1.8486,-1.8741,-1.8833,-1.9118,-1.9736,-1.986,-2.0058,-2.0451,-2.0299,-2.0374,-2.0801,-2.0788,-2.0855,-2.1304,-2.1452,-2.1452,-2.144,-2.1197,-2.1138,-2.1356,-2.1632,-2.1937,-2.2166,-2.2197,-2.2197,-2.2216,-2.2463,-2.2678,-2.2708,-2.2909,-2.3108,-2.3095,-2.3095,-2.3198,-2.3526,-2.3586,-2.3688,-2.4037,-2.4125,-2.42,-2.4563,-2.4649,-2.4706,-1.9021,0.0,-1.895,-1.8936,0.0,-1.8936,-1.8936,-1.895,-1.8979,-1.9036,-1.9116,-1.9116,-1.9116,-1.9116,-1.9116,-1.9116,-1.9116,-1.9116,-1.9116,-1.9116,-1.9116,-1.9116,-1.9116,-1.9116,-1.9116,-1.9116,-1.9074,-1.9036,-1.8979,-1.8569,-1.8114,-1.7695,-1.7376,-1.718,-1.7155,-1.7726,-1.7828,-1.7381,-1.7249,-1.7169,-1.7098,-1.733,-1.746,-1.7499,-1.7772,0.0,0.0,0.0,0.0,0.0,0.0,0.0,0.0,0.0,0.0,-1.5745,-1.6066,-1.6295,-1.6311,-1.652,-1.67,-1.6769,-1.7191,-1.7188,-1.6587,-1.648,-1.6659,-1.7083,-1.7506,-1.7869,-1.82,-1.8537,-1.8868,-1.9157,-1.9325,-1.956,-1.994,-2.0185,-2.0463,-2.0899,-2.0848,-2.095,-2.1431,-2.1379,-2.1393,-2.1651,-2.171,-2.171,-2.1667,-2.1561,-2.1486,-2.1632,-2.1757,-2.1956,-2.2123,-2.2197,-2.2216,-2.2309,-2.2525,-2.2708,-2.28,-2.2957,-2.3095,-2.3095,-2.3095,-2.3228,-2.3497,-2.3586,-2.3688,-2.3995,-2.4125,-2.4171,-2.4405,-2.452,-2.4677,-1.9116,-1.9116,-1.9116,-1.9116,-1.9116,-1.9116,-1.9116,-1.9116,0.0,0.0,0.0,-1.9116,-1.9116,-1.9116,-1.9116,-1.9116,-1.9116,-1.9116,-1.9116,-1.9116,-1.9116,-1.9116,-1.9116,-1.9116,-1.9116,-1.9116,-1.9116,-1.9078,-1.9012,-1.9012,-1.8645,-1.7945,-1.7884,-1.7856,-1.7801,-1.8245,-1.8445,-1.8338,-1.8161,-1.8048,-1.8028,-1.7969,-1.7922,-1.7902,-1.7902,-1.7929,-1.7982,-1.8129,-1.8007,-1.7557,-1.7525,-1.7287,-1.6849,-1.6693,-1.6549,-1.6437,-1.6809,-1.6924,-1.6622,-1.6968,-1.7275,-1.7574,-1.7951,-1.8073,-1.7833,-1.7952,-1.8235,-1.875,-1.8771,-1.8851,-1.903,-1.9033,-1.9156,-1.9466,-1.9785,-2.0019,-2.0221,-2.0523,-2.0959,-2.1398,-2.1416,-2.1468,-2.1873,-2.1851,-2.1792,-2.1792,-2.1824,-2.1792,-2.1792,-2.1761,-2.1749,-2.1843,-2.1925,-2.203,-2.2135,-2.2197,-2.2247,-2.2359,-2.2555,-2.2751,-2.2891,-2.303,-2.3095,-2.3095,-2.3108,-2.33,-2.3526,-2.3628,-2.3747,-2.4067,-2.4125,-2.4141,-2.429,-2.4463,-2.4677,-1.9116,-1.9116,-1.9116,-1.9116,-1.9116,-1.9116,-1.9116,-1.9116,-1.9082,-1.9082,-1.9116,-1.9116,-1.9116,-1.9116,-1.9116,-1.9116,-1.9116,-1.9116,-1.9116,0.0,-1.9116,-1.9116,-1.9116,-1.9116,-1.9116,-1.9116,-1.9116,-1.9116,-1.9097,-1.9017,-1.8865,-1.8655,-1.8574,-1.8473,-1.8405,-1.8456,-1.8498,-1.8464,-1.8352,-1.822,-1.8183,-1.8055,-1.7942,-1.7922,-1.7902,-1.7902,-1.7922,-1.8103,-1.8161,-1.8084,-1.7711,-1.7432,-1.7325,-1.7195,-1.7013,-1.6878,-1.7563,-1.7907,-1.7783,-1.8026,-1.813,-1.7959,-1.7999,-1.8094,-1.8266,-1.817,-1.8172,-1.8391,-1.8655,-1.8796,-1.8834,-1.9064,-1.9373,-1.9818,-1.9867,-2.0157,-2.1036,-2.1211,-2.1476,-2.1957,-2.2089,-2.2003,-2.2099,-2.2123,-2.2104,-2.2092,-2.2061,-2.2104,-2.2061,-2.1999,-2.1894,-2.1925,-2.2061,-2.2166,-2.2197,-2.2197,-2.2278,-2.2389,-2.2586,-2.2781,-2.2909,-2.303,-2.3108,-2.3095,-2.3228,-2.339,-2.3569,-2.373,-2.3878,-2.4054,-2.4125,-2.4141,-2.4276,-2.445,-2.4649,-1.9435,-1.9116,-1.9116,-1.9116,-1.9116,-1.9116,-1.9116,-1.9116,-1.9116,-1.9116,-1.9116,-1.9116,-1.9116,-1.9116,-1.9116,-1.9116,-1.9116,-1.9116,-1.9116,-1.9116,-1.9116,-1.9116,-1.9116,-1.9116,-1.9116,-1.9116,-1.9116,-1.9116,-1.9097,-1.9078,-1.9003,-1.8908,-1.8769,-1.8634,-1.8498,-1.8498,-1.8498,-1.8498,-1.8372,-1.8274,-1.8189,-1.8075,-1.7975,-1.7902,-1.7902,-1.7909,-1.7969,-1.8036,-1.8135,-1.8254,-1.7924,-1.7938,-1.829,-1.8084,-1.8011,-1.8202,-1.8442,-1.85,-1.8319,-1.8507,-1.8545,-1.8436,-1.8635,-1.8846,-1.9021,-1.8647,-1.8524,-1.8846,-1.9056,-1.9102,-1.9037,-1.9397,-1.9703,-1.9867,-2.0314,-2.0863,-2.1332,-2.168,-2.1933,-2.2149,-2.2197,-2.2197,-2.2197,-2.2197,-2.2197,-2.2197,-2.2197,-2.2197,-2.2197,-2.2123,-2.2061,-2.2049,-2.2123,-2.2166,-2.2228,-2.2247,-2.2371,-2.2525,-2.2708,-2.286,-2.2987,-2.3078,-2.3108,-2.3108,-2.3271,-2.3433,-2.3569,-2.376,-2.3907,-2.4054,-2.4125,-2.4128,-2.4216,-2.439,-2.4635,-2.0001,-1.9537,-1.9537,-1.9537,-1.9537,-1.9537,-1.9522,-1.9522,-1.9551,-1.9522,-1.9493,-1.9246,-1.9116,-1.9116,-1.9116,-1.9116,-1.9116,-1.9116,-1.9174,-1.9319,-1.9319,-1.9319,-1.9333,-1.9333,-1.9261,-1.913,-1.9116,-1.9116,-1.9116,-1.9116,-1.9045,-1.8941,-1.8769,-1.8615,-1.8498,-1.8498,-1.8498,-1.8478,-1.8392,-1.8313,-1.8228,-1.8115,-1.7996,-1.7929,-1.7922,-1.7915,-1.7996,-1.7988,-1.8137,-1.8414,-1.8288,-1.8522,-1.9154,-1.8946,-1.8909,-1.9225,-1.9114,-1.8965,-1.8858,-1.8933,-1.8983,-1.8945,-1.9226,-1.942,-1.9462,-1.9162,-1.9011,-1.9305,-1.9401,-1.9446,-1.9439,-1.9809,-2.0145,-2.0193,-2.0863,-2.1404,-2.1596,-2.1945,-2.2197,-2.2197,-2.2197,-2.2197,-2.2197,-2.2197,-2.2197,-2.2197,-2.2197,-2.2197,-2.2197,-2.2197,-2.2197,-2.2197,-2.2197,-2.2197,-2.2228,-2.2309,-2.2463,-2.2678,-2.283,-2.2939,-2.3047,-2.3095,-2.3095,-2.3138,-2.3288,-2.345,-2.3599,-2.3789,-2.3966,-2.4096,-2.4125,-2.4141,-2.4258,-2.4419,-2.4677,-2.0872,-2.0849,-2.077,-2.0828,-2.0785,-2.0785,-2.0791,-2.077,-2.0814,-2.0828,-2.0654,-1.9609,-1.9145,-1.9116,-1.9159,-1.9174,-1.9174,-1.9116,-1.9449,-1.9972,-2.0001,-2.0001,-1.9986,-2.0001,-1.9682,-1.9217,-1.9174,-1.9217,-1.9217,-1.9145,-1.9021,-1.8836,-1.8736,-1.8634,-1.8517,-1.8498,-1.8498,-1.8498,-1.8478,-1.8425,-1.8299,-1.8228,-1.8129,-1.8002,-1.7929,-1.7902,-1.7922,-1.7975,-1.8262,-1.8782,-1.883,-1.9103,-1.9615,-1.9423,-1.9248,-1.9318,-1.935,-1.9405,-1.947,-1.9517,-1.9465,-1.9373,-1.9396,-1.9405,-1.9324,-1.9663,-1.9672,-1.9439,-1.9603,-1.9763,-1.9799,-2.0242,-2.0706,-2.1067,-2.132,-2.1596,-2.1993,-2.2149,-2.2197,-2.2197,-2.2197,-2.2197,-2.2197,-2.2197,-2.2197,-2.2197,-2.2197,-2.2197,-2.2197,-2.2197,-2.2197,-2.2197,-2.2197,-2.2197,-2.2216,-2.2309,-2.2494,-2.2678,-2.2787,-2.2969,-2.3078,-2.3095,-2.3095,-2.3198,-2.3378,-2.3569,-2.3709,-2.3848,-2.4119,-2.4331,-2.4321,-2.4265,-2.4461,-2.4616,-2.4786,-2.1449,-2.1003,-2.0988,-2.0988,-2.0988,-2.0988,-2.0988,-2.0988,-2.0988,-2.0988,-2.0944,-2.0436,-2.0219,-2.0204,-2.0239,-2.0219,-2.0219,-2.0233,-2.0349,-2.0611,-2.0625,-2.064,-2.064,-2.0625,-2.0465,-2.0233,-2.0219,-2.0219,-2.0161,-1.987,-1.9431,-1.8951,-1.8812,-1.8702,-1.8615,-1.8537,-1.8498,-1.8498,-1.8498,-1.8478,-1.8406,-1.8268,-1.8135,-1.8002,-1.7949,-1.7902,-1.7943,-1.8242,-1.861,-1.8891,-1.9203,-1.9666,-2.0293,-2.0088,-2.0064,-2.0253,-2.003,-1.9826,-1.9708,-1.963,-1.9591,-1.9512,-1.9742,-1.9873,-1.9963,-2.0278,-2.0374,-2.0228,-2.0213,-2.029,-2.0322,-2.0767,-2.1175,-2.1404,-2.1668,-2.1957,-2.2161,-2.2197,-2.2197,-2.2197,-2.2197,-2.2197,-2.2197,-2.2197,-2.2197,-2.2197,-2.2197,-2.2221,-2.2209,-2.2197,-2.2197,-2.2197,-2.2197,-2.2216,-2.2309,-2.2463,-2.2647,-2.2787,-2.2939,-2.3047,-2.3103,-2.3108,-2.3138,-2.3266,-2.3539,-2.3889,-2.4236,-2.4442,-2.4674,-2.487,-2.5118,-2.5192,-2.5404,-2.5233,-2.5317,-2.2147,-2.1611,-2.1546,-2.1525,-2.1504,-2.1525,-2.1525,-2.1504,-2.1504,-2.1525,-2.1525,-2.1518,-2.1525,-2.1481,-2.1177,-2.0988,-2.0988,-2.0988,-2.1104,-2.1235,-2.1264,-2.1278,-2.1299,-2.1264,-2.1162,-2.1017,-2.0959,-2.0973,-2.0944,-2.0596,-2.0078,-1.9541,-1.9213,-1.9031,-1.8914,-1.8655,-1.8498,-1.8498,-1.8498,-1.8498,-1.8492,-1.8494,-1.8354,-1.8103,-1.8133,-1.8167,-1.816,-1.8731,-1.9146,-1.9331,-1.9709,-2.0211,-2.0825,-2.0705,-2.0716,-2.0832,-2.0536,-2.0144,-1.9824,-1.9708,-1.9705,-1.9853,-2.013,-2.0415,-2.0692,-2.0997,-2.1149,-2.1104,-2.1139,-2.1153,-2.0887,-2.1308,-2.1608,-2.1656,-2.1981,-2.2185,-2.2197,-2.2197,-2.2197,-2.2197,-2.2197,-2.2197,-2.2197,-2.2197,-2.2197,-2.2197,-2.233,-2.2414,-2.245,-2.2546,-2.2666,-2.263,-2.2674,-2.2623,-2.2487,-2.2555,-2.2739,-2.2878,-2.2987,-2.317,-2.3283,-2.3346,-2.3601,-2.4001,-2.4007,-2.4222,-2.4761,-2.5101,-2.5288,-2.5641,-2.5824,-2.5855,-2.584,-2.5729,-2.5895,-2.3165,-2.298,-2.2846,-2.2794,-2.2815,-2.2838,-2.2815,-2.2838,-2.2815,-2.2815,-2.2838,-2.2823,-2.2815,-2.2751,-2.1707,-2.1046,-2.1032,-2.109,-2.1409,-2.1917,-2.1946,-2.1946,-2.196,-2.196,-2.1641,-2.1206,-2.1191,-2.1119,-2.1046,-2.0988,-2.0897,-2.0763,-2.0099,-1.9692,-1.9494,-1.8942,-1.854,-1.8638,-1.8638,-1.8568,-1.8604,-1.902,-1.8919,-1.841,-1.8625,-1.8808,-1.8833,-1.9356,-1.9876,-2.0396,-2.045,-2.0748,-2.1263,-2.1224,-2.1004,-2.0709,-2.0585,-2.0372,-1.9965,-1.9874,-2.0048,-2.0418,-2.059,-2.0737,-2.1275,-2.1741,-2.1951,-2.1871,-2.2223,-2.2158,-2.1578,-2.1837,-2.2151,-2.2132,-2.218,-2.2228,-2.2228,-2.2228,-2.2197,-2.2197,-2.2197,-2.2234,-2.2221,-2.2197,-2.2282,-2.2378,-2.2666,-2.2943,-2.3035,-2.3372,-2.3565,-2.3601,-2.3639,-2.3555,-2.2712,-2.2874,-2.2967,-2.3132,-2.346,-2.3384,-2.3715,-2.4048,-2.4394,-2.4722,-2.4854,-2.5075,-2.5425,-2.5667,-2.5827,-2.6015,-2.6054,-2.6104,-2.6369,-2.6272,-2.6427,-2.3356,-2.3268,-2.3543,-2.3672,-2.3716,-2.4002,-2.4143,-2.4157,-2.4143,-2.4128,-2.4157,-2.4143,-2.4128,-2.4076,-2.365,-2.2983,-2.2258,-2.2214,-2.2359,-2.2562,-2.2577,-2.2577,-2.2577,-2.2577,-2.249,-2.2272,-2.22,-2.1997,-2.1656,-2.1641,-2.1402,-2.0984,-2.0656,-2.0431,-2.025,-1.9955,-1.976,-1.9712,-1.9705,-1.9726,-1.9677,-1.9894,-1.9817,-1.9482,-1.947,-1.9456,-1.9383,-1.9895,-2.0315,-2.0518,-2.0857,-2.1169,-2.1358,-2.1277,-2.1142,-2.0983,-2.0734,-2.0666,-2.0836,-2.0732,-2.0882,-2.1415,-2.1794,-2.1951,-2.2157,-2.2493,-2.27,-2.2588,-2.2591,-2.2494,-2.2372,-2.2427,-2.2537,-2.2537,-2.2494,-2.2463,-2.2359,-2.234,-2.2309,-2.2216,-2.2197,-2.2318,-2.2594,-2.269,-2.2823,-2.318,-2.3396,-2.3493,-2.3529,-2.371,-2.3854,-2.3851,-2.3914,-2.3924,-2.3773,-2.3811,-2.3958,-2.4085,-2.4249,-2.4261,-2.4494,-2.4519,-2.4771,-2.5167,-2.5429,-2.5743,-2.6019,-2.6511,-2.6615,-2.672,-2.672,-2.6661,-2.6955,-2.6844,-2.7043,-2.4089,-2.4036,-2.4349,-2.4493,-2.4529,-2.4766,-2.4936,-2.4951,-2.4873,-2.4839,-2.4839,-2.4824,-2.4824,-2.4824,-2.4824,-2.4404,-2.3554,-2.3511,-2.3511,-2.3511,-2.3534,-2.3511,-2.349,-2.3316,-2.3215,-2.3171,-2.2975,-2.2678,-2.233,-2.2294,-2.204,-2.1634,-2.1361,-2.1119,-2.0969,-2.067,-2.0465,-2.04,-2.0378,-2.0386,-2.0414,-2.0597,-2.0637,-2.0528,-2.049,-2.0324,-2.0066,-2.0514,-2.0789,-2.0857,-2.1196,-2.1385,-2.1385,-2.1326,-2.1229,-2.1193,-2.1156,-2.122,-2.1511,-2.1524,-2.1753,-2.2266,-2.258,-2.2805,-2.2907,-2.3145,-2.3173,-2.306,-2.2982,-2.2921,-2.2921,-2.2921,-2.286,-2.2739,-2.2708,-2.2659,-2.2512,-2.2482,-2.242,-2.2333,-2.2409,-2.265,-2.2951,-2.3168,-2.3396,-2.3749,-2.3926,-2.4001,-2.4013,-2.4169,-2.4254,-2.4312,-2.4575,-2.4746,-2.4816,-2.5004,-2.4701,-2.4743,-2.4725,-2.485,-2.5071,-2.5071,-2.5244,-2.5639,-2.5961,-2.6291,-2.6707,-2.7229,-2.7411,-2.7477,-2.7359,-2.7163,-2.7348,-2.74,-2.7536,-2.5484,-2.5346,-2.5346,-2.5322,-2.5328,-2.5311,-2.5165,-2.5243,-2.5107,-2.513,-2.5159,-2.4965,-2.5091,-2.4965,-2.512,-2.4921,-2.4878,-2.4824,-2.4737,-2.465,-2.4665,-2.4665,-2.4621,-2.4138,-2.3905,-2.3862,-2.3273,-2.296,-2.2939,-2.2925,-2.2867,-2.2692,-2.2105,-2.1787,-2.1619,-2.1047,-2.0592,-2.0598,-2.0597,-2.054,-2.0498,-2.104,-2.1249,-2.1192,-2.1579,-2.1467,-2.0753,-2.1142,-2.1342,-2.1355,-2.1372,-2.1385,-2.1423,-2.1464,-2.1415,-2.1439,-2.1768,-2.195,-2.1864,-2.2206,-2.2595,-2.2992,-2.2964,-2.3164,-2.3495,-2.359,-2.3539,-2.3433,-2.3373,-2.336,-2.3373,-2.3373,-2.3193,-2.28,-2.28,-2.28,-2.2708,-2.2702,-2.2641,-2.2554,-2.2824,-2.2999,-2.3144,-2.3582,-2.3932,-2.4114,-2.4357,-2.4599,-2.4657,-2.4935,-2.5215,-2.5321,-2.5385,-2.5539,-2.584,-2.6089,-2.559,-2.5222,-2.5159,-2.5197,-2.5544,-2.5669,-2.5962,-2.6309,-2.6606,-2.6893,-2.6999,-2.7438,-2.7451,-2.7503,-2.7503,-2.7536,-2.7577,-2.7631,-2.7815,-2.5871,-2.5846,-2.6108,-2.6191,-2.6217,-2.6435,-2.6552,-2.6552,-2.6501,-2.6451,-2.6461,-2.6476,-2.6476,-2.641,-2.6389,-2.6338,-2.6312,-2.6192,-2.572,-2.5009,-2.4853,-2.4868,-2.4863,-2.4689,-2.4559,-2.4544,-2.4346,-2.3983,-2.3635,-2.3563,-2.3397,-2.2931,-2.2677,-2.2523,-2.2396,-2.2106,-2.1894,-2.1781,-2.1691,-2.1659,-2.1636,-2.1814,-2.1889,-2.1871,-2.1969,-2.1838,-2.1615,-2.1554,-2.153,-2.1544,-2.1434,-2.1434,-2.1598,-2.2024,-2.2218,-2.2163,-2.2603,-2.3055,-2.3205,-2.327,-2.3518,-2.3925,-2.4041,-2.4034,-2.4063,-2.4011,-2.3878,-2.373,-2.3611,-2.3539,-2.3539,-2.3539,-2.3505,-2.333,-2.333,-2.3193,-2.3056,-2.3146,-2.3218,-2.3229,-2.3582,-2.4022,-2.4331,-2.4637,-2.4774,-2.5113,-2.5298,-2.5395,-2.5456,-2.553,-2.5699,-2.5723,-2.598,-2.6097,-2.6188,-2.6314,-2.6138,-2.5854,-2.5766,-2.5644,-2.5967,-2.6211,-2.6544,-2.687,-2.7162,-2.7369,-2.7469,-2.7536,-2.757,-2.7536,-2.757,-2.7623,-2.7723,-2.7855,-2.8,-2.6871,-2.6846,-2.704,-2.7109,-2.7144,-2.7299,-2.7361,-2.7335,-2.7233,-2.7192,-2.7178,-2.7192,-2.7192,-2.7167,-2.7119,-2.7067,-2.7081,-2.6989,-2.6487,-2.5766,-2.5575,-2.5575,-2.5556,-2.5313,-2.5106,-2.4907,-2.4824,-2.4621,-2.4283,-2.4225,-2.392,-2.3374,-2.3273,-2.3097,-2.2824,-2.2652,-2.2546,-2.2394,-2.2263,-2.2194,-2.2194,-2.2194,-2.2194,-2.217,-2.2114,-2.2077,-2.2067,-2.1855,-2.1722,-2.1688,-2.1592,-2.1698,-2.2017,-2.2448,-2.2776,-2.3032,-2.3435,-2.3863,-2.4041,-2.4107,-2.4277,-2.4625,-2.4664,-2.4578,-2.4463,-2.4361,-2.4274,-2.407,-2.394,-2.3881,-2.3865,-2.4012,-2.409,-2.4205,-2.3803,-2.3611,-2.353,-2.3785,-2.3938,-2.4023,-2.4329,-2.4706,-2.4988,-2.5333,-2.5505,-2.5849,-2.5923,-2.5923,-2.5923,-2.5863,-2.591,-2.5945,-2.6062,-2.6166,-2.628,-2.6418,-2.6577,-2.6488,-2.6438,-2.635,-2.6425,-2.6519,-2.671,-2.7103,-2.7423,-2.7636,-2.7769,-2.7769,-2.7802,-2.7736,-2.7669,-2.7802,-2.7934,-2.7967,-2.8099,-2.8332,-2.821,-2.8063,-2.7984,-2.7934,-2.7725,-2.7625,-2.7575,-2.7386,-2.7295,-2.7284,-2.731,-2.7284,-2.7258,-2.7284,-2.7258,-2.7233,-2.7181,-2.7074,-2.6857,-2.675,-2.6669,-2.6515,-2.6094,-2.5658,-2.5226,-2.5085,-2.4969,-2.4936,-2.4868,-2.4549,-2.4007,-2.392,-2.3618,-2.3178,-2.2827,-2.2683,-2.2559,-2.2343,-2.2217,-2.2194,-2.2194,-2.2194,-2.2194,-2.2184,-2.2184,-2.2147,-2.2151,-2.2037,-2.19,-2.1907,-2.2194,-2.2647,-2.2799,-2.3278,-2.3751,-2.4318,-2.4502,-2.4532,-2.4694,-2.4881,-2.4878,-2.4835,-2.4791,-2.4734,-2.4857,-2.4867,-2.458,-2.4546,-2.4503,-2.458,-2.4764,-2.5039,-2.5099,-2.4481,-2.4098,-2.4271,-2.4621,-2.4795,-2.4783,-2.4958,-2.5228,-2.5404,-2.5728,-2.5938,-2.6025,-2.6097,-2.6119,-2.6119,-2.6154,-2.6015,-2.6084,-2.6258,-2.6327,-2.6452,-2.6521,-2.6658,-2.6773,-2.6773,-2.6773,-2.6773,-2.6841,-2.6952,-2.7356,-2.7715,-2.7901,-2.798,-2.798,-2.798,-2.7947,-2.798,-2.8079,-2.8191,-2.8224,-2.8368,-2.87,-2.8628,-2.8517,-2.8381,-2.8275,-2.8113,-2.8005,-2.7905,-2.7846,-2.7846,-2.7811,-2.7781,-2.7826,-2.7796,-2.759,-2.7499,-2.7448,-2.7295,-2.7181,-2.7144,-2.713,-2.6989,-2.6817,-2.6646,-2.6442,-2.6268,-2.6152,-2.601,-2.5589,-2.5546,-2.5197,-2.4578,-2.4588,-2.4505,-2.4269,-2.3697,-2.3363,-2.3122,-2.2615,-2.2357,-2.2264,-2.2264,-2.2194,-2.2194,-2.2236,-2.225,-2.2264,-2.2596,-2.2689,-2.2481,-2.2554,-2.2933,-2.3531,-2.4012,-2.4333,-2.456,-2.502,-2.5342,-2.5191,-2.5134,-2.5202,-2.5285,-2.52,-2.5131,-2.5285,-2.5625,-2.5687,-2.5578,-2.5759,-2.5895,-2.5828,-2.5857,-2.5963,-2.5932,-2.5476,-2.5141,-2.5266,-2.5589,-2.5817,-2.5815,-2.6193,-2.6354,-2.6409,-2.6497,-2.6683,-2.6683,-2.6671,-2.6671,-2.6636,-2.6602,-2.6555,-2.6521,-2.6589,-2.6577,-2.6645,-2.6658,-2.676,-2.6909,-2.6956,-2.7016,-2.7037,-2.7151,-2.7348,-2.7643,-2.8092,-2.8339,-2.8206,-2.8119,-2.8139,-2.8511,-2.8411,-2.859,-2.8533,-2.8576,-2.8765,-2.9225,-2.9454,-2.9288,-2.9323,-2.9459,-2.9302,-2.9137,-2.9002,-2.8941,-2.8875,-2.8789,-2.8521,-2.843,-2.8389,-2.7976,-2.774,-2.7665,-2.7514,-2.7412,-2.7284,-2.7192,-2.7104,-2.6974,-2.691,-2.6899,-2.6873,-2.6832,-2.6588,-2.6283,-2.6224,-2.585,-2.5357,-2.5241,-2.511,-2.4766,-2.4423,-2.4081,-2.3913,-2.3454,-2.3154,-2.3092,-2.3019,-2.3009,-2.2995,-2.2995,-2.2995,-2.3066,-2.3347,-2.3431,-2.3356,-2.3395,-2.3711,-2.4299,-2.4743,-2.5066,-2.521,-2.5602,-2.5729,-2.5605,-2.5467,-2.5439,-2.555,-2.5604,-2.5812,-2.5992,-2.6377,-2.6664,-2.6544,-2.6786,-2.6802,-2.6793,-2.6864,-2.7072,-2.7234,-2.6945,-2.6553,-2.6229,-2.6492,-2.6685,-2.6747,-2.686,-2.7024,-2.7024,-2.7092,-2.7113,-2.7113,-2.7146,-2.7113,-2.7113,-2.7146,-2.7066,-2.6964,-2.6897,-2.6909,-2.7016,-2.7075,-2.7314,-2.7449,-2.784,-2.7754,-2.7629,-2.7743,-2.8058,-2.8372,-2.8585,-2.8779,-2.8866,-2.9012,-2.9402,-2.9564,-2.9294,-2.9246,-2.937,-2.9176,-2.9324,-2.9867,-3.0537,-3.0291,-3.0492,-3.0907,-3.0744,-3.0442,-3.0413,-3.0222,-3.0092,-2.9877,-2.9352,-2.9017,-2.9002,-2.8303,-2.7955,-2.7855,-2.779,-2.773,-2.7637,-2.7569,-2.7495,-2.7632,-2.7181,-2.7044,-2.7003,-2.6884,-2.6817,-2.673,-2.6774,-2.6486,-2.6036,-2.5919,-2.5618,-2.5288,-2.4968,-2.4807,-2.4714,-2.4379,-2.4117,-2.4028,-2.3953,-2.3875,-2.3864,-2.3853,-2.3966,-2.405,-2.4177,-2.4219,-2.4289,-2.4244,-2.45,-2.4992,-2.5119,-2.5317,-2.5711,-2.5824,-2.5839,-2.5757,-2.5758,-2.58,-2.5897,-2.6399,-2.6677,-2.6788,-2.7307,-2.7656,-2.7478,-2.749,-2.7638,-2.7616,-2.7827,-2.8083,-2.8325,-2.8355,-2.794,-2.741,-2.7374,-2.7536,-2.7403,-2.7201,-2.7113,-2.7146,-2.7248,-2.7403,-2.7516,-2.7549,-2.7549,-2.7549,-2.7516,-2.7403,-2.7201,-2.7227,-2.7253,-2.7372,-2.7504,-2.785,-2.815,-2.8803,-2.8917,-2.8562,-2.8643,-2.9005,-2.9261,-2.9423,-2.9754,-3.0194,-3.0452,-3.0609,-3.0513,-3.0158,-3.0471,-3.0742,-3.0254,-3.0159,-3.0928,-3.1477,-3.131,-3.1293,-3.1291,-3.1135,-3.1017,-3.0898,-3.0762,-3.0727,-3.0361,-2.9795,-2.9443,-2.9311,-2.8538,-2.8137,-2.8079,-2.8065,-2.8097,-2.8482,-2.8356,-2.8618,-2.8639,-2.7891,-2.7229,-2.7218,-2.7059,-2.698,-2.6983,-2.7004,-2.6762,-2.6675,-2.6675,-2.653,-2.6329,-2.5839,-2.5514,-2.5326,-2.4919,-2.4622,-2.4472,-2.4382,-2.4306,-2.423,-2.4202,-2.4402,-2.4725,-2.481,-2.5035,-2.5288,-2.5078,-2.5077,-2.5527,-2.5655,-2.5725,-2.5837,-2.5921,-2.5921,-2.5964,-2.6232,-2.6512,-2.6778,-2.7215,-2.7637,-2.7854,-2.8422,-2.8615,-2.8563,-2.8808,-2.8856,-2.8699,-2.8768,-2.8888,-2.898,-2.8958,-2.8853,-2.8598,-2.8247,-2.8,-2.7947,-2.7881,-2.7848,-2.7848,-2.7835,-2.7901,-2.7947,-2.7947,-2.7961,-2.7961,-2.7974,-2.7934,-2.7866,-2.797,-2.8108,-2.83,-2.8473,-2.872,-2.9084,-2.9691,-3.0173,-2.9812,-2.9752,-3.0153,-3.0214,-3.0181,-3.0638,-3.1192,-3.1095,-3.1109,-3.1046,-3.11,-3.134,-3.1436,-3.1102,-3.1081,-3.1957,-3.2504,-3.2329,-3.2401,-3.2625,-3.2458,-3.2298,-3.2171,-3.2033,-3.1904,-3.1555,-3.0668,-3.0101,-2.9857,-2.8882,-2.8332,-2.8278,-2.8404,-2.8763,-2.9158,-2.9173,-2.9315,-2.9415,-2.886,-2.8307,-2.8213,-2.8083,-2.7988,-2.7935,-2.7852,-2.7858,-2.7759,-2.769,-2.749,-2.7258,-2.6837,-2.6521,-2.6179,-2.5784,-2.5469,-2.5352,-2.5211,-2.5081,-2.4976,-2.495,-2.5133,-2.54,-2.5416,-2.5597,-2.5725,-2.5584,-2.5555,-2.5836,-2.5893,-2.5893,-2.5921,-2.6217,-2.6301,-2.6441,-2.6891,-2.7328,-2.7542,-2.8109,-2.8437,-2.8782,-2.9254,-2.9522,-2.9456,-2.9593,-2.9727,-2.9571,-2.9571,-2.9571,-2.954,-2.9415,-2.9352,-2.9257,-2.8798,-2.8411,-2.8411,-2.836,-2.8327,-2.8327,-2.836,-2.8411,-2.8398,-2.8595,-2.8609,-2.8606,-2.8627,-2.8804,-2.8819,-2.8899,-2.9065,-2.9278,-2.9486,-2.9672,-3.0108,-3.0599,-3.1078,-3.1213,-3.1251,-3.1355,-3.1281,-3.1192,-3.1612,-3.2055,-3.1854,-3.1874,-3.2186,-3.2311,-3.2254,-3.2196,-3.2157,-3.2212,-3.3027,-3.3603,-3.3348,-3.3599,-3.4077,-3.385,-3.364,-3.3543,-3.345,-3.3145,-3.2867,-3.1528,-3.0697,-3.0384,-2.9366,-2.8724,-2.8774,-2.9022,-2.9544,-2.9989,-2.9969,-3.0069,-3.0051,-2.9953,-2.9782,-2.9684,-2.9191,-2.9049,-2.898,-2.9,-2.8682,-2.8803,-2.8748,-2.833,-2.794,-2.7811,-2.7607,-2.7173,-2.6804,-2.6609,-2.6472,-2.6242,-2.5982,-2.586,-2.5806,-2.5806,-2.5849,-2.585,-2.5879,-2.5893,-2.5921,-2.5921,-2.5921,-2.5893,-2.5978,-2.602,-2.6525,-2.6835,-2.7159,-2.7697,-2.8181,-2.8238,-2.891,-2.9342,-2.9544,-2.9832,-3.0031,-3.007,-3.008,-3.0019,-3.008,-3.0019,-3.0019,-3.0019,-2.9803,-2.9696,-2.9602,-2.9261,-2.904,-2.8817,-2.8734,-2.8683,-2.8716,-2.8734,-2.8817,-2.8894,-2.9104,-2.9265,-2.9261,-2.9443,-2.964,-2.9738,-2.9821,-3.0126,-3.0323,-3.0715,-3.0905,-3.1056,-3.1566,-3.1891,-3.2299,-3.2415,-3.2368,-3.2284,-3.2333,-3.266,-3.2898,-3.2883,-3.3009,-3.3368,-3.3353,-3.3125,-3.3129,-3.3252,-3.3264,-3.4008,-3.4646,-3.4365,-3.435,-3.4407,-3.4275,-3.4126,-3.4,-3.3848,-3.3668,-3.3218,-3.1864,-3.1114,-3.0738,-3.0036,-2.9819,-3.0047,-3.0186,-3.0424,-3.0815,-3.08,-3.0832,-3.1125,-3.1012,-3.1032,-3.0824,-3.0131,-2.9525,-2.9411,-2.9153,-2.9278,-2.9019,-2.8993,-2.8792,-2.865,-2.8534,-2.8434,-2.8113,-2.7712,-2.7455,-2.7272,-2.679,-2.6438,-2.6263,-2.6167,-2.6098,-2.6029,-2.5975,-2.5893,-2.5921,-2.6029,-2.6085,-2.6141,-2.606,-2.6258,-2.6581,-2.7018,-2.7442,-2.7839,-2.8523,-2.9013,-2.9288,-2.9691,-3.0126,-3.0303,-3.0405,-3.0387,-3.0296,-3.0203,-3.0111,-3.008,-3.0142,-3.0125,-3.0095,-3.0152,-3.0088,-3.0088,-3.0007,-2.9754,-2.9507,-2.9265,-2.9081,-2.9145,-2.9277,-2.942,-2.965,-2.9905,-3.0048,-3.0109,-3.0358,-3.0707,-3.0723,-3.0697,-3.1082,-3.144,-3.1887,-3.2168,-3.2085,-3.2364,-3.2506,-3.2883,-3.322,-3.3283,-3.3142,-3.3142,-3.3325,-3.3514,-3.366,-3.366,-3.3675,-3.3758,-3.3862,-3.3822,-3.3747,-3.3858,-3.4795,-3.5065,-3.4828,-3.4707,-3.4667,-3.4497,-3.4374,-3.43,-3.4101,-3.3949,-3.3492,-3.2547,-3.1854,-3.1505,-3.0863,-3.0808,-3.1078,-3.1078,-3.1316,-3.1661,-3.1649,-3.1548,-3.1813,-3.1683,-3.1597,-3.136,-3.0781,-3.0425,-3.047,-3.0343,-3.0126,-3.0115,-3.0,-2.971,-2.9347,-2.9203,-2.9014,-2.8724,-2.839,-2.8188,-2.8047,-2.74,-2.6991,-2.6769,-2.6445,-2.6233,-2.6206,-2.6152,-2.6125,-2.6209,-2.6504,-2.6674,-2.676,-2.6945,-2.7046,-2.7215,-2.7741,-2.8253,-2.8681,-2.9312,-2.9776,-2.9894,-3.0242,-3.0463,-3.0582,-3.0568,-3.0581,-3.0506,-3.0417,-3.0341,-3.0357,-3.0398,-3.0499,-3.0742,-3.0797,-3.0879,-3.108,-3.1088,-3.0793,-3.0397,-3.0073,-2.9859,-2.9718,-2.9876,-3.0087,-3.0351,-3.067,-3.0853,-3.0961,-3.1377,-3.1786,-3.1842,-3.1816,-3.1972,-3.2278,-3.252,-3.2881,-3.2917,-3.3002,-3.3143,-3.3297,-3.3556,-3.3799,-3.3865,-3.3922,-3.3882,-3.3813,-3.3813,-3.3882,-3.3951,-3.4054,-3.4157,-3.4225,-3.4278,-3.4346,-3.536,-3.5321,-3.5088,-3.497,-3.4947,-3.4732,-3.4594,-3.4546,-3.4341,-3.4201,-3.4053,-3.3215,-3.2622,-3.2335,-3.1917,-3.1735,-3.2071,-3.1986,-3.2191,-3.2311,-3.2226,-3.2107,-3.1968,-3.1828,-3.1727,-3.1582,-3.1406,-3.1496,-3.1302,-3.1201,-3.1276,-3.1042,-3.094,-3.0616,-3.0119,-2.9871,-2.9464,-2.9218,-2.8898,-2.8855,-2.8579,-2.8091,-2.7677,-2.7593,-2.7051,-2.6796,-2.6923,-2.6841,-2.68,-2.6941,-2.7225,-2.7538,-2.7638,-2.814,-2.8226,-2.8039,-2.8741,-2.9156,-2.9558,-2.9922,-3.0286,-3.0301,-3.0478,-3.0582,-3.0685,-3.0757,-3.0814,-3.0801,-3.0988,-3.109,-3.1132,-3.1032,-3.125,-3.1492,-3.1616,-3.1668,-3.1957,-3.204,-3.1918,-3.1475,-3.0977,-3.0768,-3.076,-3.0725,-3.0991,-3.1186,-3.1494,-3.181,-3.2009,-3.2539,-3.2922,-3.3022,-3.3033,-3.3002,-3.3059,-3.2968,-3.3213,-3.3248,-3.3333,-3.3452,-3.3626,-3.3799,-3.404,-3.423,-3.4278,-3.4191,-3.4088,-3.4088,-3.4244,-3.438,-3.4399,-3.4467,-3.4515,-3.4582,-3.4668,-3.5554,-3.5554,-3.536,-3.5245,-3.5222,-3.5065,-3.4947,-3.4851,-3.4683,-3.457,-3.4374,-3.3527,-3.308,-3.2925,-3.2688,-3.2739,-3.2971,-3.2982,-3.287,-3.2812,-3.2551,-3.237,-3.2231,-3.194,-3.1813,-3.1757,-3.1642,-3.1496,-3.16,-3.1571,-3.1468,-3.1367,-3.1324,-3.0955,-3.0778,-3.0585,-3.0467,-3.0263,-2.9769,-2.9276,-2.884,-2.8666,-2.8523,-2.8451,-2.8265,-2.8079,-2.7979,-2.7853,-2.7839,-2.7911,-2.8167,-2.8353,-2.8454,-2.9045,-2.9349,-2.9363,-2.9449,-2.9577,-3.0067,-3.0375,-3.0538,-3.0538,-3.0582,-3.0612,-3.0816,-3.1163,-3.1424,-3.1424,-3.1845,-3.2092,-3.2034,-3.2179,-3.2309,-3.2353,-3.2347,-3.2391,-3.2593,-3.2905,-3.2782,-3.2713,-3.2248,-3.2048,-3.1947,-3.1886,-3.1882,-3.2097,-3.2325,-3.2644,-3.2963,-3.3427,-3.3622,-3.3631,-3.3611,-3.3589,-3.3521,-3.3472,-3.3472,-3.3556,-3.366,-3.3744,-3.3848,-3.3971,-3.4162,-3.4332,-3.4414,-3.4597,-3.4664,-3.4683,-3.4735,-3.4735,-3.4702,-3.4769,-3.4835,-3.4935,-3.4983,-3.5997,-3.5817,-3.5571,-3.5464,-3.5458,-3.5291,-3.5111,-3.4994,-3.4875,-3.4756,-3.4561,-3.4145,-3.3811,-3.3631,-3.3372,-3.3355,-3.3481,-3.345,-3.3309,-3.3096,-3.2854,-3.2594,-3.2385,-3.215,-3.1996,-3.1949,-3.2044,-3.2197,-3.2093,-3.2064,-3.2034,-3.2005,-3.2169,-3.2032,-3.1542,-3.1332,-3.0993,-3.0657,-3.0322,-3.0045,-2.9769,-2.9421,-2.9203,-2.9189,-2.8827,-2.8711,-2.8654,-2.8568,-2.8497,-2.8569,-2.8871,-2.9131,-2.9262,-2.974,-3.0161,-3.0161,-3.0087,-3.0202,-3.0434,-3.0582,-3.0627,-3.0627,-3.067,-3.0727,-3.1105,-3.1685,-3.206,-3.206,-3.2292,-3.2527,-3.2539,-3.2481,-3.2759,-3.2904,-3.305,-3.3282,-3.3365,-3.3572,-3.3684,-3.3597,-3.3496,-3.3219,-3.2976,-3.2861,-3.2817,-3.2904,-3.3177,-3.3542,-3.3749,-3.3984,-3.4041,-3.3968,-3.3948,-3.3937,-3.3848,-3.3779,-3.373,-3.3813,-3.3888,-3.3971,-3.404,-3.4176,-3.4332,-3.4534,-3.4702,-3.4916,-3.5115,-3.5082,-3.4902,-3.4935,-3.5016,-3.5049,-3.5082,-3.5228,-3.5294,-3.6444,-3.6152,-3.5866,-3.5734,-3.5667,-3.5458,-3.5321,-3.5205,-3.5018,-3.4899,-3.4763,-3.4602,-3.4382,-3.4184,-3.3977,-3.3876,-3.3848,-3.3694,-3.3555,-3.3361,-3.3123,-3.2854,-3.2594,-3.2345,-3.2229,-3.214,-3.2432,-3.272,-3.2871,-3.2946,-3.2991,-3.2766,-3.2928,-3.2804,-3.2385,-3.2038,-3.1696,-3.0946,-3.067,-3.0525,-3.0423,-3.0074,-2.99,-2.9726,-2.945,-2.9188,-2.9174,-2.9203,-2.9218,-2.9334,-2.9595,-2.9827,-2.9943,-3.0234,-3.0496,-3.051,-3.0466,-3.0656,-3.0757,-3.0817,-3.0728,-3.0845,-3.1077,-3.1409,-3.1743,-3.2367,-3.2759,-3.2745,-3.3003,-3.3032,-3.2974,-3.3064,-3.3311,-3.3572,-3.3736,-3.4037,-3.424,-3.4153,-3.4124,-3.4018,-3.3989,-3.4119,-3.3941,-3.3815,-3.379,-3.379,-3.4037,-3.4356,-3.438,-3.4366,-3.4298,-3.4176,-3.4176,-3.4142,-3.4122,-3.4054,-3.402,-3.402,-3.4108,-3.4162,-3.421,-3.4312,-3.4467,-3.4668,-3.4902,-3.5082,-3.5246,-3.5148,-3.5067,-3.5148,-3.5228,-3.5246,-3.5311,-3.5439,-3.5472,-3.6888,-3.671,-3.6314,-3.6101,-3.5954,-3.5689,-3.5577,-3.5487,-3.5228,-3.5088,-3.5018,-3.4811,-3.4618,-3.4497,-3.4423,-3.4325,-3.4267,-3.4126,-3.3899,-3.3658,-3.3414,-3.3123,-3.287,-3.269,-3.2668,-3.29,-3.3107,-3.3336,-3.3668,-3.4055,-3.3874,-3.3543,-3.3689,-3.3295,-3.2915,-3.2687,-3.2222,-3.1469,-3.1003,-3.0728,-3.0685,-3.0525,-3.0467,-3.0481,-3.0467,-3.0467,-3.0438,-3.0292,-3.0234,-3.022,-3.0322,-3.0394,-3.0409,-3.0525,-3.0612,-3.0642,-3.0773,-3.1037,-3.1302,-3.114,-3.1035,-3.1424,-3.1963,-3.2344,-3.255,-3.31,-3.3373,-3.3493,-3.3769,-3.3993,-3.4109,-3.4269,-3.4066,-3.4066,-3.4095,-3.4196,-3.4341,-3.4356,-3.4293,-3.4351,-3.438,-3.438,-3.438,-3.4167,-3.4109,-3.4095,-3.4109,-3.438,-3.438,-3.438,-3.438,-3.4346,-3.4346,-3.4346,-3.4346,-3.4278,-3.4225,-3.4225,-3.4244,-3.4312,-3.4346,-3.4481,-3.4515,-3.4735,-3.4935,-3.518,-3.5344,-3.5279,-3.5279,-3.5407,-3.5472,-3.5392,-3.5392,-3.5457,-3.5504,-3.64,-3.632,-3.6579,-3.6506,-3.6174,-3.6036,-3.5839,-3.56,-3.5464,-3.5344,-3.5198,-3.5018,-3.4923,-3.4851,-3.4683,-3.4611,-3.4521,-3.4284,-3.4126,-3.3873,-3.3607,-3.3335,-3.3164,-3.322,-3.3254,-3.3483,-3.3756,-3.4091,-3.4361,-3.4821,-3.4968,-3.4754,-3.4558,-3.4222,-3.3871,-3.3174,-3.2587,-3.2109,-3.154,-3.1163,-3.1061,-3.0757,-3.0612,-3.0612,-3.0612,-3.0612,-3.0583,-3.0598,-3.0612,-3.0612,-3.0612,-3.0612,-3.0612,-3.0612,-3.0671,-3.0804,-3.1053,-3.1554,-3.1894,-3.1687,-3.1683,-3.2361,-3.3008,-3.3416,-3.3445,-3.3988,-3.4244,-3.4386,-3.4393,-3.4534,-3.4399,-3.4385,-3.4308,-3.4366,-3.438,-3.438,-3.438,-3.438,-3.438,-3.438,-3.438,-3.438,-3.438,-3.4351,-3.4337,-3.4385,-3.4366,-3.438,-3.438,-3.438,-3.438,-3.438,-3.438,-3.438,-3.438,-3.438,-3.438,-3.438,-3.438,-3.438,-3.438,-3.4414,-3.4481,-3.4735,-3.4968,-3.5148,-3.5311,-3.5424,-3.5504,-3.5504,-3.5504,-3.5457,-3.5489,-3.5489,-3.5489,-3.5792,-3.5807,-3.6455,-3.6621,-3.643,-3.6276,-3.6062,-3.5822,-3.565,-3.5481,-3.5308,-3.5198,-3.5175,-3.5105,-3.4994,-3.4851,-3.4763,-3.4594,-3.4358,-3.4126,-3.3864,-3.3666,-3.3677,-3.3811,-3.397,-3.4178,-3.4635,-3.5064,-3.5119,-3.5426,-3.5404,-3.5417,-3.5459,-3.5004,-3.4468,-3.3588,-3.2995,-3.2675,-3.2162,-3.1799,-3.1729,-3.1235,-3.0932,-3.0874,-3.0757,-3.0612,-3.0612,-3.0612,-3.0612,-3.0612,-3.0612,-3.0612,-3.0642,-3.0701,-3.0834,-3.1187,-3.1615,-3.2149,-3.2565,-3.2666,-3.2828,-3.3426,-3.4019,-3.433,-3.4537,-3.4768,-3.4817,-3.4824,-3.4802,-3.4683,-3.4515,-3.4515,-3.4448,-3.4448,-3.4414,-3.438,-3.438,-3.438,-3.438,-3.438,-3.438,-3.438,-3.438,-3.438,-3.438,-3.438,-3.438,-3.438,-3.438,-3.438,-3.438,-3.438,-3.438,-3.438,-3.438,-3.438,-3.438,-3.438,-3.438,-3.438,-3.438,-3.438,-3.4515,-3.4769,-3.4968,-3.51,-3.5279,-3.5457,-3.5489,-3.5489,-3.5489,-3.5489,-3.5489,-3.5489,-3.5489,-3.517,-3.5208,-3.5846,-3.6364,-3.6666,-3.6426,-3.628,-3.6152,-3.5805,-3.5526,-3.536,-3.5337,-3.5314,-3.5314,-3.5245,-3.5158,-3.5065,-3.4899,-3.4683,-3.4349,-3.4092,-3.4114,-3.4239,-3.4392,-3.4679,-3.5421,-3.5645,-3.5691,-3.5883,-3.5753,-3.5668,-3.5537,-3.5489,-3.5332,-3.5062,-3.4192,-3.3638,-3.3373,-3.2803,-3.2556,-3.2353,-3.1859,-3.1569,-3.1409,-3.1003,-3.0801,-3.0801,-3.0641,-3.0627,-3.0612,-3.0743,-3.0772,-3.0802,-3.098,-3.1304,-3.1849,-3.2226,-3.3063,-3.4218,-3.418,-3.4334,-3.4457,-3.4951,-3.519,-3.5277,-3.5314,-3.5213,-3.5198,-3.5082,-3.4883,-3.475,-3.4664,-3.4582,-3.4515,-3.4481,-3.4414,-3.4414,-3.438,-3.438,-3.438,-3.438,-3.438,-3.438,-3.438,-3.438,-3.438,-3.438,-3.438,-3.438,-3.438,-3.438,-3.438,-3.438,-3.438,-3.438,-3.438,-3.438,-3.438,-3.438,-3.438,-3.438,-3.438,-3.4582,-3.4835,-3.4968,-3.5067,-3.5279,-3.5489,-3.5489,-3.5489,-3.5489,-3.5489,-3.5489,-3.5489,-3.5489,-3.4554,-3.4577,-3.5224,-3.5882,-3.6442,-3.67,-3.6591,-3.628,-3.5997,-3.5795,-3.5678,-3.5639,-3.5571,-3.5526,-3.5452,-3.5383,-3.5314,-3.4994,-3.4756,-3.4667,-3.4357,-3.4529,-3.4733,-3.5054,-3.5376,-3.5874,-3.6088,-3.6091,-3.6086,-3.5958,-3.5799,-3.5653,-3.5522,-3.5311,-3.5023,-3.4556,-3.438,-3.4045,-3.3529,-3.3169,-3.3097,-3.2556,-3.2179,-3.2118,-3.1555,-3.1221,-3.1177,-3.0975,-3.0801,-3.083,-3.1004,-3.1267,-3.1461,-3.1699,-3.2323,-3.2923,-3.3393,-3.4406,-3.5428,-3.5797,-3.5703,-3.5653,-3.5634,-3.5816,-3.5799,-3.5767,-3.5686,-3.5557,-3.5394,-3.5246,-3.5096,-3.4916,-3.4783,-3.4664,-3.4597,-3.4515,-3.4481,-3.4414,-3.438,-3.438,-3.438,-3.438,-3.438,-3.438,-3.438,-3.438,-3.438,-3.438,-3.438,-3.438,-3.438,-3.438,-3.438,-3.438,-3.438,-3.438,-3.438,-3.438,-3.438,-3.438,-3.438,-3.438,-3.4582,-3.4817,-3.4916,-3.5049,-3.5294,-3.5489,-3.5489,-3.5489,-3.5579,-3.5549,-3.5489,-3.5489,-3.5489,-3.391,-3.3904,-3.4574,-3.5097,-3.5599,-3.628,-3.6452,-3.627,-3.6127,-3.6014,-3.5883,-3.5817,-3.5751,-3.5661,-3.5571,-3.5531,-3.5469,-3.5198,-3.4947,-3.4908,-3.4816,-3.5096,-3.5475,-3.5806,-3.6248,-3.6517,-3.6565,-3.6538,-3.6305,-3.6163,-3.5926,-3.5735,-3.5621,-3.5362,-3.5118,-3.4905,-3.4691,-3.4326,-3.392,-3.379,-3.3616,-3.3253,-3.2861,-3.2672,-3.228,-3.1828,-3.1758,-3.1511,-3.1266,-3.1382,-3.1631,-3.1999,-3.2299,-3.2707,-3.3293,-3.3856,-3.477,-3.5613,-3.64,-3.6662,-3.6461,-3.6383,-3.6352,-3.632,-3.632,-3.6289,-3.6163,-3.6005,-3.5829,-3.5572,-3.5392,-3.518,-3.5016,-3.4898,-3.4698,-3.4582,-3.4481,-3.4414,-3.438,-3.438,-3.438,-3.438,-3.438,-3.438,-3.438,-3.438,-3.438,-3.438,-3.438,-3.438,-3.438,-3.438,-3.438,-3.438,-3.438,-3.438,-3.438,-3.438,-3.438,-3.438,-3.438,-3.4414,-3.4582,-3.4783,-3.4883,-3.5049,-3.5326,-3.5504,-3.5564,-3.5684,-3.5818,-3.5729,-3.5549,-3.5594,-3.5684,-3.3232,-3.3227,-3.3866,-3.4127,-3.4263,-3.5417,-3.605,-3.6305,-3.6251,-3.6122,-3.5997,-3.5883,-3.5817,-3.5773,-3.5644,-3.5571,-3.5514,-3.5354,-3.5175,-3.5162,-3.5325,-3.5773,-3.622,-3.6662,-3.6908,-3.7117,-3.7089,-3.6739,-3.6523,-3.6258,-3.6022,-3.5799,-3.5703,-3.5459,-3.5198,-3.5001,-3.4769,-3.4543,-3.4413,-3.4345,-3.4199,-3.3889,-3.3675,-3.3394,-3.2984,-3.2617,-3.2486,-3.2356,-3.2326,-3.2463,-3.2657,-3.2811,-3.3029,-3.3327,-3.3916,-3.4677,-3.5812,-3.6461,-3.6907,-3.7014,-3.709,-3.703,-3.703,-3.6999,-3.6877,-3.6708,-3.6569,-3.6414,-3.6258,-3.5925,-3.5651,-3.5457,-3.5261,-3.5063,-3.4798,-3.465,-3.4481,-3.4448,-3.4414,-3.438,-3.438,-3.438,-3.438,-3.438,-3.438,-3.438,-3.438,-3.438,-3.438,-3.438,-3.438,-3.438,-3.438,-3.438,-3.4395,-3.4424,-3.438,-3.438,-3.438,-3.438,-3.438,-3.4443,-3.4549,-3.4683,-3.485,-3.5108,-3.566,-3.5774,-3.5729,-3.5893,-3.6297,-3.6118,-3.5998,-3.6028,-3.6133,-3.3337,-3.3265,-3.3371,-3.3705,-3.4309,-3.542,-3.6171,-3.6533,-3.6461,-3.6314,-3.6122,-3.6014,-3.5888,-3.5795,-3.5684,-3.5616,-3.5549,-3.5475,-3.5337,-3.5452,-3.5727,-3.6131,-3.6525,-3.6933,-3.7274,-3.7361,-3.7225,-3.6908,-3.6647,-3.6367,-3.6148,-3.5941,-3.5799,-3.5509,-3.5329,-3.5133,-3.4968,-3.4802,-3.475,-3.4702,-3.4735,-3.4501,-3.4383,-3.4175,-3.3682,-3.3386,-3.3313,-3.2993,-3.2861,-3.2852,-3.3392,-3.3728,-3.4046,-3.459,-3.5228,-3.5875,-3.6584,-3.7088,-3.7254,-3.7419,-3.751,-3.7569,-3.7583,-3.7331,-3.7151,-3.6969,-3.6892,-3.6754,-3.66,-3.632,-3.6052,-3.5829,-3.5587,-3.5261,-3.503,-3.4783,-3.465,-3.4481,-3.4448,-3.438,-3.438,-3.438,-3.438,-3.438,-3.438,-3.438,-3.4409,-3.4486,-3.4443,-3.4457,-3.4559,-3.4574,-3.4603,-3.4661,-3.4559,-3.4559,-3.4438,-3.438,-3.454,-3.4675,-3.4646,-3.4646,-3.4602,-3.4796,-3.5251,-3.5696,-3.6174,-3.6207,-3.6237,-3.6686,-3.7045,-3.6731,-3.6492,-3.6552,-3.6735,-3.3136,-3.3364,-3.3211,-3.3555,-3.4184,-3.4818,-3.541,-3.588,-3.6307,-3.6398,-3.6229,-3.6062,-3.5971,-3.5866,-3.5711,-3.56,-3.5577,-3.552,-3.5423,-3.5479,-3.599,-3.638,-3.6734,-3.715,-3.7584,-3.7605,-3.7345,-3.7014,-3.677,-3.6507,-3.6258,-3.6085,-3.5894,-3.5671,-3.5444,-3.5362,-3.5297,-3.5166,-3.5019,-3.4935,-3.4935,-3.4935,-3.4902,-3.4828,-3.4284,-3.4178,-3.4105,-3.3651,-3.3574,-3.3657,-3.4322,-3.4651,-3.4986,-3.5505,-3.6101,-3.6677,-3.7012,-3.7314,-3.7492,-3.7671,-3.7817,-3.7876,-3.7905,-3.773,-3.7539,-3.7375,-3.7225,-3.7059,-3.6877,-3.6693,-3.6445,-3.6195,-3.5861,-3.5537,-3.5261,-3.503,-3.4831,-3.4631,-3.4515,-3.4414,-3.438,-3.438,-3.438,-3.4409,-3.4443,-3.4501,-3.469,-3.4922,-3.4762,-3.4559,-3.4762,-3.4922,-3.4951,-3.498,-3.4907,-3.498,-3.5111,-3.5212,-3.5386,-3.5386,-3.514,-3.5203,-3.5418,-3.5624,-3.5849,-3.6293,-3.6705,-3.6817,-3.6941,-3.7375,-3.7719,-3.7599,-3.7345,-3.7165,-3.7409,-3.266,-3.3368,-3.3316,-3.3532,-3.3867,-3.3913,-3.4182,-3.4633,-3.5727,-3.6271,-3.6128,-3.6092,-3.5997,-3.5932,-3.5756,-3.5622,-3.5577,-3.5543,-3.5423,-3.5375,-3.6173,-3.6594,-3.6875,-3.7469,-3.7733,-3.7719,-3.7508,-3.7119,-3.6923,-3.6677,-3.6414,-3.6242,-3.6085,-3.5863,-3.5703,-3.5589,-3.5589,-3.5589,-3.5347,-3.5151,-3.5052,-3.4986,-3.4968,-3.4968,-3.4824,-3.4758,-3.4839,-3.4839,-3.4831,-3.5034,-3.5249,-3.5462,-3.5784,-3.6149,-3.6739,-3.7043,-3.7314,-3.7567,-3.7714,-3.7876,-3.7934,-3.7992,-3.7918,-3.7934,-3.7847,-3.7671,-3.7508,-3.7329,-3.7164,-3.6983,-3.6739,-3.6476,-3.6162,-3.5812,-3.5554,-3.5246,-3.4964,-3.4848,-3.485,-3.484,-3.4994,-3.4994,-3.5053,-3.5125,-3.5183,-3.4951,-3.5024,-3.5421,-3.5343,-3.5038,-3.5169,-3.543,-3.5444,-3.5546,-3.5706,-3.5807,-3.5996,-3.6127,-3.6156,-3.6054,-3.5764,-3.5973,-3.6364,-3.6356,-3.6281,-3.6847,-3.7228,-3.7376,-3.7614,-3.7943,-3.8242,-3.8457,-3.8307,-3.8042,-3.8182,-3.1924,-3.2693,-3.3169,-3.3306,-3.3257,-3.3745,-3.3845,-3.3827,-3.4684,-3.5262,-3.5541,-3.5924,-3.6101,-3.5975,-3.5839,-3.5689,-3.56,-3.552,-3.5423,-3.5479,-3.6081,-3.6512,-3.6656,-3.7275,-3.7717,-3.7876,-3.7655,-3.724,-3.7014,-3.68,-3.6569,-3.6445,-3.6258,-3.6085,-3.5958,-3.5846,-3.5878,-3.591,-3.5767,-3.5574,-3.5494,-3.5462,-3.5477,-3.5344,-3.5195,-3.5082,-3.5148,-3.5261,-3.5294,-3.5424,-3.5701,-3.5988,-3.6273,-3.6754,-3.7104,-3.7328,-3.7522,-3.7788,-3.7963,-3.8078,-3.8135,-3.8221,-3.825,-3.8193,-3.8107,-3.7934,-3.7788,-3.7596,-3.7403,-3.7224,-3.7076,-3.6801,-3.6552,-3.6222,-3.5918,-3.5561,-3.52,-3.5179,-3.5214,-3.5363,-3.5561,-3.5662,-3.5706,-3.5764,-3.5851,-3.5894,-3.5952,-3.6098,-3.6127,-3.5967,-3.6054,-3.6214,-3.6098,-3.6199,-3.6417,-3.6577,-3.6722,-3.662,-3.6548,-3.6446,-3.6388,-3.6598,-3.6823,-3.6695,-3.6761,-3.734,-3.7833,-3.8033,-3.8282,-3.8556,-3.8756,-3.8977,-3.9168,-3.9043,-3.9194,-3.1402,-3.2456,-3.3139,-3.3304,-3.3194,-3.3412,-3.3378,-3.3335,-3.3846,-3.4435,-3.4955,-3.5476,-3.5839,-3.5946,-3.5861,-3.5751,-3.56,-3.552,-3.5406,-3.5462,-3.5732,-3.6257,-3.6649,-3.7053,-3.7656,-3.7901,-3.7621,-3.7284,-3.7165,-3.6953,-3.677,-3.6677,-3.6507,-3.6336,-3.6195,-3.6132,-3.6085,-3.61,-3.61,-3.6022,-3.5879,-3.5784,-3.5638,-3.5489,-3.5439,-3.5344,-3.5427,-3.5572,-3.5636,-3.5765,-3.6052,-3.6445,-3.6754,-3.7074,-3.7328,-3.7551,-3.7772,-3.7992,-3.8135,-3.825,-3.8323,-3.8379,-3.8424,-3.8339,-3.8436,-3.828,-3.8261,-3.807,-3.7658,-3.7464,-3.7741,-3.7638,-3.7591,-3.7396,-3.7149,-3.6833,-3.6361,-3.6016,-3.5953,-3.5886,-3.5996,-3.6025,-3.6054,-3.6054,-3.6141,-3.6243,-3.6388,-3.6736,-3.678,-3.6838,-3.6939,-3.6968,-3.6838,-3.7012,-3.7331,-3.7389,-3.7375,-3.7215,-3.6997,-3.7186,-3.7302,-3.7244,-3.7245,-3.7288,-3.7533,-3.8014,-3.8415,-3.8579,-3.882,-3.9065,-3.9272,-3.9499,-3.9681,-3.9839,-3.9864,-3.0887,-3.2341,-3.3015,-3.3335,-3.3349,-3.3088,-3.2936,-3.2915,-3.3247,-3.3756,-3.438,-3.4891,-3.5425,-3.5835,-3.5905,-3.5756,-3.5639,-3.5498,-3.5383,-3.5395,-3.5592,-3.5927,-3.6406,-3.6944,-3.7561,-3.7874,-3.777,-3.7581,-3.7387,-3.7194,-3.7044,-3.6969,-3.68,-3.6616,-3.6476,-3.6352,-3.6242,-3.6258,-3.6242,-3.6211,-3.6085,-3.5911,-3.5782,-3.5651,-3.5569,-3.5621,-3.5703,-3.5831,-3.5894,-3.6116,-3.6414,-3.6769,-3.7074,-3.7344,-3.7567,-3.7772,-3.7992,-3.8151,-3.8266,-3.8351,-3.8379,-3.8408,-3.8456,-3.8586,-3.8732,-3.8868,-3.8837,-3.8675,-3.8262,-3.815,-3.8474,-3.8528,-3.8512,-3.8392,-3.8124,-3.78,-3.7252,-3.6799,-3.6645,-3.6482,-3.6519,-3.6548,-3.6577,-3.6548,-3.6591,-3.6664,-3.6852,-3.7186,-3.7447,-3.752,-3.7622,-3.7607,-3.7506,-3.7781,-3.8057,-3.797,-3.781,-3.7825,-3.768,-3.7984,-3.813,-3.7854,-3.7804,-3.8141,-3.8399,-3.8568,-3.8794,-3.899,-3.9241,-3.9445,-3.9553,-3.9681,-3.991,-4.0051,-4.0207,-3.0113,-3.1594,-3.2351,-3.2934,-3.3339,-3.3319,-3.3152,-3.292,-3.2916,-3.3228,-3.3808,-3.4371,-3.5111,-3.6199,-3.6041,-3.5866,-3.5684,-3.5498,-3.5377,-3.5345,-3.5212,-3.5481,-3.604,-3.6826,-3.7481,-3.7866,-3.8078,-3.7905,-3.761,-3.7403,-3.721,-3.703,-3.6831,-3.6662,-3.6538,-3.6476,-3.6476,-3.6476,-3.646,-3.6429,-3.6274,-3.6148,-3.6053,-3.5973,-3.591,-3.591,-3.6005,-3.6195,-3.632,-3.6538,-3.6769,-3.7088,-3.7344,-3.7551,-3.7772,-3.7963,-3.818,-3.8266,-3.8351,-3.8493,-3.857,-3.8634,-3.8812,-3.9266,-3.9509,-3.9897,-3.9922,-3.9992,-3.97,-3.946,-3.9579,-3.9298,-3.9171,-3.8829,-3.8527,-3.8005,-3.7486,-3.7376,-3.7338,-3.7354,-3.7418,-3.7506,-3.7622,-3.7607,-3.7593,-3.7636,-3.7622,-3.7897,-3.7868,-3.8057,-3.8202,-3.8115,-3.8028,-3.8101,-3.8173,-3.8144,-3.8072,-3.8159,-3.8202,-3.8202,-3.8202,-3.8202,-3.8277,-3.8366,-3.8538,-3.8672,-3.898,-3.9156,-3.9409,-3.9553,-3.961,-3.9753,-4.0016,-4.0226,-4.0381]},{"header":{"parameterUnit":"m.s-1","parameterCategory":1,"la1":31.0,"la2":29.5877,"lo1":-88.7671,"lo2":-86.6584,"dy":0.0162,"dx":0.0185,"nx":115,"ny":88,"refTime":"2024-03-03T18:00:00:Z","depth":0,"parameterNumber":3,"parameterNumberName":"V-component_of_WINDS"},"data":[0.0,0.0,0.0,0.0,0.0,0.0,0.0,0.0,0.0,0.0,0.0,0.0,0.0,0.0,0.0,0.0,0.0,0.0,0.0,0.0,0.0,0.0,0.0,0.0,0.0,0.0,0.0,0.0,0.0,0.0,0.0,0.0,0.0,0.0,0.0,0.0,0.0,0.0,0.0,0.0,0.0,0.0,0.0,0.0,0.0,0.0,0.0,0.0,0.0,0.0,0.0,0.0,0.0,0.0,0.0,0.0,0.0,0.0,0.0,0.0,0.0,0.0,0.0,0.0,0.0,0.0,0.0,0.0,0.0,0.0,0.0,0.0,0.0,0.0,0.0,0.0,0.0,0.0,0.0,0.0,0.0,0.0,0.0,0.0,0.0,0.0,0.0,0.0,0.0,0.0,0.0,0.0,0.0,0.0,0.0,0.0,0.0,0.0,0.0,0.0,0.0,0.0,0.0,0.0,0.0,0.0,0.0,0.0,0.0,0.0,0.0,0.0,0.0,0.0,0.0,0.0,0.0,0.0,0.0,0.0,0.0,0.0,0.0,0.0,0.0,0.0,0.0,0.0,0.0,0.0,0.0,0.0,0.0,0.0,0.0,0.0,0.0,0.0,0.0,0.0,0.0,0.0,0.0,0.0,0.0,0.0,0.0,0.0,0.0,0.0,0.0,0.0,0.0,0.0,0.0,0.0,0.0,0.0,0.0,0.0,0.0,0.0,0.0,0.0,0.0,0.0,0.0,0.0,0.0,0.0,0.0,0.0,0.0,0.0,0.0,0.0,0.0,0.0,0.0,0.0,0.0,0.0,0.0,0.0,0.0,0.0,0.0,0.0,0.0,0.0,0.0,0.0,0.0,0.0,0.0,0.0,0.0,0.0,0.0,0.0,0.0,0.0,0.0,0.0,0.0,0.0,0.0,0.0,0.0,0.0,0.0,0.0,0.0,0.0,0.0,0.0,0.0,0.0,0.0,0.0,0.0,0.0,0.0,0.0,0.0,0.0,0.0,0.0,0.0,0.0,0.0,0.0,0.0,0.0,0.0,0.0,0.0,0.0,0.0,0.0,0.0,0.0,0.0,0.0,0.0,0.0,0.0,0.0,0.0,0.0,0.0,0.0,0.0,0.0,0.0,0.0,0.0,0.0,0.0,0.0,0.0,0.0,0.0,0.0,0.0,0.0,0.0,0.0,0.0,0.0,0.0,0.0,0.0,0.0,0.0,0.0,0.0,0.0,0.0,0.0,0.0,0.0,0.0,0.0,0.0,0.0,0.0,0.0,0.0,0.0,0.0,0.0,0.0,0.0,0.0,0.0,0.0,0.0,0.0,0.0,0.0,0.0,0.0,0.0,0.0,0.0,0.0,0.0,0.0,0.0,0.0,0.0,0.0,0.0,0.0,0.0,0.0,0.0,0.0,0.0,0.0,0.0,0.0,0.0,0.0,0.0,0.0,0.0,0.0,0.0,0.0,0.0,0.0,0.0,0.0,0.0,0.0,0.0,0.0,0.0,0.0,0.0,0.0,0.0,0.0,0.0,0.0,0.0,0.0,0.0,0.0,0.0,0.0,0.0,0.0,0.0,0.0,0.0,0.0,0.0,0.0,0.0,0.0,0.0,0.0,0.0,0.0,0.0,0.0,0.0,0.0,0.0,0.0,0.0,0.0,0.0,0.0,0.0,0.0,0.0,0.0,0.0,0.0,0.0,0.0,0.0,0.0,0.0,0.0,0.0,0.0,0.0,0.0,0.0,0.0,0.0,0.0,0.0,0.0,0.0,0.0,0.0,0.0,0.0,0.0,0.0,0.0,0.0,0.0,0.0,0.0,0.0,0.0,0.0,0.0,0.0,0.0,0.0,0.0,0.0,0.0,0.0,0.0,0.0,0.0,0.0,0.0,0.0,0.0,0.0,0.0,0.0,0.0,0.0,0.0,0.0,0.0,0.0,0.0,0.0,0.0,0.0,0.0,0.0,0.0,0.0,0.0,0.0,0.0,0.0,0.0,0.0,0.0,0.0,0.0,0.0,0.0,0.0,0.0,0.0,0.0,0.0,0.0,0.0,0.0,0.0,0.0,0.0,0.0,0.0,0.0,0.0,0.0,0.0,0.0,0.0,0.0,0.0,0.0,0.0,0.0,0.0,0.0,0.0,0.0,0.0,0.0,0.0,0.0,0.0,0.0,0.0,0.0,0.0,0.0,0.0,0.0,0.0,0.0,0.0,0.0,0.0,0.0,0.0,0.0,0.0,0.0,0.0,0.0,0.0,0.0,0.0,0.0,0.0,0.0,0.0,0.0,0.0,0.0,0.0,0.0,0.0,0.0,0.0,0.0,0.0,0.0,0.0,0.0,0.0,0.0,0.0,0.0,0.0,0.0,0.0,0.0,0.0,0.0,0.0,0.0,0.0,0.0,0.0,0.0,0.0,0.0,0.0,0.0,0.0,0.0,0.0,0.0,0.0,0.0,0.0,0.0,0.0,0.0,0.0,0.0,0.0,0.0,0.0,0.0,0.0,0.0,0.0,0.0,0.0,0.0,0.0,0.0,0.0,0.0,0.0,0.0,0.0,0.0,0.0,0.0,0.0,0.0,0.0,0.0,0.0,0.0,0.0,0.0,0.0,0.0,0.0,0.0,0.0,0.0,0.0,0.0,0.0,0.0,0.0,0.0,0.0,0.0,0.0,0.0,0.0,0.0,0.0,0.0,0.0,0.0,0.0,0.0,0.0,0.0,0.0,0.0,0.0,0.0,0.0,0.0,0.0,0.0,0.0,0.0,0.0,0.0,0.0,0.0,0.0,0.0,0.0,0.0,0.0,0.0,0.0,0.0,0.0,0.0,0.0,0.0,0.0,0.0,0.0,0.0,0.0,0.0,0.0,0.0,0.0,0.0,0.0,0.0,0.0,0.0,0.0,0.0,0.0,0.0,0.0,0.0,0.0,0.0,0.0,0.0,0.0,0.0,0.0,0.0,0.0,0.0,0.0,0.0,0.0,0.0,0.0,0.0,0.0,0.0,0.0,0.0,0.0,0.0,0.0,0.0,0.0,0.0,0.0,0.0,0.0,0.0,0.0,0.0,0.0,0.0,0.0,0.0,0.0,0.0,0.0,0.0,0.0,0.0,0.0,0.0,0.0,0.0,0.0,0.0,0.0,0.0,0.0,0.0,0.0,0.0,0.0,0.0,0.0,0.0,0.0,0.0,0.0,0.0,0.0,0.0,0.0,0.0,0.0,0.0,0.0,0.0,0.0,0.0,0.0,0.0,0.0,0.0,0.0,0.0,0.0,0.0,0.0,0.0,0.0,0.0,0.0,0.0,0.0,0.0,0.0,0.0,0.0,0.0,0.0,0.0,0.0,0.0,0.0,0.0,0.0,0.0,0.0,0.0,0.0,0.0,0.0,0.0,0.0,0.0,0.0,0.0,0.0,0.0,0.0,0.0,0.0,0.0,0.0,0.0,0.0,0.0,0.0,0.0,0.0,0.0,0.0,0.0,0.0,0.0,0.0,0.0,0.0,0.0,0.0,0.0,0.0,0.0,0.0,0.0,0.0,0.0,0.0,0.0,0.0,0.0,0.0,0.0,0.0,0.0,0.0,0.0,0.0,0.0,0.0,0.0,0.0,0.0,0.0,0.0,0.0,0.0,0.0,0.0,0.0,0.0,0.0,0.0,0.0,0.0,0.0,0.0,0.0,0.0,0.0,0.0,0.0,0.0,0.0,0.0,0.0,0.0,0.0,0.0,0.0,0.0,0.0,0.0,0.0,0.0,0.0,0.0,0.0,0.0,0.0,0.0,0.0,0.0,0.0,0.0,0.0,0.0,0.0,0.0,0.0,0.0,0.0,0.0,0.0,0.0,0.0,0.0,0.0,0.0,0.0,0.0,0.0,0.0,0.0,0.0,0.0,0.0,0.0,0.0,0.0,0.0,0.0,0.0,0.0,0.0,0.0,0.0,0.0,0.0,0.0,0.0,0.0,0.0,0.0,0.0,0.0,0.0,0.0,0.0,0.0,0.0,0.0,0.0,0.0,0.0,0.0,0.0,0.0,0.0,0.0,0.0,0.0,0.0,0.0,0.0,0.0,0.0,0.0,0.0,0.0,0.0,0.0,0.0,0.0,0.0,0.0,0.0,0.0,0.0,0.0,0.0,0.0,0.0,0.0,0.0,0.0,0.0,0.0,0.0,0.0,0.0,0.0,0.0,0.0,0.0,0.0,0.0,0.0,0.0,0.0,0.0,0.0,0.0,0.0,0.0,0.0,0.0,0.0,0.0,0.0,0.0,0.0,-0.851,0.0,0.0,0.0,0.0,0.0,0.0,0.0,0.0,0.0,0.0,0.0,0.0,0.0,0.0,0.0,0.0,0.0,0.0,0.0,0.0,0.0,0.0,0.0,0.0,0.0,0.0,0.0,0.0,0.0,0.0,0.0,0.0,0.0,0.0,0.0,0.0,0.0,0.0,0.0,0.0,0.0,0.0,0.0,0.0,0.0,0.0,0.0,0.0,0.0,0.0,0.0,0.0,0.0,0.0,0.0,0.0,0.0,0.0,0.0,0.0,0.0,0.0,0.0,0.0,0.0,0.0,0.0,0.0,0.0,0.0,0.0,0.0,0.0,0.0,0.0,0.0,0.0,0.0,0.0,0.0,0.0,0.0,0.0,0.0,0.0,0.0,0.0,0.0,0.0,0.0,0.0,0.0,0.0,0.0,0.0,0.0,0.0,0.0,0.0,0.0,0.0,0.0,0.0,0.0,0.0,0.0,0.0,0.0,0.0,0.0,-0.8809,-0.8603,-0.8586,-0.8544,-0.8544,0.0,0.0,0.0,0.0,0.0,0.0,0.0,0.0,0.0,0.0,0.0,0.0,0.0,0.0,0.0,0.0,0.0,0.0,0.0,0.0,0.0,0.0,0.0,0.0,0.0,0.0,0.0,0.0,0.0,0.0,0.0,0.0,0.0,0.0,0.0,0.0,0.0,0.0,0.0,0.0,0.0,0.0,0.0,0.0,0.0,0.0,0.0,0.0,0.0,0.0,0.0,0.0,0.0,0.0,0.0,0.0,0.0,0.0,0.0,0.0,0.0,0.0,0.0,0.0,0.0,0.0,0.0,0.0,0.0,0.0,0.0,0.0,0.0,0.0,0.0,0.0,0.0,0.0,0.0,0.0,0.0,0.0,0.0,0.0,0.0,0.0,0.0,0.0,0.0,0.0,0.0,0.0,0.0,0.0,0.0,0.0,0.0,0.0,0.0,0.0,0.0,0.0,0.0,0.0,0.0,0.0,0.0,0.0,0.0,0.0,0.0,0.0,-0.8617,-0.8603,-0.8603,0.0,0.0,0.0,0.0,0.0,0.0,0.0,0.0,0.0,0.0,0.0,0.0,0.0,0.0,0.0,0.0,0.0,0.0,0.0,0.0,0.0,0.0,0.0,0.0,0.0,0.0,0.0,0.0,0.0,0.0,0.0,0.0,0.0,0.0,0.0,0.0,0.0,0.0,0.0,0.0,0.0,0.0,0.0,0.0,0.0,0.0,0.0,0.0,0.0,0.0,0.0,0.0,0.0,0.0,0.0,0.0,0.0,0.0,0.0,0.0,0.0,0.0,0.0,0.0,0.0,0.0,0.0,0.0,0.0,0.0,0.0,0.0,0.0,0.0,0.0,0.0,0.0,0.0,0.0,0.0,0.0,0.0,0.0,0.0,0.0,0.0,0.0,0.0,0.0,0.0,0.0,0.0,0.0,0.0,0.0,0.0,0.0,0.0,0.0,0.0,0.0,0.0,0.0,0.0,0.0,0.0,0.0,0.0,0.0,0.0,-0.8903,-0.869,-0.869,0.0,-0.8603,0.0,0.0,0.0,0.0,0.0,0.0,0.0,0.0,0.0,0.0,0.0,0.0,0.0,0.0,0.0,0.0,0.0,0.0,0.0,0.0,0.0,0.0,0.0,0.0,0.0,0.0,0.0,0.0,0.0,0.0,0.0,0.0,0.0,0.0,0.0,0.0,0.0,0.0,0.0,0.0,0.0,0.0,0.0,0.0,0.0,0.0,0.0,0.0,0.0,0.0,0.0,0.0,0.0,0.0,0.0,0.0,0.0,0.0,0.0,0.0,0.0,0.0,0.0,0.0,0.0,0.0,0.0,0.0,0.0,0.0,0.0,0.0,0.0,0.0,0.0,0.0,0.0,0.0,0.0,0.0,0.0,0.0,0.0,0.0,0.0,0.0,0.0,0.0,0.0,0.0,0.0,0.0,0.0,0.0,0.0,0.0,0.0,0.0,0.0,0.0,0.0,0.0,0.0,0.0,0.0,0.0,0.0,0.0,0.0,0.0,-0.8903,-0.8703,-0.8673,-0.8642,0.0,0.0,0.0,0.0,0.0,0.0,0.0,0.0,0.0,0.0,0.0,0.0,0.0,0.0,0.0,0.0,0.0,0.0,0.0,0.0,0.0,0.0,0.0,0.0,0.0,0.0,0.0,0.0,0.0,0.0,0.0,0.0,0.0,0.0,0.0,0.0,0.0,0.0,0.0,0.0,0.0,0.0,0.0,0.0,0.0,0.0,0.0,0.0,0.0,0.0,0.0,0.0,0.0,0.0,0.0,0.0,0.0,0.0,0.0,0.0,0.0,0.0,0.0,0.0,0.0,0.0,0.0,0.0,0.0,0.0,0.0,0.0,0.0,0.0,0.0,0.0,0.0,0.0,0.0,0.0,0.0,0.0,0.0,0.0,0.0,0.0,0.0,0.0,0.0,0.0,0.0,0.0,0.0,0.0,0.0,0.0,0.0,0.0,0.0,0.0,0.0,0.0,0.0,0.0,0.0,0.0,0.0,0.0,0.0,0.0,-0.9079,-0.8958,-0.877,-0.8673,-0.8628,-0.8603,0.0,0.0,0.0,0.0,0.0,0.0,0.0,0.0,0.0,0.0,0.0,0.0,0.0,0.0,0.0,0.0,0.0,0.0,0.0,0.0,0.0,0.0,0.0,0.0,0.0,0.0,0.0,0.0,0.0,0.0,0.0,0.0,0.0,0.0,0.0,0.0,0.0,0.0,0.0,0.0,0.0,0.0,0.0,0.0,0.0,0.0,0.0,0.0,0.0,0.0,0.0,0.0,0.0,0.0,0.0,0.0,0.0,0.0,0.0,0.0,0.0,0.0,0.0,0.0,0.0,0.0,0.0,0.0,0.0,0.0,0.0,0.0,0.0,0.0,0.0,0.0,0.0,0.0,0.0,0.0,0.0,0.0,0.0,0.0,0.0,0.0,0.0,0.0,0.0,0.0,0.0,0.0,0.0,0.0,0.0,0.0,0.0,0.0,0.0,0.0,0.0,0.0,0.0,0.0,0.0,0.0,0.0,0.0,-0.9217,-0.9178,-0.9094,-0.8905,-0.8759,-0.8673,0.0,0.0,0.0,0.0,0.0,0.0,0.0,0.0,0.0,0.0,0.0,0.0,0.0,0.0,0.0,0.0,0.0,0.0,0.0,0.0,0.0,0.0,0.0,0.0,0.0,0.0,0.0,0.0,0.0,0.0,0.0,0.0,0.0,0.0,0.0,0.0,0.0,0.0,0.0,0.0,0.0,0.0,0.0,0.0,0.0,0.0,0.0,0.0,0.0,0.0,0.0,0.0,0.0,0.0,0.0,0.0,0.0,0.0,0.0,0.0,0.0,0.0,0.0,0.0,0.0,0.0,0.0,0.0,0.0,0.0,0.0,0.0,0.0,0.0,0.0,0.0,0.0,0.0,0.0,0.0,0.0,0.0,0.0,0.0,0.0,0.0,0.0,0.0,0.0,0.0,0.0,0.0,0.0,0.0,0.0,0.0,0.0,0.0,0.0,0.0,0.0,0.0,0.0,0.0,0.0,0.0,0.0,0.0,0.0,-0.9328,-0.9217,-0.9081,-0.8969,-0.8784,-0.8701,0.0,0.0,0.0,0.0,0.0,0.0,0.0,0.0,0.0,0.0,0.0,0.0,0.0,0.0,0.0,0.0,0.0,0.0,0.0,0.0,0.0,0.0,0.0,0.0,0.0,0.0,0.0,0.0,0.0,0.0,0.0,0.0,0.0,0.0,0.0,0.0,0.0,0.0,0.0,0.0,0.0,0.0,0.0,0.0,0.0,0.0,0.0,0.0,0.0,0.0,0.0,0.0,0.0,0.0,0.0,0.0,0.0,0.0,0.0,0.0,0.0,0.0,0.0,0.0,0.0,0.0,0.0,0.0,0.0,0.0,0.0,0.0,0.0,0.0,0.0,0.0,0.0,0.0,0.0,0.0,0.0,0.0,0.0,0.0,0.0,0.0,0.0,0.0,0.0,0.0,0.0,0.0,0.0,0.0,0.0,0.0,0.0,0.0,0.0,0.0,0.0,0.0,0.0,0.0,0.0,0.0,0.0,0.0,0.0,-0.9408,0.0,-0.9094,-0.9035,-0.8889,-0.8784,0.0,0.0,0.0,0.0,0.0,0.0,0.0,0.0,0.0,0.0,0.0,0.0,0.0,0.0,0.0,0.0,0.0,0.0,0.0,0.0,0.0,0.0,0.0,0.0,0.0,0.0,0.0,0.0,0.0,0.0,0.0,0.0,0.0,0.0,0.0,0.0,0.0,0.0,0.0,0.0,0.0,0.0,0.0,0.0,0.0,0.0,0.0,0.0,0.0,0.0,0.0,0.0,0.0,0.0,0.0,0.0,0.0,0.0,0.0,0.0,0.0,0.0,0.0,0.0,0.0,0.0,0.0,0.0,0.0,0.0,0.0,0.0,0.0,0.0,0.0,0.0,0.0,0.0,0.0,0.0,0.0,0.0,0.0,0.0,0.0,0.0,0.0,0.0,0.0,0.0,0.0,0.0,0.0,0.0,0.0,0.0,0.0,0.0,0.0,0.0,0.0,0.0,0.0,0.0,0.0,0.0,0.0,0.0,-0.9538,-0.9408,-0.9272,-0.9176,-0.9106,-0.9038,-0.8969,0.0,0.0,0.0,0.0,0.0,0.0,0.0,0.0,0.0,0.0,0.0,0.0,0.0,0.0,0.0,0.0,0.0,0.0,0.0,0.0,0.0,0.0,0.0,0.0,0.0,0.0,0.0,0.0,0.0,0.0,0.0,0.0,0.0,0.0,0.0,0.0,0.0,0.0,0.0,0.0,0.0,0.0,0.0,0.0,0.0,0.0,0.0,0.0,0.0,0.0,0.0,0.0,0.0,0.0,0.0,0.0,0.0,0.0,0.0,0.0,0.0,0.0,0.0,0.0,0.0,0.0,0.0,0.0,0.0,0.0,0.0,0.0,0.0,0.0,0.0,0.0,0.0,0.0,0.0,0.0,0.0,0.0,0.0,0.0,0.0,0.0,0.0,0.0,0.0,0.0,0.0,0.0,0.0,0.0,0.0,0.0,0.0,0.0,0.0,0.0,0.0,0.0,0.0,0.0,0.0,0.0,0.0,0.0,0.0,-0.9551,-0.9458,-0.9366,-0.9326,-0.9191,-0.9108,0.0,0.0,0.0,0.0,0.0,0.0,0.0,0.0,0.0,0.0,0.0,0.0,0.0,0.0,0.0,0.0,0.0,0.0,0.0,0.0,0.0,0.0,0.0,0.0,0.0,0.0,0.0,0.0,0.0,0.0,0.0,0.0,0.0,0.0,0.0,0.0,0.0,0.0,0.0,0.0,0.0,0.0,0.0,0.0,0.0,0.0,0.0,0.0,0.0,0.0,0.0,0.0,0.0,0.0,0.0,0.0,0.0,0.0,0.0,0.0,0.0,0.0,0.0,0.0,0.0,0.0,0.0,0.0,0.0,0.0,0.0,0.0,0.0,0.0,0.0,0.0,0.0,0.0,0.0,0.0,0.0,0.0,0.0,0.0,0.0,0.0,0.0,0.0,0.0,0.0,0.0,0.0,0.0,0.0,0.0,0.0,0.0,0.0,0.0,0.0,0.0,0.0,0.0,0.0,0.0,0.0,0.0,0.0,0.0,-1.0423,-1.0113,-0.9812,-0.9554,-0.942,-0.9324,-0.9257,0.0,0.0,0.0,0.0,0.0,0.0,0.0,0.0,0.0,0.0,0.0,0.0,0.0,0.0,0.0,0.0,0.0,0.0,0.0,0.0,0.0,0.0,0.0,0.0,0.0,0.0,0.0,0.0,0.0,0.0,0.0,0.0,0.0,0.0,0.0,0.0,0.0,0.0,0.0,0.0,0.0,0.0,0.0,0.0,0.0,0.0,0.0,0.0,0.0,0.0,0.0,0.0,0.0,0.0,0.0,0.0,0.0,0.0,0.0,0.0,0.0,0.0,0.0,0.0,0.0,0.0,0.0,0.0,0.0,0.0,0.0,0.0,0.0,0.0,0.0,0.0,0.0,0.0,0.0,0.0,0.0,0.0,0.0,0.0,0.0,0.0,0.0,0.0,0.0,0.0,0.0,0.0,0.0,0.0,0.0,0.0,0.0,0.0,0.0,0.0,0.0,0.0,0.0,0.0,0.0,0.0,0.0,0.0,-1.1799,-1.1168,-1.0528,-0.989,-0.9696,-0.9591,0.0,0.0,0.0,0.0,0.0,0.0,0.0,0.0,0.0,0.0,0.0,0.0,0.0,0.0,0.0,0.0,0.0,0.0,0.0,0.0,0.0,0.0,0.0,0.0,0.0,0.0,0.0,0.0,0.0,0.0,0.0,0.0,0.0,0.0,0.0,0.0,0.0,0.0,0.0,0.0,0.0,0.0,0.0,0.0,0.0,0.0,0.0,0.0,0.0,0.0,0.0,0.0,0.0,0.0,0.0,0.0,0.0,0.0,0.0,0.0,0.0,0.0,0.0,0.0,0.0,0.0,0.0,0.0,0.0,0.0,0.0,0.0,0.0,0.0,0.0,0.0,0.0,0.0,0.0,0.0,0.0,0.0,0.0,0.0,0.0,0.0,0.0,0.0,0.0,0.0,0.0,0.0,0.0,0.0,0.0,0.0,0.0,0.0,0.0,0.0,0.0,0.0,0.0,0.0,0.0,0.0,0.0,0.0,0.0,-1.186,-1.2161,-1.178,-1.064,-1.0105,-0.9762,0.0,0.0,0.0,0.0,0.0,0.0,0.0,0.0,0.0,0.0,0.0,0.0,0.0,0.0,0.0,0.0,0.0,0.0,0.0,0.0,0.0,0.0,0.0,0.0,0.0,0.0,0.0,0.0,0.0,0.0,0.0,0.0,0.0,0.0,0.0,0.0,0.0,0.0,0.0,0.0,0.0,0.0,0.0,0.0,0.0,0.0,0.0,0.0,0.0,0.0,0.0,0.0,0.0,0.0,0.0,0.0,0.0,0.0,0.0,0.0,0.0,0.0,0.0,0.0,0.0,0.0,0.0,0.0,0.0,0.0,0.0,0.0,0.0,0.0,0.0,0.0,0.0,0.0,0.0,0.0,0.0,0.0,0.0,0.0,0.0,0.0,0.0,0.0,0.0,0.0,0.0,0.0,0.0,0.0,0.0,0.0,0.0,0.0,0.0,0.0,0.0,0.0,0.0,0.0,0.0,0.0,0.0,0.0,-1.218,-1.2737,-1.2834,-1.2394,-1.1396,-1.0736,-1.0223,0.0,0.0,0.0,0.0,0.0,0.0,0.0,0.0,0.0,0.0,0.0,0.0,0.0,0.0,0.0,0.0,0.0,0.0,0.0,0.0,0.0,0.0,0.0,0.0,0.0,0.0,0.0,0.0,0.0,0.0,0.0,0.0,0.0,0.0,0.0,0.0,0.0,0.0,0.0,0.0,0.0,0.0,0.0,0.0,0.0,0.0,0.0,0.0,0.0,0.0,0.0,0.0,0.0,0.0,0.0,0.0,0.0,0.0,0.0,0.0,0.0,0.0,0.0,0.0,0.0,0.0,0.0,0.0,0.0,0.0,0.0,0.0,0.0,0.0,0.0,0.0,0.0,0.0,0.0,0.0,0.0,0.0,0.0,0.0,0.0,0.0,0.0,0.0,0.0,0.0,0.0,0.0,0.0,0.0,0.0,0.0,0.0,0.0,0.0,0.0,0.0,0.0,0.0,0.0,0.0,0.0,0.0,0.0,-1.2451,-1.3664,-1.3129,-1.2533,-1.1915,-1.1393,-1.0753,0.0,0.0,0.0,0.0,0.0,0.0,0.0,0.0,0.0,0.0,0.0,0.0,0.0,0.0,0.0,0.0,0.0,0.0,0.0,0.0,0.0,0.0,0.0,0.0,0.0,0.0,0.0,0.0,0.0,0.0,0.0,0.0,0.0,0.0,0.0,0.0,0.0,0.0,0.0,0.0,0.0,0.0,0.0,0.0,0.0,0.0,0.0,0.0,0.0,0.0,0.0,0.0,0.0,0.0,0.0,0.0,0.0,0.0,0.0,0.0,0.0,0.0,0.0,0.0,0.0,0.0,0.0,0.0,0.0,0.0,0.0,0.0,0.0,0.0,0.0,0.0,0.0,0.0,0.0,0.0,0.0,0.0,0.0,0.0,0.0,0.0,0.0,0.0,0.0,0.0,0.0,0.0,0.0,0.0,0.0,0.0,0.0,0.0,0.0,0.0,0.0,0.0,0.0,0.0,0.0,0.0,0.0,0.0,-1.1739,-1.2361,-1.2301,-1.1975,-1.1397,-1.1239,-1.082,0.0,0.0,0.0,0.0,0.0,0.0,0.0,0.0,0.0,0.0,0.0,0.0,0.0,0.0,0.0,0.0,0.0,0.0,0.0,0.0,0.0,0.0,0.0,0.0,0.0,0.0,0.0,0.0,0.0,0.0,0.0,0.0,0.0,0.0,0.0,0.0,0.0,0.0,0.0,0.0,0.0,0.0,0.0,0.0,0.0,0.0,0.0,0.0,-1.1708,0.0,0.0,0.0,0.0,0.0,0.0,0.0,0.0,0.0,0.0,0.0,0.0,0.0,0.0,0.0,0.0,0.0,0.0,0.0,0.0,0.0,0.0,0.0,0.0,0.0,0.0,0.0,0.0,0.0,0.0,0.0,0.0,0.0,0.0,0.0,0.0,0.0,0.0,0.0,0.0,0.0,0.0,0.0,0.0,0.0,0.0,0.0,0.0,0.0,0.0,0.0,0.0,0.0,0.0,0.0,0.0,0.0,0.0,0.0,-1.1586,-1.2154,-1.2167,-1.1848,-1.1281,-1.1241,-1.0913,0.0,0.0,0.0,0.0,0.0,0.0,0.0,0.0,0.0,0.0,0.0,0.0,0.0,0.0,0.0,0.0,0.0,0.0,0.0,0.0,0.0,0.0,0.0,0.0,0.0,0.0,0.0,0.0,0.0,0.0,0.0,0.0,0.0,0.0,0.0,0.0,0.0,0.0,0.0,0.0,0.0,0.0,0.0,0.0,0.0,0.0,0.0,0.0,0.0,0.0,0.0,0.0,0.0,0.0,0.0,0.0,0.0,0.0,0.0,0.0,0.0,0.0,0.0,0.0,0.0,0.0,0.0,0.0,0.0,0.0,0.0,0.0,0.0,0.0,0.0,0.0,0.0,0.0,0.0,0.0,0.0,0.0,0.0,0.0,0.0,0.0,0.0,0.0,0.0,0.0,0.0,0.0,0.0,0.0,0.0,0.0,0.0,0.0,0.0,0.0,0.0,0.0,0.0,0.0,0.0,0.0,0.0,-1.1176,-1.1495,-1.2086,-1.2002,-1.1707,-1.119,-1.1176,-1.0873,-1.0237,0.0,0.0,0.0,0.0,0.0,0.0,0.0,0.0,0.0,0.0,0.0,0.0,0.0,0.0,0.0,0.0,0.0,0.0,0.0,0.0,0.0,0.0,0.0,0.0,0.0,0.0,0.0,0.0,0.0,0.0,0.0,0.0,0.0,0.0,0.0,0.0,0.0,0.0,-1.1445,-1.2259,0.0,0.0,0.0,0.0,0.0,0.0,0.0,0.0,-1.3408,0.0,0.0,0.0,0.0,0.0,0.0,0.0,0.0,0.0,0.0,0.0,0.0,0.0,0.0,0.0,0.0,0.0,0.0,0.0,0.0,0.0,0.0,0.0,0.0,0.0,0.0,0.0,0.0,0.0,0.0,0.0,0.0,0.0,0.0,0.0,0.0,0.0,0.0,0.0,0.0,0.0,0.0,0.0,0.0,0.0,0.0,0.0,0.0,0.0,0.0,0.0,0.0,0.0,0.0,0.0,0.0,-1.0544,-1.067,-1.0747,-1.0803,-1.0841,-1.08,-1.0645,-1.0582,-1.0467,-1.03,0.0,0.0,0.0,0.0,0.0,0.0,0.0,0.0,0.0,0.0,0.0,0.0,0.0,0.0,0.0,0.0,0.0,0.0,0.0,0.0,0.0,0.0,0.0,0.0,0.0,0.0,0.0,0.0,0.0,0.0,0.0,0.0,0.0,0.0,0.0,0.0,0.0,0.0,0.0,-1.3435,-1.4047,0.0,0.0,0.0,0.0,0.0,0.0,0.0,0.0,-1.5038,0.0,0.0,0.0,0.0,0.0,0.0,0.0,0.0,0.0,0.0,0.0,0.0,0.0,0.0,0.0,0.0,0.0,0.0,0.0,0.0,0.0,0.0,0.0,0.0,0.0,0.0,0.0,0.0,0.0,0.0,0.0,0.0,0.0,0.0,0.0,0.0,0.0,0.0,0.0,0.0,0.0,0.0,0.0,0.0,0.0,0.0,0.0,0.0,0.0,0.0,0.0,0.0,0.0,0.0,0.0,-1.0449,-1.0511,-1.0559,-1.0609,-1.062,-1.0609,-1.0497,-1.0474,-1.0349,0.0,0.0,0.0,0.0,0.0,0.0,0.0,0.0,0.0,0.0,0.0,0.0,0.0,0.0,0.0,0.0,0.0,0.0,0.0,0.0,0.0,0.0,0.0,0.0,0.0,0.0,0.0,0.0,0.0,0.0,0.0,0.0,0.0,0.0,0.0,0.0,0.0,0.0,0.0,0.0,-1.4252,-1.4853,-1.5376,0.0,0.0,0.0,0.0,0.0,0.0,-1.6213,-1.5923,0.0,0.0,0.0,0.0,0.0,0.0,0.0,0.0,0.0,0.0,0.0,0.0,0.0,0.0,0.0,0.0,0.0,0.0,0.0,0.0,0.0,0.0,0.0,0.0,0.0,0.0,0.0,0.0,0.0,0.0,0.0,0.0,0.0,0.0,0.0,0.0,0.0,0.0,0.0,0.0,0.0,0.0,0.0,0.0,0.0,0.0,0.0,0.0,0.0,0.0,0.0,0.0,0.0,0.0,0.0,-1.0485,-1.0535,-1.0597,-1.0706,-1.0681,-1.0621,-1.0497,-1.0474,-1.0299,0.0,0.0,0.0,0.0,0.0,0.0,0.0,0.0,0.0,0.0,0.0,0.0,0.0,0.0,0.0,0.0,0.0,0.0,0.0,0.0,0.0,0.0,0.0,0.0,0.0,0.0,0.0,0.0,0.0,0.0,0.0,0.0,0.0,0.0,0.0,0.0,0.0,0.0,0.0,0.0,0.0,-1.5747,-1.6502,-1.688,0.0,0.0,0.0,0.0,-1.7403,-1.7157,0.0,0.0,0.0,0.0,0.0,0.0,0.0,0.0,0.0,0.0,0.0,0.0,0.0,0.0,0.0,0.0,0.0,0.0,0.0,0.0,0.0,0.0,0.0,0.0,0.0,0.0,0.0,0.0,0.0,0.0,0.0,0.0,0.0,0.0,0.0,0.0,0.0,0.0,0.0,0.0,0.0,0.0,0.0,0.0,0.0,0.0,0.0,0.0,0.0,0.0,0.0,0.0,0.0,0.0,0.0,0.0,-1.0497,-1.0608,-1.0681,-1.0681,-1.0645,-1.0584,-1.0498,-1.0374,-1.0199,0.0,0.0,0.0,0.0,0.0,0.0,0.0,0.0,0.0,0.0,0.0,0.0,0.0,0.0,0.0,0.0,0.0,0.0,0.0,0.0,0.0,0.0,0.0,0.0,0.0,0.0,0.0,0.0,0.0,0.0,0.0,0.0,0.0,0.0,0.0,0.0,0.0,0.0,0.0,0.0,0.0,-1.72,-1.7636,-1.8342,-1.8883,0.0,0.0,-1.895,-1.9101,-1.879,0.0,0.0,0.0,0.0,0.0,0.0,0.0,0.0,0.0,0.0,0.0,0.0,0.0,0.0,0.0,0.0,0.0,0.0,0.0,0.0,0.0,0.0,0.0,0.0,0.0,0.0,0.0,0.0,0.0,0.0,0.0,0.0,0.0,0.0,0.0,0.0,0.0,0.0,0.0,0.0,0.0,0.0,0.0,0.0,0.0,0.0,0.0,0.0,0.0,0.0,0.0,0.0,0.0,0.0,0.0,-1.0474,-1.0497,-1.0583,-1.0656,-1.0681,-1.0633,-1.0534,-1.0387,-0.9999,-0.9588,0.0,0.0,0.0,0.0,0.0,0.0,0.0,0.0,0.0,0.0,0.0,0.0,0.0,0.0,0.0,0.0,0.0,0.0,0.0,0.0,0.0,0.0,0.0,0.0,0.0,0.0,0.0,0.0,0.0,0.0,0.0,0.0,0.0,0.0,0.0,0.0,0.0,0.0,0.0,0.0,0.0,0.0,-1.8582,-1.9438,0.0,0.0,0.0,-2.051,-2.0191,0.0,0.0,0.0,0.0,0.0,0.0,0.0,0.0,0.0,0.0,0.0,0.0,0.0,0.0,0.0,0.0,0.0,0.0,0.0,0.0,0.0,0.0,0.0,0.0,0.0,0.0,0.0,0.0,0.0,0.0,0.0,0.0,0.0,0.0,0.0,0.0,0.0,0.0,0.0,0.0,0.0,0.0,0.0,0.0,0.0,0.0,0.0,0.0,0.0,0.0,0.0,0.0,0.0,0.0,0.0,0.0,0.0,-1.0535,-1.0597,-1.0644,-1.0706,-1.0595,-1.0449,-1.0249,-0.9632,0.0,0.0,0.0,0.0,0.0,0.0,0.0,0.0,0.0,0.0,0.0,0.0,0.0,0.0,0.0,0.0,0.0,0.0,0.0,0.0,0.0,0.0,0.0,0.0,0.0,0.0,0.0,-0.6908,0.0,0.0,0.0,0.0,0.0,0.0,0.0,0.0,0.0,0.0,0.0,0.0,0.0,0.0,-1.8475,-1.9505,-2.0288,-2.0817,0.0,0.0,-2.1603,-2.1087,-2.0704,-2.0113,0.0,0.0,0.0,0.0,0.0,0.0,0.0,0.0,0.0,0.0,0.0,0.0,0.0,0.0,0.0,0.0,0.0,0.0,0.0,0.0,0.0,0.0,0.0,0.0,0.0,0.0,0.0,0.0,0.0,0.0,0.0,0.0,0.0,0.0,0.0,0.0,0.0,0.0,0.0,0.0,0.0,0.0,0.0,0.0,0.0,0.0,0.0,0.0,0.0,0.0,0.0,0.0,0.0,0.0,-1.0535,-1.0597,-1.067,-1.0706,-1.0681,-1.0523,-1.0324,-1.0097,-0.9414,-0.8742,0.0,0.0,0.0,0.0,0.0,0.0,0.0,0.0,0.0,0.0,0.0,0.0,0.0,0.0,0.0,0.0,0.0,0.0,0.0,0.0,0.0,0.0,0.0,0.0,0.0,0.0,0.0,0.0,0.0,0.0,0.0,0.0,0.0,0.0,0.0,0.0,0.0,0.0,0.0,0.0,0.0,-1.9328,-2.0456,-2.076,-2.1182,0.0,-2.2037,-2.1979,-2.1914,-2.1625,-2.1084,-2.0167,0.0,0.0,0.0,0.0,0.0,0.0,0.0,0.0,0.0,0.0,0.0,0.0,0.0,0.0,0.0,0.0,0.0,0.0,0.0,0.0,0.0,0.0,0.0,0.0,0.0,0.0,0.0,0.0,0.0,0.0,0.0,0.0,0.0,0.0,0.0,0.0,0.0,0.0,0.0,0.0,0.0,0.0,0.0,0.0,0.0,0.0,0.0,0.0,0.0,0.0,0.0,0.0,0.0,-1.0721,-1.1145,-1.0871,-1.0706,-1.0681,-1.0498,-1.0286,-1.0046,-0.8921,-0.8016,0.0,0.0,0.0,0.0,0.0,0.0,0.0,0.0,0.0,0.0,0.0,0.0,0.0,0.0,0.0,0.0,0.0,0.0,0.0,0.0,0.0,0.0,0.0,0.0,0.0,0.0,0.0,0.0,-0.4982,-0.4269,-0.4308,0.0,0.0,0.0,0.0,0.0,0.0,0.0,0.0,0.0,0.0,-2.0102,-2.0734,-2.1609,0.0,0.0,-2.3107,-2.3209,-2.2797,-2.2455,-2.1952,-2.1089,-2.0509,0.0,0.0,0.0,0.0,0.0,0.0,0.0,0.0,0.0,0.0,0.0,0.0,0.0,0.0,0.0,0.0,0.0,0.0,0.0,0.0,0.0,0.0,0.0,0.0,0.0,0.0,0.0,0.0,0.0,0.0,0.0,0.0,0.0,0.0,0.0,0.0,0.0,0.0,0.0,0.0,0.0,0.0,0.0,0.0,0.0,0.0,0.0,0.0,0.0,0.0,0.0,0.0,-1.1269,-1.1791,-1.1439,-1.1153,-1.0976,-1.0776,-1.0469,-0.9995,-0.8789,-0.7761,0.0,0.0,0.0,0.0,0.0,0.0,0.0,0.0,0.0,0.0,0.0,0.0,0.0,0.0,0.0,0.0,0.0,0.0,0.0,0.0,0.0,0.0,0.0,0.0,0.0,0.0,0.0,0.0,-0.574,-0.5157,-0.5513,0.0,0.0,0.0,0.0,0.0,0.0,0.0,0.0,0.0,0.0,-2.0765,-2.1492,-2.2423,-2.3158,-2.3493,-2.3902,-2.4019,-2.356,-2.3237,-2.2768,-2.1993,0.0,0.0,0.0,0.0,0.0,0.0,0.0,0.0,0.0,0.0,0.0,0.0,0.0,0.0,0.0,0.0,0.0,0.0,0.0,0.0,0.0,0.0,0.0,0.0,0.0,0.0,0.0,0.0,0.0,0.0,-1.2549,0.0,0.0,0.0,0.0,0.0,0.0,0.0,0.0,0.0,0.0,0.0,0.0,0.0,0.0,0.0,0.0,0.0,0.0,0.0,0.0,0.0,0.0,-1.2326,-1.2481,-1.244,-1.2143,-1.1587,-1.1389,-1.0886,-1.0034,-0.9145,-0.8156,-0.7004,0.0,0.0,0.0,0.0,0.0,0.0,0.0,0.0,0.0,0.0,0.0,0.0,0.0,0.0,0.0,0.0,0.0,0.0,0.0,0.0,0.0,0.0,0.0,0.0,0.0,0.0,-0.6945,-0.6318,-0.6206,0.0,0.0,0.0,0.0,0.0,0.0,0.0,0.0,0.0,0.0,-2.0188,-2.131,-2.2873,-2.3177,-2.3458,-2.4158,-2.4234,-2.4187,-2.4156,-2.3937,-2.3534,0.0,0.0,0.0,0.0,0.0,0.0,0.0,0.0,0.0,0.0,0.0,0.0,0.0,0.0,0.0,0.0,0.0,0.0,0.0,0.0,0.0,0.0,0.0,0.0,0.0,0.0,0.0,-1.4641,-1.4503,0.0,0.0,0.0,0.0,0.0,0.0,0.0,0.0,0.0,0.0,0.0,-1.352,-1.3474,0.0,0.0,0.0,0.0,0.0,0.0,0.0,0.0,0.0,0.0,0.0,0.0,-1.2626,-1.305,-1.2698,-1.24,-1.2197,-1.1616,-1.1096,-1.0674,-0.9379,-0.7796,-0.5869,0.0,0.0,0.0,0.0,0.0,0.0,0.0,0.0,0.0,0.0,0.0,0.0,0.0,0.0,0.0,0.0,0.0,0.0,0.0,0.0,0.0,0.0,0.0,0.0,0.0,-0.7701,0.0,0.0,0.0,0.0,0.0,0.0,0.0,0.0,0.0,0.0,0.0,-1.9196,-2.0124,-2.1383,-2.246,-2.3131,-2.3575,-2.3968,0.0,0.0,0.0,0.0,0.0,0.0,0.0,0.0,0.0,0.0,0.0,0.0,0.0,0.0,-2.0787,-1.8511,-1.7987,-1.7955,-1.8105,0.0,0.0,0.0,0.0,0.0,0.0,0.0,0.0,0.0,0.0,0.0,0.0,0.0,0.0,-1.5823,0.0,-1.5226,0.0,0.0,0.0,0.0,0.0,0.0,0.0,0.0,-1.5051,-1.4813,-1.4406,-1.4393,-1.4224,0.0,-1.4113,-1.3677,0.0,0.0,0.0,0.0,0.0,0.0,0.0,0.0,-1.3249,-1.3707,-1.3367,-1.3067,-1.2849,-1.2301,-1.1811,-1.1377,-0.9762,-0.8026,-0.6137,-0.5651,-0.5094,0.0,0.0,0.0,0.0,0.0,0.0,0.0,0.0,0.0,0.0,0.0,0.0,0.0,0.0,0.0,0.0,0.0,0.0,0.0,0.0,0.0,0.0,0.0,-0.8265,0.0,0.0,0.0,0.0,0.0,0.0,0.0,0.0,0.0,-1.8081,-1.9103,-2.0228,-2.1396,-2.2449,-2.3238,-2.3625,0.0,0.0,0.0,0.0,0.0,0.0,0.0,-2.5044,-2.5487,-2.5378,-2.5236,-2.5384,-2.4893,-2.4376,-2.4028,0.0,0.0,-2.0594,-2.0076,-2.0046,-2.0194,-2.0424,-2.0636,-2.0786,-2.1137,-2.1455,0.0,0.0,0.0,0.0,0.0,0.0,0.0,0.0,-1.6447,-1.6281,0.0,-1.6059,0.0,0.0,0.0,0.0,0.0,-1.5625,0.0,0.0,-1.555,-1.55,-1.5474,-1.5474,-1.5204,-1.4655,-1.4827,-1.4612,-1.404,-1.397,0.0,0.0,0.0,0.0,0.0,0.0,-1.4268,-1.4383,-1.4369,-1.4096,-1.355,-1.3423,-1.2975,-1.2067,-1.0316,-0.8851,-0.7757,-0.6572,-0.5753,-0.5439,-0.4875,0.0,0.0,0.0,0.0,0.0,0.0,0.0,0.0,0.0,0.0,0.0,0.0,0.0,0.0,0.0,0.0,0.0,0.0,0.0,0.0,-0.8838,0.0,0.0,0.0,0.0,0.0,0.0,0.0,0.0,0.0,0.0,-1.9376,-2.0156,-2.1347,-2.3042,0.0,0.0,0.0,0.0,-2.4625,-2.4656,-2.5134,-2.5499,-2.553,-2.5896,-2.6176,-2.6237,0.0,0.0,-2.5384,-2.5135,-2.495,-2.464,-2.4522,-2.4174,-2.3504,-2.3133,-2.2936,-2.287,-2.2671,-2.2604,-2.2468,-2.2465,-2.2505,-1.7701,0.0,0.0,0.0,0.0,-1.7058,-1.6934,-1.6522,-1.6886,-1.6949,-1.6758,-1.6249,0.0,0.0,0.0,0.0,0.0,0.0,-1.6231,-1.6179,-1.614,-1.5918,-1.55,-1.55,-1.5414,-1.5257,-1.544,-1.5225,-1.4679,-1.4772,-1.459,-1.4157,0.0,0.0,0.0,0.0,-1.4316,-1.4397,-1.4397,-1.4349,-1.4235,-1.3688,-1.2887,-1.1846,-1.1075,-1.0004,-0.8675,-0.8084,-0.7263,-0.6167,-0.5534,0.0,0.0,0.0,0.0,0.0,0.0,0.0,0.0,0.0,0.0,0.0,0.0,0.0,0.0,0.0,0.0,0.0,0.0,0.0,-0.823,-0.9255,-1.037,0.0,0.0,0.0,0.0,0.0,0.0,0.0,0.0,0.0,-2.2013,-2.2354,-2.2758,0.0,0.0,-2.4447,-2.471,-2.4762,-2.4919,-2.5373,-2.5471,0.0,-2.6125,-2.6293,-2.6504,-2.698,-2.7347,-2.7461,-2.7105,-2.6932,-2.6722,-2.6371,-2.6165,-2.5969,-2.5595,-2.4525,-2.3699,-2.3516,-2.3646,-2.373,-2.3553,-2.3792,-2.4071,-1.7934,-1.7625,-1.7474,-1.7407,-1.7417,-1.766,-1.7515,-1.7121,-1.7432,-1.7462,-1.7234,-1.685,-1.6794,-1.6944,-1.6533,0.0,0.0,0.0,-1.675,-1.6715,-1.6715,-1.6519,-1.6179,-1.6166,-1.6062,-1.5853,-1.6036,-1.5673,-1.4888,-1.5096,-1.4867,-1.4249,0.0,0.0,-1.4252,-1.4284,-1.4351,-1.4433,-1.4433,-1.4497,-1.4562,-1.4046,-1.3279,-1.2301,-1.1956,-1.121,-1.0006,-0.9643,-0.8913,-0.771,-0.6755,-0.5971,0.0,0.0,0.0,0.0,0.0,0.0,0.0,0.0,0.0,0.0,0.0,-1.31,-1.1759,0.0,0.0,0.0,-0.7767,-0.8259,-0.9221,-1.0712,0.0,0.0,0.0,0.0,0.0,0.0,0.0,-2.1174,-2.1908,-2.2705,-2.3663,-2.3896,-2.3986,-2.4013,-2.4471,-2.4916,-2.524,0.0,-2.5527,-2.622,-2.6358,-2.6516,-2.6927,-2.7095,-2.7334,-2.7719,-2.7959,-2.8024,-2.784,-2.7665,-2.7412,-2.713,-2.7015,-2.6896,-2.6738,-2.5776,-2.4954,-2.464,-2.4665,-2.4737,-2.4572,-2.483,-2.506,-1.7968,-1.8042,-1.8333,-1.8464,-1.8459,-1.8333,-1.8167,-1.8008,-1.7968,-1.7801,-1.7529,-1.7638,-1.7502,-1.7199,-1.7212,0.0,-1.7212,-1.7212,-1.7199,-1.7212,-1.7212,-1.7212,-1.7212,-1.7199,-1.6937,-1.6487,-1.6593,-1.6106,-1.5074,-1.5221,-1.4968,-1.4368,-1.433,-1.4316,-1.4316,-1.4316,-1.4353,-1.4499,-1.4501,-1.4562,-1.4699,-1.4502,-1.4033,-1.328,-1.3037,-1.2526,-1.1634,-1.1202,-1.0588,-0.9731,-0.8316,-0.7264,-0.6651,0.0,0.0,0.0,0.0,0.0,0.0,0.0,0.0,0.0,0.0,0.0,0.0,0.0,0.0,-0.8364,-0.9579,0.0,-1.0853,-1.2817,0.0,0.0,0.0,-1.763,-1.8699,-2.0229,-2.1633,-2.272,0.0,0.0,-2.4574,-2.4925,-2.5056,-2.4979,-2.4932,-2.5192,-2.5977,-2.6108,-2.6356,-2.7067,-2.7469,-2.7711,-2.7773,-2.8069,-2.8288,-2.8334,-2.8177,-2.798,-2.784,-2.7615,-2.7386,-2.7284,-2.7218,-2.7155,-2.7055,-2.68,-2.6606,-2.6,-2.5715,-2.5564,-2.5481,-2.5495,-2.5494,-1.7875,-1.8008,-1.8082,-1.8175,-1.8248,-1.8135,-1.8048,-1.7988,-1.7835,-1.7727,-1.7659,-1.7515,-1.737,-1.7212,-1.7212,-1.7212,-1.7212,-1.7212,-1.7212,-1.7212,-1.7212,-1.7212,-1.7212,-1.7212,-1.7133,-1.7036,-1.7194,-1.691,-1.6199,-1.5995,-1.5576,-1.4995,-1.4534,-1.4316,-1.4316,-1.4316,-1.4349,-1.4431,-1.4454,-1.4562,-1.4713,-1.5031,-1.5001,-1.4584,-1.4835,-1.4389,-1.3121,-1.2755,-1.1985,-1.0788,-0.94,-0.8319,-0.767,-0.7061,0.0,0.0,0.0,0.0,0.0,0.0,0.0,0.0,0.0,-1.3925,-1.3105,0.0,-1.0382,0.0,-1.028,-1.1235,-1.2359,-1.3893,0.0,0.0,-1.766,-1.9082,-2.1234,-2.1966,-2.2729,-2.3809,-2.4092,-2.4544,-2.542,-2.5658,-2.5961,-2.6456,-2.6156,-2.6107,-2.6798,-2.691,-2.7164,-2.7749,-2.7828,-2.7905,-2.8397,-2.8441,-2.8411,-2.8411,-2.8235,-2.8113,-2.798,-2.7815,-2.7665,-2.7524,-2.7412,-2.7325,-2.717,-2.6948,-2.6712,-2.6418,-2.6218,-2.6043,-2.5853,-2.5798,-2.5743,-1.7672,-1.7767,-1.7781,-1.7821,-1.7895,-1.7962,-1.7962,-1.7855,-1.776,-1.7659,-1.7569,-1.7391,-1.7274,-1.7212,-1.7212,-1.7212,-1.7212,-1.7212,-1.7212,-1.7212,-1.7212,-1.7212,-1.7212,-1.7212,-1.7212,-1.7212,-1.7378,-1.7142,-1.6611,-1.6464,-1.6001,-1.5199,-1.4873,-1.4694,-1.4694,-1.4697,-1.4763,-1.4892,-1.5286,-1.5477,-1.5491,-1.5794,-1.5841,-1.565,-1.5865,-1.5582,-1.4725,-1.4431,-1.3748,-1.2651,-1.1284,-1.018,-0.9463,-0.8794,-0.8683,0.0,0.0,0.0,0.0,0.0,0.0,0.0,0.0,0.0,0.0,0.0,-1.2217,-1.1653,-1.2633,-1.3773,-1.4907,-1.6417,-1.7766,-1.8711,-1.9725,-2.0912,-2.231,-2.2942,-2.3652,-2.4581,-2.4905,-2.5321,-2.6088,-2.6362,-2.6751,-2.7446,-2.7274,-2.7169,-2.7523,-2.7597,-2.7834,-2.8455,-2.837,-2.828,-2.8605,-2.8493,-2.8411,-2.8411,-2.821,-2.8063,-2.802,-2.7855,-2.7675,-2.76,-2.7524,-2.7437,-2.7233,-2.7093,-2.6922,-2.6698,-2.658,-2.6394,-2.6056,-2.5961,-2.5907,-1.7488,-1.7496,-1.7496,-1.7496,-1.7516,-1.7821,-1.7835,-1.7679,-1.7659,-1.7556,-1.735,-1.724,-1.7212,-1.7212,-1.7212,-1.7212,-1.7212,-1.7212,-1.7212,-1.7212,-1.7212,-1.7212,-1.7212,-1.7212,-1.7212,-1.7212,-1.7316,-1.7168,-1.6711,-1.6755,-1.6319,-1.544,-1.5331,-1.5321,-1.5308,-1.5389,-1.5476,-1.5595,-1.6309,-1.661,-1.6512,-1.6595,-1.6601,-1.6534,-1.6541,-1.6464,-1.6273,-1.6002,-1.5483,-1.4685,-1.3322,-1.2237,-1.1548,-1.0907,-1.0735,0.0,-1.2778,0.0,0.0,0.0,0.0,0.0,0.0,0.0,0.0,-1.5168,-1.4408,-1.3964,-1.5488,-1.6824,-1.7599,-1.9296,-2.0421,-2.0612,-2.1762,-2.2608,-2.2856,-2.3613,-2.4463,-2.5243,-2.5623,-2.6065,-2.672,-2.7036,-2.7419,-2.805,-2.8138,-2.8129,-2.8176,-2.8198,-2.8426,-2.9012,-2.892,-2.8637,-2.8468,-2.8436,-2.8411,-2.8387,-2.8177,-2.798,-2.798,-2.779,-2.7585,-2.7585,-2.7585,-2.7499,-2.7258,-2.7192,-2.7119,-2.6832,-2.6779,-2.6647,-2.626,-2.6111,-2.6084,-1.7461,-1.7496,-1.7496,-1.7496,-1.7516,-1.7578,-1.7578,-1.7529,-1.7474,-1.737,-1.722,-1.7212,-1.7212,-1.7212,-1.7212,-1.7212,-1.7212,-1.7212,-1.7212,-1.7212,-1.7212,-1.7212,-1.7212,-1.7212,-1.7212,-1.7212,-1.7329,-1.7352,-1.724,-1.6936,-1.6717,-1.6507,-1.6104,-1.5942,-1.5969,0.0,0.0,0.0,-1.6338,-1.6482,-1.6539,-1.7086,-1.7334,-1.7228,-1.7682,0.0,-1.7097,-1.6824,-1.6389,-1.5721,-1.421,0.0,0.0,0.0,0.0,0.0,0.0,0.0,0.0,0.0,0.0,0.0,-1.8699,-1.8505,-1.7161,-1.617,-1.5506,-1.5238,-1.6578,-1.7817,-1.856,-2.0157,-2.1454,-2.2187,-2.2594,-2.3296,-2.4481,-2.4856,-2.5273,-2.6058,-2.6275,-2.6612,-2.7293,-2.7524,-2.7865,-2.8529,-2.8662,-2.8662,-2.8646,-2.8778,-2.8894,-2.8928,-2.8771,-2.8589,-2.8436,-2.8411,-2.8411,-2.8372,-2.8177,-2.8005,-2.798,-2.779,-2.76,-2.7585,-2.7585,-2.7524,-2.7244,-2.7192,-2.713,-2.6873,-2.6794,-2.67,-2.634,-2.626,-2.6206,-1.7316,0.0,-1.7365,-1.7352,0.0,-1.7352,-1.7352,-1.7365,-1.7391,-1.7329,-1.7212,-1.7212,-1.7212,-1.7212,-1.7212,-1.7212,-1.7212,-1.7212,-1.7212,-1.7212,-1.7212,-1.7212,-1.7212,-1.7212,-1.7212,-1.7212,-1.7287,-1.7329,-1.7391,-1.7202,-1.7003,-1.6792,-1.6561,-1.6483,-1.6566,-1.7155,-1.733,-1.7117,-1.7249,-1.7357,-1.7399,-1.7828,-1.8002,-1.7963,-1.8243,0.0,0.0,0.0,0.0,0.0,0.0,0.0,0.0,0.0,0.0,-1.5073,-1.5892,-1.6655,-1.7263,-1.8187,-1.8918,-1.9376,-2.0172,-2.0124,-1.8913,-1.8303,-1.8061,-1.8279,-1.898,-1.9759,-2.0616,-2.1514,-2.2387,-2.3239,-2.3758,-2.4371,-2.5068,-2.5547,-2.6074,-2.6749,-2.6986,-2.7302,-2.7992,-2.8179,-2.8389,-2.8732,-2.881,-2.881,-2.8818,-2.8873,-2.8905,-2.8771,-2.8677,-2.8549,-2.8444,-2.8411,-2.8372,-2.8299,-2.8128,-2.798,-2.7905,-2.7725,-2.7585,-2.7585,-2.7585,-2.7499,-2.7269,-2.7192,-2.713,-2.6884,-2.6794,-2.6727,-2.6459,-2.6353,-2.6233,-1.7212,-1.7212,-1.7212,-1.7212,-1.7212,-1.7212,-1.7212,-1.7212,0.0,0.0,0.0,-1.7212,-1.7212,-1.7212,-1.7212,-1.7212,-1.7212,-1.7212,-1.7212,-1.7212,-1.7212,-1.7212,-1.7212,-1.7212,-1.7212,-1.7212,-1.7212,-1.7253,-1.7384,-1.7384,-1.7235,-1.6955,-1.6934,-1.7019,-1.719,-1.7658,-1.7929,-1.7982,-1.8161,-1.8246,-1.8266,-1.8406,-1.8478,-1.8498,-1.8498,-1.8445,-1.8338,-1.8248,-1.7928,-1.7328,-1.711,-1.6766,-1.6236,-1.6368,-1.6513,-1.6653,-1.7598,-1.8268,-1.8542,-1.9306,-2.0049,-2.0667,-2.1346,-2.1396,-2.0651,-2.047,-2.0611,-2.1146,-2.131,-2.1733,-2.248,-2.2834,-2.329,-2.4146,-2.4817,-2.528,-2.5593,-2.615,-2.6826,-2.745,-2.7659,-2.7914,-2.8441,-2.8605,-2.8723,-2.8723,-2.87,-2.8723,-2.8723,-2.8747,-2.8732,-2.866,-2.8573,-2.8517,-2.846,-2.8411,-2.8348,-2.8235,-2.8103,-2.797,-2.7831,-2.769,-2.7585,-2.7585,-2.76,-2.7463,-2.7244,-2.7181,-2.7078,-2.6846,-2.6794,-2.6753,-2.6566,-2.6406,-2.6233,-1.7212,-1.7212,-1.7212,-1.7212,-1.7212,-1.7212,-1.7212,-1.7212,-1.722,-1.722,-1.7212,-1.7212,-1.7212,-1.7212,-1.7212,-1.7212,-1.7212,-1.7212,-1.7212,0.0,-1.7212,-1.7212,-1.7212,-1.7212,-1.7212,-1.7212,-1.7212,-1.7212,-1.7233,-1.735,-1.74,-1.7396,-1.7511,-1.7646,-1.7773,-1.7861,-1.7902,-1.7909,-1.7996,-1.8101,-1.8222,-1.8293,-1.8378,-1.8478,-1.8498,-1.8498,-1.8478,-1.8301,-1.8161,-1.8045,-1.7366,-1.6981,-1.6951,-1.7083,-1.7237,-1.7478,-1.8793,-1.9671,-1.9837,-2.0691,-2.1322,-2.1594,-2.1738,-2.1659,-2.1386,-2.1416,-2.1466,-2.1485,-2.2183,-2.2701,-2.2898,-2.3542,-2.4246,-2.4915,-2.5201,-2.5742,-2.6865,-2.7149,-2.7488,-2.8104,-2.8273,-2.829,-2.8414,-2.8444,-2.8484,-2.8468,-2.8493,-2.8484,-2.8493,-2.8541,-2.8597,-2.8573,-2.8493,-2.8436,-2.8411,-2.8411,-2.8323,-2.821,-2.8079,-2.7945,-2.779,-2.769,-2.76,-2.7585,-2.7499,-2.7386,-2.7233,-2.7119,-2.6989,-2.6832,-2.6794,-2.6753,-2.6551,-2.6392,-2.626,-1.7499,-1.7212,-1.7212,-1.7212,-1.7212,-1.7212,-1.7212,-1.7212,-1.7212,-1.7212,-1.7212,-1.7212,-1.7212,-1.7212,-1.7212,-1.7212,-1.7212,-1.7212,-1.7212,-1.7212,-1.7212,-1.7212,-1.7212,-1.7212,-1.7212,-1.7212,-1.7212,-1.7212,-1.7233,-1.7253,-1.7337,-1.744,-1.7618,-1.776,-1.7902,-1.7902,-1.7902,-1.7902,-1.7975,-1.8075,-1.8189,-1.8274,-1.8372,-1.8498,-1.8498,-1.8464,-1.8406,-1.8313,-1.8214,-1.8095,-1.7846,-1.786,-1.817,-1.8402,-1.8773,-1.9265,-2.0082,-2.0637,-2.0797,-2.1669,-2.2249,-2.2365,-2.2758,-2.2913,-2.2768,-2.252,-2.2521,-2.2812,-2.3271,-2.3536,-2.3614,-2.4277,-2.4882,-2.5201,-2.5942,-2.6703,-2.7303,-2.775,-2.8073,-2.835,-2.8411,-2.8411,-2.8411,-2.8411,-2.8411,-2.8411,-2.8411,-2.8411,-2.8411,-2.8444,-2.8493,-2.8477,-2.8444,-2.8436,-2.8387,-2.8348,-2.825,-2.8128,-2.798,-2.7855,-2.77,-2.7625,-2.76,-2.76,-2.7488,-2.7376,-2.7233,-2.7093,-2.6963,-2.6832,-2.6794,-2.6738,-2.6659,-2.65,-2.6245,-1.8009,-1.7591,-1.7591,-1.7591,-1.7591,-1.7591,-1.7578,-1.7578,-1.7604,-1.7578,-1.7552,-1.7329,-1.7212,-1.7212,-1.7212,-1.7212,-1.7212,-1.7212,-1.7264,-1.7395,-1.7395,-1.7395,-1.7408,-1.7408,-1.7342,-1.7225,-1.7212,-1.7212,-1.7212,-1.7212,-1.7261,-1.7432,-1.7618,-1.7781,-1.7902,-1.7902,-1.7902,-1.7922,-1.7955,-1.8036,-1.8149,-1.8234,-1.8352,-1.8445,-1.8478,-1.8431,-1.8352,-1.8305,-1.8296,-1.8294,-1.8448,-1.8766,-1.9322,-1.9662,-2.0101,-2.0662,-2.1135,-2.153,-2.1934,-2.2613,-2.3028,-2.3085,-2.3637,-2.3982,-2.3873,-2.3663,-2.3635,-2.4,-2.4173,-2.4338,-2.4493,-2.5072,-2.5553,-2.5788,-2.6703,-2.7396,-2.7642,-2.8088,-2.8411,-2.8411,-2.8411,-2.8411,-2.8411,-2.8411,-2.8411,-2.8411,-2.8411,-2.8411,-2.8411,-2.8411,-2.8411,-2.8411,-2.8411,-2.8411,-2.8387,-2.8299,-2.8177,-2.8005,-2.788,-2.7765,-2.765,-2.7585,-2.7585,-2.7575,-2.7448,-2.7335,-2.7207,-2.7067,-2.691,-2.682,-2.6794,-2.6753,-2.6647,-2.6474,-2.6233,-1.8793,-1.8731,-1.8702,-1.8754,-1.8715,-1.8715,-1.8679,-1.8702,-1.8741,-1.8754,-1.8597,-1.7656,-1.7238,-1.7212,-1.7251,-1.7264,-1.7264,-1.7212,-1.7512,-1.7983,-1.8009,-1.8009,-1.7996,-1.8009,-1.7721,-1.7303,-1.7264,-1.7303,-1.7303,-1.7238,-1.7316,-1.7488,-1.7625,-1.776,-1.7882,-1.7902,-1.7902,-1.7902,-1.7922,-1.7949,-1.8022,-1.8149,-1.8248,-1.8319,-1.8445,-1.8498,-1.8478,-1.8372,-1.8583,-1.9113,-1.9203,-1.9482,-2.0047,-2.0422,-2.0641,-2.0762,-2.1632,-2.2571,-2.3462,-2.3676,-2.3719,-2.387,-2.3952,-2.407,-2.4185,-2.4664,-2.4732,-2.4493,-2.4811,-2.5182,-2.5229,-2.585,-2.6503,-2.6965,-2.7288,-2.7642,-2.815,-2.835,-2.8411,-2.8411,-2.8411,-2.8411,-2.8411,-2.8411,-2.8411,-2.8411,-2.8411,-2.8411,-2.8411,-2.8411,-2.8411,-2.8411,-2.8411,-2.8411,-2.8372,-2.8299,-2.8152,-2.8005,-2.789,-2.774,-2.7625,-2.7585,-2.7585,-2.7524,-2.7372,-2.7233,-2.7214,-2.7015,-2.6905,-2.7082,-2.7012,-2.6773,-2.6461,-2.6397,-2.6291,-1.9144,-1.8911,-1.8898,-1.8898,-1.8898,-1.8898,-1.8898,-1.8898,-1.8898,-1.8898,-1.8858,-1.8401,-1.8205,-1.8192,-1.8183,-1.8205,-1.8205,-1.8218,-1.8323,-1.8558,-1.8571,-1.8584,-1.8584,-1.8571,-1.8427,-1.8218,-1.8205,-1.8205,-1.8153,-1.7891,-1.765,-1.748,-1.7543,-1.7632,-1.7781,-1.7862,-1.7902,-1.7902,-1.7902,-1.7922,-1.7969,-1.8109,-1.8214,-1.8319,-1.8425,-1.8498,-1.854,-1.8767,-1.9062,-1.9307,-1.9712,-2.0188,-2.0695,-2.103,-2.1375,-2.1813,-2.2491,-2.3111,-2.3644,-2.376,-2.3818,-2.3882,-2.4325,-2.4596,-2.4598,-2.5323,-2.5671,-2.5487,-2.5698,-2.5911,-2.601,-2.658,-2.7103,-2.7396,-2.7734,-2.8104,-2.8365,-2.8411,-2.8411,-2.8411,-2.8411,-2.8411,-2.8411,-2.8411,-2.8411,-2.8411,-2.8411,-2.8442,-2.8427,-2.8411,-2.8411,-2.8411,-2.8411,-2.8372,-2.8299,-2.8177,-2.8029,-2.789,-2.7765,-2.765,-2.7655,-2.76,-2.7575,-2.7543,-2.7439,-2.7421,-2.7636,-2.7506,-2.7403,-2.7621,-2.7897,-2.7857,-2.7663,-2.7237,-2.6972,-1.9594,-1.9373,-1.9358,-1.9381,-1.9405,-1.9381,-1.9381,-1.9405,-1.9405,-1.9381,-1.9381,-1.9418,-1.9381,-1.9342,-1.9068,-1.8898,-1.8898,-1.8898,-1.9002,-1.912,-1.9146,-1.9159,-1.9136,-1.9146,-1.9054,-1.8924,-1.8872,-1.8885,-1.8858,-1.8545,-1.8157,-1.7906,-1.78,-1.7824,-1.7948,-1.7936,-1.7902,-1.7902,-1.7902,-1.7902,-1.7936,-1.8214,-1.8354,-1.8301,-1.8573,-1.8731,-1.8764,-1.9354,-1.974,-1.9887,-2.0364,-2.0884,-2.1377,-2.1629,-2.2022,-2.2634,-2.3008,-2.3326,-2.3573,-2.3696,-2.3851,-2.4083,-2.4638,-2.4986,-2.5213,-2.5872,-2.6352,-2.6413,-2.6635,-2.6773,-2.6734,-2.7272,-2.7657,-2.7719,-2.8134,-2.8396,-2.8411,-2.8411,-2.8411,-2.8411,-2.8411,-2.8411,-2.8411,-2.8411,-2.8411,-2.8411,-2.8581,-2.8688,-2.8735,-2.8858,-2.9012,-2.8965,-2.8956,-2.8698,-2.8333,-2.8103,-2.7955,-2.7815,-2.77,-2.7675,-2.7809,-2.7884,-2.8002,-2.8226,-2.7861,-2.7803,-2.8111,-2.8123,-2.8086,-2.8477,-2.8681,-2.8652,-2.8323,-2.7895,-2.7769,-2.027,-2.0421,-2.057,-2.0569,-2.0633,-2.0608,-2.0633,-2.0608,-2.0633,-2.0633,-2.0608,-2.0595,-2.0633,-2.053,-1.9588,-1.895,-1.8937,-1.8989,-1.9277,-1.9734,-1.976,-1.976,-1.9773,-1.9773,-1.9486,-1.9094,-1.9081,-1.9015,-1.895,-1.8898,-1.894,-1.8942,-1.8539,-1.8403,-1.8499,-1.8173,-1.7943,-1.8038,-1.8038,-1.797,-1.8045,-1.8569,-1.8673,-1.841,-1.8911,-1.9307,-1.9418,-2.0,-2.0583,-2.1167,-2.1223,-2.1533,-2.2067,-2.2267,-2.2475,-2.2799,-2.2912,-2.3127,-2.3531,-2.3633,-2.3946,-2.4604,-2.4867,-2.51,-2.5694,-2.6374,-2.6808,-2.6949,-2.7443,-2.767,-2.7433,-2.7825,-2.8225,-2.8264,-2.8326,-2.8387,-2.8387,-2.8387,-2.8411,-2.8411,-2.8411,-2.8458,-2.8442,-2.8411,-2.8519,-2.8642,-2.9012,-2.9366,-2.9417,-2.9848,-3.0094,-3.014,-2.9986,-2.9679,-2.8553,-2.8373,-2.8172,-2.8062,-2.8145,-2.7929,-2.8263,-2.8596,-2.8815,-2.8946,-2.8781,-2.8719,-2.8801,-2.8821,-2.881,-2.8956,-2.8999,-2.8928,-2.903,-2.8484,-2.834,-2.0169,-2.036,-2.0875,-2.1082,-2.1121,-2.1564,-2.1786,-2.1799,-2.1786,-2.1773,-2.1799,-2.1786,-2.1773,-2.1773,-2.1341,-2.0739,-2.0085,-2.0046,-2.0177,-2.036,-2.0373,-2.0373,-2.0373,-2.0373,-2.0294,-2.0098,-2.0033,-1.985,-1.9499,-1.9486,-1.9313,-1.9019,-1.8886,-1.8928,-1.9008,-1.8978,-1.8957,-1.9035,-1.907,-1.9049,-1.9043,-1.9296,-1.9347,-1.927,-1.9641,-1.9929,-2.0028,-2.0646,-2.1082,-2.1293,-2.1645,-2.1969,-2.2165,-2.2324,-2.2426,-2.2601,-2.2777,-2.3154,-2.3707,-2.3902,-2.4288,-2.4964,-2.5462,-2.5816,-2.623,-2.6866,-2.7355,-2.7523,-2.7773,-2.7902,-2.7875,-2.8006,-2.8143,-2.8143,-2.8152,-2.8177,-2.8235,-2.8275,-2.8299,-2.8372,-2.8411,-2.8565,-2.8919,-2.9042,-2.9212,-2.9602,-2.9879,-3.0002,-3.0048,-3.0279,-3.0463,-3.0391,-3.0267,-3.0009,-2.9555,-2.9273,-2.9128,-2.9023,-2.8963,-2.8978,-2.919,-2.922,-2.9391,-2.9337,-2.9317,-2.9354,-2.9345,-2.9638,-2.9624,-2.974,-2.974,-2.961,-2.9871,-2.9231,-2.9127,-2.0574,-2.0756,-2.126,-2.148,-2.1558,-2.2056,-2.2306,-2.2319,-2.2347,-2.2414,-2.2414,-2.2401,-2.2401,-2.2401,-2.2401,-2.2022,-2.1302,-2.1262,-2.1262,-2.1262,-2.1237,-2.1262,-2.1197,-2.104,-2.0949,-2.0909,-2.0777,-2.0465,-2.0151,-2.0074,-1.9889,-1.9522,-1.9446,-1.9479,-1.9554,-1.953,-1.9548,-1.97,-1.9722,-1.9686,-1.9714,-1.989,-2.0016,-2.0129,-2.0445,-2.0637,-2.0644,-2.1243,-2.1575,-2.1645,-2.1997,-2.2194,-2.2194,-2.2278,-2.237,-2.2431,-2.2787,-2.3259,-2.3786,-2.4168,-2.4696,-2.5389,-2.5918,-2.6292,-2.6643,-2.7159,-2.7494,-2.7665,-2.7755,-2.7806,-2.7806,-2.7806,-2.7855,-2.7955,-2.798,-2.8044,-2.8113,-2.8137,-2.8186,-2.833,-2.8618,-2.8925,-2.931,-2.9587,-2.9879,-3.0397,-3.0555,-3.072,-3.0735,-3.0936,-3.1043,-3.1048,-3.0964,-3.0902,-3.0646,-3.0467,-2.9831,-2.9619,-2.9532,-2.9681,-2.9879,-2.9879,-2.9886,-2.9755,-2.9734,-2.9782,-2.9988,-3.0307,-3.051,-3.0583,-3.0452,-3.0234,-3.0173,-2.9967,-2.9789,-2.1526,-2.1599,-2.1839,-2.1867,-2.192,-2.2148,-2.2166,-2.2284,-2.2408,-2.2528,-2.2554,-2.2479,-2.2543,-2.2479,-2.2569,-2.2439,-2.24,-2.2401,-2.2323,-2.2244,-2.2257,-2.2257,-2.2218,-2.1734,-2.1525,-2.1485,-2.1001,-2.0764,-2.07,-2.0687,-2.0635,-2.0566,-2.0167,-2.0051,-2.0204,-1.9842,-1.9669,-1.9804,-1.989,-1.9836,-1.9795,-2.0274,-2.0564,-2.0735,-2.1205,-2.1374,-2.1119,-2.175,-2.21,-2.2114,-2.218,-2.2194,-2.2184,-2.2226,-2.2273,-2.2494,-2.2989,-2.3435,-2.3808,-2.4447,-2.5149,-2.5816,-2.6128,-2.6472,-2.6909,-2.7137,-2.7258,-2.7376,-2.7427,-2.7412,-2.7427,-2.7427,-2.7579,-2.7905,-2.7905,-2.7905,-2.798,-2.8035,-2.8084,-2.8354,-2.8888,-2.9371,-2.9556,-2.9981,-3.0426,-3.0657,-3.1036,-3.1344,-3.1347,-3.1701,-3.2201,-3.2192,-3.1842,-3.1468,-3.1626,-3.1649,-3.0769,-3.0058,-2.9983,-3.0028,-3.0374,-3.0524,-3.0532,-3.0466,-3.0338,-3.0397,-3.025,-3.0539,-3.0554,-3.0612,-3.0612,-3.0582,-3.036,-3.0153,-3.009,-2.1184,-2.1306,-2.1907,-2.2173,-2.2293,-2.2879,-2.3132,-2.3132,-2.319,-2.3248,-2.3206,-2.3219,-2.3219,-2.3264,-2.3347,-2.3404,-2.3433,-2.348,-2.3158,-2.2518,-2.2427,-2.244,-2.2387,-2.223,-2.2113,-2.21,-2.1969,-2.1642,-2.1328,-2.1263,-2.1067,-2.0738,-2.0553,-2.0548,-2.0658,-2.0569,-2.0596,-2.0715,-2.081,-2.087,-2.0894,-2.1019,-2.1138,-2.1213,-2.1448,-2.1554,-2.1474,-2.1838,-2.2053,-2.2067,-2.2147,-2.2147,-2.2123,-2.2363,-2.2609,-2.28,-2.3407,-2.4083,-2.4668,-2.5008,-2.5497,-2.6052,-2.6237,-2.6402,-2.6666,-2.6843,-2.6989,-2.7119,-2.7222,-2.7258,-2.7258,-2.7258,-2.7339,-2.7437,-2.7437,-2.7579,-2.7846,-2.8329,-2.8672,-2.8814,-2.9383,-2.9931,-3.0384,-3.0765,-3.1006,-3.136,-3.1662,-3.1784,-3.186,-3.1952,-3.2092,-3.2122,-3.194,-3.187,-3.1769,-3.164,-3.115,-3.0675,-3.0571,-3.0494,-3.081,-3.0962,-3.1011,-3.0911,-3.0837,-3.0732,-3.0642,-3.0582,-3.0552,-3.0582,-3.0552,-3.0477,-3.0387,-3.0266,-3.0158,-2.147,-2.1594,-2.2191,-2.2446,-2.2526,-2.3161,-2.342,-2.345,-2.3569,-2.3586,-2.3573,-2.3586,-2.3586,-2.3616,-2.373,-2.3789,-2.3802,-2.3878,-2.3589,-2.3048,-2.3027,-2.3027,-2.296,-2.2792,-2.2556,-2.2426,-2.2401,-2.2218,-2.1864,-2.1812,-2.1538,-2.1093,-2.1001,-2.0934,-2.0914,-2.0985,-2.1071,-2.1204,-2.1313,-2.1385,-2.1385,-2.1385,-2.1385,-2.141,-2.1496,-2.1506,-2.1544,-2.1759,-2.1864,-2.1926,-2.202,-2.208,-2.2259,-2.2547,-2.2826,-2.3234,-2.3796,-2.4443,-2.5005,-2.5348,-2.5751,-2.612,-2.6218,-2.6299,-2.6406,-2.6527,-2.6606,-2.6791,-2.6881,-2.6933,-2.6974,-2.7261,-2.7348,-2.7299,-2.7262,-2.7402,-2.7857,-2.8662,-2.9169,-2.9403,-2.991,-3.0509,-3.0858,-3.1283,-3.1496,-3.1921,-3.2012,-3.2012,-3.2012,-3.201,-3.1996,-3.1968,-3.1898,-3.1813,-3.1668,-3.1553,-3.1394,-3.1289,-3.123,-3.1126,-3.1215,-3.1187,-3.1204,-3.0837,-3.0657,-3.0492,-3.0371,-3.0371,-3.0341,-3.0401,-3.0462,-3.0341,-3.0219,-3.0189,-3.0066,-2.2235,-2.2389,-2.2574,-2.261,-2.2671,-2.2957,-2.3078,-2.3138,-2.339,-2.3467,-2.3509,-2.348,-2.3509,-2.3539,-2.3509,-2.3539,-2.3569,-2.3628,-2.3691,-2.3761,-2.3823,-2.3855,-2.3822,-2.3443,-2.3052,-2.2714,-2.2637,-2.2532,-2.2452,-2.244,-2.2152,-2.1616,-2.1538,-2.1406,-2.1192,-2.1055,-2.1153,-2.1314,-2.1342,-2.1361,-2.1385,-2.1385,-2.1385,-2.1385,-2.1423,-2.1423,-2.1434,-2.1626,-2.1798,-2.1852,-2.1955,-2.2194,-2.2597,-2.2749,-2.3126,-2.3647,-2.4212,-2.4609,-2.4964,-2.546,-2.5877,-2.5988,-2.6056,-2.6125,-2.6179,-2.6251,-2.6376,-2.659,-2.6728,-2.6741,-2.6883,-2.7323,-2.7626,-2.7572,-2.755,-2.7782,-2.8355,-2.9083,-2.9549,-2.9865,-3.048,-3.1016,-3.1024,-3.149,-3.1747,-3.1853,-3.187,-3.1826,-3.1826,-3.1798,-3.1912,-3.1855,-3.1712,-3.1655,-3.1524,-3.1467,-3.1351,-3.1278,-3.1278,-3.1278,-3.1278,-3.122,-3.1073,-3.0717,-3.0579,-3.0382,-3.0203,-3.0203,-3.0203,-3.0233,-3.0203,-3.0111,-3.0033,-3.0003,-2.9893,-2.1726,-2.1917,-2.203,-2.2173,-2.234,-2.2512,-2.2678,-2.28,-2.2903,-2.3056,-2.2976,-2.2951,-2.2989,-2.2964,-2.315,-2.3228,-2.3288,-2.3467,-2.3628,-2.37,-2.3688,-2.3878,-2.4041,-2.3939,-2.3757,-2.36,-2.3496,-2.342,-2.3041,-2.3001,-2.2688,-2.2179,-2.2139,-2.2113,-2.1996,-2.1667,-2.1597,-2.1656,-2.1368,-2.1356,-2.1453,-2.1453,-2.1385,-2.1385,-2.1426,-2.144,-2.1453,-2.1868,-2.2248,-2.2432,-2.2358,-2.2585,-2.3175,-2.3494,-2.3808,-2.4135,-2.4641,-2.5067,-2.5301,-2.5577,-2.5702,-2.5674,-2.5812,-2.5798,-2.573,-2.619,-2.6484,-2.6778,-2.7145,-2.7527,-2.7697,-2.791,-2.8025,-2.8053,-2.8232,-2.8479,-2.8811,-2.9437,-2.9962,-3.0093,-3.0669,-3.0994,-3.1127,-3.1231,-3.138,-3.138,-3.1366,-3.1366,-3.1395,-3.1424,-3.1438,-3.1467,-3.1409,-3.1394,-3.1336,-3.1351,-3.1263,-3.1161,-3.1146,-3.1146,-3.1102,-3.1028,-3.0776,-3.0433,-3.0657,-3.059,-3.0313,-3.0154,-3.0109,-3.0242,-3.0202,-3.0194,-2.9871,-2.9721,-2.9593,-2.138,-2.1696,-2.192,-2.2197,-2.2503,-2.2739,-2.2918,-2.3121,-2.3228,-2.3278,-2.3261,-2.3096,-2.3022,-2.304,-2.296,-2.2969,-2.306,-2.3241,-2.336,-2.3509,-2.3586,-2.3717,-2.3865,-2.3966,-2.4008,-2.4037,-2.4054,-2.3887,-2.3613,-2.3561,-2.3276,-2.2831,-2.2727,-2.2609,-2.2349,-2.2233,-2.2115,-2.2153,-2.2015,-2.202,-2.2057,-2.2133,-2.2171,-2.2158,-2.2158,-2.2158,-2.2226,-2.2497,-2.2775,-2.2852,-2.284,-2.3048,-2.3619,-2.3947,-2.4259,-2.4559,-2.494,-2.5174,-2.5328,-2.5467,-2.5495,-2.555,-2.5716,-2.5868,-2.5992,-2.6435,-2.6839,-2.7012,-2.7376,-2.7633,-2.7805,-2.8062,-2.8403,-2.8761,-2.9085,-2.9233,-2.9131,-2.9813,-3.0294,-3.0499,-3.0764,-3.1087,-3.1087,-3.1028,-3.0984,-3.0984,-3.0955,-3.0984,-3.0984,-3.0955,-3.0999,-3.1087,-3.1146,-3.1161,-3.1146,-3.1146,-3.1145,-3.1026,-3.1123,-3.1095,-3.1024,-3.0947,-3.0821,-3.0692,-3.0788,-3.0794,-3.0551,-3.0439,-3.058,-3.0614,-3.0467,-3.0351,-3.0149,-2.982,-2.9646,-2.1157,-2.1631,-2.2007,-2.246,-2.2818,-2.3167,-2.3307,-2.3601,-2.3718,-2.3883,-2.3872,-2.3558,-2.3289,-2.3433,-2.2868,-2.2739,-2.286,-2.2909,-2.3165,-2.3397,-2.3598,-2.3743,-2.3914,-2.3837,-2.3874,-2.3891,-2.3995,-2.4041,-2.3962,-2.4002,-2.3796,-2.3391,-2.3287,-2.3067,-2.282,-2.2679,-2.2682,-2.2696,-2.2684,-2.2736,-2.2802,-2.288,-2.2905,-2.2945,-2.2984,-2.3093,-2.3174,-2.3296,-2.3337,-2.3405,-2.331,-2.3608,-2.4082,-2.4204,-2.4449,-2.4829,-2.4992,-2.5061,-2.5201,-2.5312,-2.5409,-2.556,-2.5942,-2.6216,-2.6382,-2.6717,-2.7059,-2.7239,-2.7311,-2.7577,-2.7737,-2.8133,-2.8703,-2.9204,-2.9555,-2.9572,-2.9587,-3.007,-3.0582,-3.0702,-3.0881,-3.0984,-3.0955,-3.0866,-3.0702,-3.0627,-3.0597,-3.0597,-3.0597,-3.0627,-3.0702,-3.0881,-3.091,-3.0939,-3.0938,-3.0951,-3.093,-3.0923,-3.1091,-3.1146,-3.1101,-3.1053,-3.1037,-3.1038,-3.1073,-3.1081,-3.0927,-3.0921,-3.1013,-3.0915,-3.0689,-3.0738,-3.0742,-3.032,-3.0028,-2.1206,-2.1786,-2.2026,-2.2218,-2.2423,-2.2673,-2.2899,-2.3125,-2.3339,-2.3578,-2.3508,-2.3122,-2.3003,-2.3107,-2.27,-2.2482,-2.2586,-2.2727,-2.3059,-2.3636,-2.3847,-2.4173,-2.4299,-2.4032,-2.3722,-2.3765,-2.3887,-2.3975,-2.4031,-2.4155,-2.4044,-2.3965,-2.3965,-2.3835,-2.3707,-2.3317,-2.3124,-2.3156,-2.2935,-2.2911,-2.3071,-2.3138,-2.3217,-2.3297,-2.327,-2.3513,-2.3825,-2.3906,-2.4123,-2.4367,-2.4218,-2.4164,-2.4597,-2.4774,-2.4842,-2.4951,-2.5032,-2.5032,-2.5128,-2.5554,-2.5826,-2.5691,-2.6223,-2.6573,-2.6374,-2.6854,-2.7274,-2.7583,-2.8003,-2.8234,-2.8449,-2.8768,-2.8951,-2.9107,-2.9212,-2.9233,-2.9292,-2.9766,-3.0158,-3.0233,-3.0294,-3.0325,-3.0325,-3.031,-3.0249,-3.0233,-3.0233,-3.0248,-3.0248,-3.0262,-3.0485,-3.0678,-3.0928,-3.1013,-3.1156,-3.1209,-3.1274,-3.1257,-3.1357,-3.1519,-3.1484,-3.1353,-3.1429,-3.1425,-3.1321,-3.1313,-3.1397,-3.1163,-3.1177,-3.1046,-3.0965,-3.1,-3.0959,-3.063,-3.0344,-2.1252,-2.177,-2.2064,-2.2373,-2.2633,-2.2939,-2.3198,-2.3374,-2.3595,-2.377,-2.3779,-2.3268,-2.3045,-2.317,-2.2515,-2.2235,-2.2493,-2.2898,-2.3448,-2.3983,-2.4209,-2.4436,-2.4682,-2.4432,-2.4177,-2.4256,-2.4466,-2.4545,-2.4606,-2.4641,-2.481,-2.4775,-2.4823,-2.4753,-2.4543,-2.4164,-2.3932,-2.3727,-2.3523,-2.3492,-2.3589,-2.3768,-2.3905,-2.4014,-2.4042,-2.4218,-2.4475,-2.4544,-2.4665,-2.4842,-2.4706,-2.4624,-2.4895,-2.5005,-2.5005,-2.5032,-2.5317,-2.5398,-2.559,-2.5912,-2.6218,-2.6022,-2.6616,-2.6809,-2.6898,-2.728,-2.7651,-2.7892,-2.8145,-2.8457,-2.8619,-2.8619,-2.8619,-2.8651,-2.878,-2.8844,-2.894,-2.9369,-2.9744,-2.9744,-2.982,-2.9851,-2.9851,-2.982,-2.9744,-2.973,-2.9676,-2.969,-2.9882,-2.997,-3.0287,-3.0569,-3.0922,-3.1168,-3.1397,-3.155,-3.175,-3.1796,-3.1894,-3.2112,-3.2252,-3.208,-3.1977,-3.1832,-3.1672,-3.1889,-3.1916,-3.1647,-3.146,-3.1561,-3.1545,-3.1352,-3.1159,-3.0918,-3.0635,-2.1295,-2.177,-2.2125,-2.2557,-2.2931,-2.3265,-2.35,-2.3706,-2.397,-2.4026,-2.4209,-2.349,-2.3132,-2.3157,-2.2432,-2.2241,-2.2684,-2.3189,-2.3818,-2.4448,-2.4595,-2.4842,-2.5048,-2.5134,-2.5156,-2.5241,-2.5097,-2.5141,-2.5192,-2.5376,-2.5265,-2.5482,-2.5602,-2.5397,-2.5158,-2.5097,-2.4857,-2.4521,-2.4347,-2.4329,-2.4363,-2.4525,-2.4602,-2.4701,-2.4758,-2.4758,-2.4854,-2.4909,-2.4991,-2.5005,-2.4977,-2.4977,-2.4977,-2.5005,-2.5086,-2.5127,-2.5559,-2.5801,-2.5999,-2.6341,-2.6626,-2.6622,-2.7018,-2.7243,-2.737,-2.7576,-2.7821,-2.798,-2.8112,-2.8177,-2.8112,-2.8177,-2.8177,-2.8177,-2.8406,-2.849,-2.8587,-2.8881,-2.9103,-2.9324,-2.9432,-2.9509,-2.9477,-2.9432,-2.9324,-2.9275,-2.9232,-2.9265,-2.9517,-2.9831,-3.0294,-3.0527,-3.0881,-3.1265,-3.1537,-3.1946,-3.2143,-3.2159,-3.2263,-3.2382,-3.2582,-3.2274,-3.2017,-3.2073,-3.2052,-3.2165,-3.2118,-3.1825,-3.1807,-3.2082,-3.1928,-3.1573,-3.137,-3.1212,-3.0884,-2.1354,-2.1807,-2.2211,-2.2414,-2.2505,-2.274,-2.2964,-2.315,-2.3372,-2.3629,-2.3859,-2.3098,-2.2866,-2.2849,-2.2582,-2.2675,-2.3212,-2.3637,-2.4093,-2.4731,-2.4997,-2.536,-2.5772,-2.5907,-2.6097,-2.598,-2.562,-2.5217,-2.523,-2.5231,-2.5563,-2.5561,-2.5651,-2.5641,-2.5683,-2.5636,-2.5602,-2.5258,-2.5061,-2.4938,-2.4935,-2.471,-2.46,-2.4759,-2.4832,-2.482,-2.4863,-2.492,-2.5005,-2.4977,-2.4863,-2.4862,-2.4916,-2.5001,-2.5302,-2.5558,-2.5751,-2.6042,-2.6418,-2.6832,-2.6937,-2.7014,-2.7326,-2.7545,-2.7525,-2.7557,-2.7723,-2.7822,-2.798,-2.8079,-2.8112,-2.8046,-2.8092,-2.8125,-2.8179,-2.8304,-2.8304,-2.8475,-2.8796,-2.9187,-2.9265,-2.9145,-2.9081,-2.9086,-2.9164,-2.9265,-2.9452,-2.9528,-2.9717,-3.016,-3.064,-3.079,-3.0898,-3.1286,-3.1647,-3.2166,-3.252,-3.2437,-3.2435,-3.2294,-3.2384,-3.2151,-3.2001,-3.1866,-3.1866,-3.1901,-3.1873,-3.1803,-3.1803,-3.1817,-3.1757,-3.1646,-3.1402,-3.1196,-3.1162,-2.127,-2.154,-2.1921,-2.2111,-2.2138,-2.2402,-2.259,-2.2703,-2.3001,-2.3224,-2.3234,-2.2949,-2.2879,-2.2995,-2.2681,-2.2953,-2.3632,-2.3955,-2.4412,-2.5016,-2.5345,-2.5719,-2.6166,-2.6292,-2.6396,-2.6314,-2.6001,-2.5757,-2.5794,-2.5973,-2.6016,-2.6178,-2.6309,-2.6343,-2.6193,-2.6237,-2.6067,-2.5863,-2.5563,-2.5437,-2.5476,-2.4998,-2.4895,-2.4962,-2.4822,-2.4677,-2.4706,-2.4763,-2.4791,-2.4817,-2.4987,-2.5092,-2.5228,-2.5459,-2.5665,-2.577,-2.6096,-2.652,-2.6863,-2.7275,-2.7464,-2.7393,-2.7591,-2.761,-2.7536,-2.7523,-2.7596,-2.7649,-2.7689,-2.7802,-2.7756,-2.7855,-2.7947,-2.8231,-2.8344,-2.8544,-2.873,-2.8864,-2.9094,-2.9226,-2.8915,-2.8771,-2.8636,-2.8725,-2.8928,-2.9246,-2.9618,-2.9794,-2.9964,-3.0433,-3.0964,-3.1019,-3.1129,-3.1556,-3.1858,-3.2168,-3.2525,-3.2489,-3.2431,-3.2286,-3.2155,-3.1913,-3.1656,-3.1442,-3.1495,-3.1596,-3.1669,-3.1669,-3.1596,-3.1522,-3.141,-3.1299,-3.1224,-3.1136,-3.1061,-2.1089,-2.1118,-2.1502,-2.1693,-2.1731,-2.2073,-2.2252,-2.2327,-2.2676,-2.2852,-2.2861,-2.2775,-2.2842,-2.3011,-2.2924,-2.311,-2.4003,-2.4213,-2.4589,-2.5074,-2.5405,-2.5711,-2.5945,-2.6179,-2.627,-2.6383,-2.6411,-2.6487,-2.6382,-2.6472,-2.6595,-2.6688,-2.7015,-2.7087,-2.6706,-2.6778,-2.6472,-2.6308,-2.602,-2.5981,-2.5733,-2.5516,-2.5361,-2.5451,-2.506,-2.4933,-2.4997,-2.5085,-2.5101,-2.5178,-2.5332,-2.5512,-2.5604,-2.6069,-2.6149,-2.5919,-2.6627,-2.707,-2.7383,-2.7478,-2.763,-2.7584,-2.7564,-2.7536,-2.7568,-2.7633,-2.7745,-2.7673,-2.7902,-2.7994,-2.8093,-2.7941,-2.8137,-2.8481,-2.8781,-2.8955,-2.9219,-2.9359,-2.9376,-2.9223,-2.8697,-2.8692,-2.8873,-2.8966,-2.9282,-2.953,-2.9887,-3.0121,-3.0309,-3.0744,-3.1106,-3.12,-3.1415,-3.187,-3.2064,-3.2046,-3.2214,-3.2178,-3.2119,-3.2023,-3.184,-3.1656,-3.1397,-3.1161,-3.1136,-3.1261,-3.1373,-3.1373,-3.1174,-3.1024,-3.0973,-3.0898,-3.0874,-3.0798,-3.0672,-2.0683,-2.0683,-2.1089,-2.1282,-2.132,-2.154,-2.1731,-2.1883,-2.2149,-2.2289,-2.2483,-2.2455,-2.2418,-2.2576,-2.2782,-2.3353,-2.39,-2.4184,-2.4434,-2.4838,-2.5147,-2.5347,-2.5523,-2.598,-2.6166,-2.6295,-2.6433,-2.6487,-2.6575,-2.6609,-2.664,-2.679,-2.705,-2.7087,-2.717,-2.7298,-2.7372,-2.719,-2.6804,-2.636,-2.5968,-2.5811,-2.5795,-2.5787,-2.573,-2.5673,-2.5638,-2.5747,-2.5847,-2.5914,-2.5924,-2.5924,-2.6016,-2.6382,-2.66,-2.6613,-2.6809,-2.7161,-2.7551,-2.7591,-2.7556,-2.7556,-2.7536,-2.7503,-2.7686,-2.8059,-2.8294,-2.8294,-2.8673,-2.8895,-2.8843,-2.8974,-2.9091,-2.9131,-2.9254,-2.9293,-2.9476,-2.9889,-2.9908,-2.978,-2.9421,-2.9495,-2.9661,-2.9669,-2.9731,-2.9931,-3.0144,-3.0375,-3.0605,-3.0967,-3.1216,-3.1293,-3.1343,-3.1736,-3.195,-3.1973,-3.1973,-3.1913,-3.1803,-3.1743,-3.1633,-3.1471,-3.1235,-3.1048,-3.0986,-3.0811,-3.0736,-3.0685,-3.0596,-3.0596,-3.0634,-3.0558,-3.0482,-3.0368,-3.0343,-1.9902,-2.0264,-2.0693,-2.0838,-2.0886,-2.1205,-2.1464,-2.1655,-2.1845,-2.2035,-2.2231,-2.2334,-2.2485,-2.2684,-2.3097,-2.3464,-2.3827,-2.397,-2.42,-2.449,-2.4814,-2.5123,-2.5359,-2.5688,-2.591,-2.6278,-2.6592,-2.6897,-2.6929,-2.6964,-2.6999,-2.7094,-2.7475,-2.7723,-2.7662,-2.7781,-2.7663,-2.7482,-2.7242,-2.7053,-2.6746,-2.6491,-2.6295,-2.6282,-2.607,-2.5965,-2.597,-2.5949,-2.5998,-2.6064,-2.6167,-2.6403,-2.6521,-2.6837,-2.7157,-2.7157,-2.721,-2.7374,-2.7584,-2.7536,-2.7516,-2.7516,-2.7555,-2.7667,-2.8007,-2.8529,-2.893,-2.893,-2.914,-2.9287,-2.9362,-2.931,-2.9497,-2.9627,-2.9758,-2.9967,-3.0108,-3.0228,-3.0396,-3.0317,-3.0226,-3.024,-3.0217,-3.0111,-3.0072,-3.0151,-3.0401,-3.0668,-3.079,-3.0937,-3.1193,-3.1331,-3.1381,-3.1508,-3.1633,-3.1706,-3.173,-3.1669,-3.1532,-3.1471,-3.1397,-3.1248,-3.1048,-3.0823,-3.0634,-3.0419,-3.019,-3.0228,-3.0406,-3.0368,-3.0305,-3.0267,-3.0228,-3.0088,-3.0011,-1.9073,-1.9578,-2.0137,-2.0372,-2.0489,-2.0886,-2.1118,-2.131,-2.1617,-2.1807,-2.1987,-2.2203,-2.2542,-2.2841,-2.308,-2.3228,-2.3372,-2.3593,-2.3824,-2.4127,-2.4454,-2.4814,-2.5123,-2.5442,-2.5809,-2.626,-2.6735,-2.7092,-2.7399,-2.7584,-2.7682,-2.7555,-2.7999,-2.8204,-2.8152,-2.8221,-2.8166,-2.7803,-2.7555,-2.7425,-2.7333,-2.7079,-2.6922,-2.6765,-2.6517,-2.6224,-2.6211,-2.6295,-2.6308,-2.6412,-2.6706,-2.6915,-2.6961,-2.7223,-2.7398,-2.7411,-2.7432,-2.7542,-2.7633,-2.7626,-2.7607,-2.7712,-2.7921,-2.8281,-2.8582,-2.9144,-2.9497,-2.9483,-2.9781,-2.9807,-2.9755,-2.9771,-2.9993,-3.0228,-3.0309,-3.0647,-3.083,-3.0751,-3.0725,-3.0697,-3.0671,-3.0788,-3.0695,-3.0514,-3.0424,-3.0424,-3.0647,-3.0934,-3.1024,-3.1011,-3.1086,-3.1248,-3.1248,-3.1286,-3.1336,-3.141,-3.1447,-3.1447,-3.1323,-3.1235,-3.1211,-3.1099,-3.0898,-3.0672,-3.0406,-3.0228,-3.0037,-3.0152,-3.0216,-3.0152,-3.0088,-3.0037,-2.996,-2.9869,-2.983,-1.8241,-1.8554,-1.9359,-1.9754,-1.9981,-2.045,-2.0644,-2.0799,-2.1272,-2.1502,-2.1617,-2.1911,-2.2214,-2.2402,-2.2515,-2.2665,-2.2788,-2.2964,-2.3298,-2.3677,-2.4055,-2.4454,-2.4825,-2.5254,-2.5695,-2.6346,-2.6929,-2.7419,-2.7815,-2.8449,-2.8361,-2.8209,-2.852,-2.8562,-2.8613,-2.8666,-2.8633,-2.8273,-2.7915,-2.7607,-2.7568,-2.7425,-2.7372,-2.7385,-2.7372,-2.7372,-2.7346,-2.7216,-2.7163,-2.715,-2.7242,-2.7307,-2.732,-2.7425,-2.7503,-2.7469,-2.7587,-2.7702,-2.7816,-2.7733,-2.7821,-2.8294,-2.8717,-2.8995,-2.9116,-2.9673,-2.9983,-3.0025,-3.0272,-3.0607,-3.0712,-3.0856,-3.0673,-3.0673,-3.0699,-3.079,-3.0921,-3.0934,-3.0945,-3.0998,-3.1024,-3.1024,-3.1024,-3.0764,-3.0712,-3.0699,-3.0712,-3.1024,-3.1024,-3.1024,-3.1024,-3.1061,-3.1061,-3.1061,-3.1061,-3.1136,-3.1224,-3.1224,-3.1174,-3.1099,-3.1061,-3.0911,-3.0874,-3.0596,-3.0368,-3.0113,-2.9921,-2.9998,-2.9998,-2.9908,-2.983,-2.9895,-2.9895,-2.9818,-2.9792,-1.746,-1.7715,-1.8337,-1.8953,-1.9539,-1.9872,-2.0225,-2.0605,-2.0838,-2.1079,-2.1359,-2.1617,-2.1769,-2.1883,-2.2149,-2.2262,-2.2365,-2.2692,-2.2964,-2.3335,-2.3751,-2.4164,-2.4596,-2.5204,-2.5865,-2.6396,-2.7213,-2.7916,-2.8325,-2.9025,-2.9276,-2.9227,-2.9126,-2.91,-2.912,-2.9029,-2.8957,-2.8847,-2.8399,-2.8059,-2.7968,-2.7633,-2.7503,-2.7503,-2.7503,-2.7503,-2.7477,-2.749,-2.7503,-2.7503,-2.7503,-2.7503,-2.7503,-2.7503,-2.7496,-2.7494,-2.7655,-2.7855,-2.7971,-2.7911,-2.8092,-2.8505,-2.9011,-2.9434,-2.946,-2.9938,-3.0297,-3.049,-3.0629,-3.0823,-3.0973,-3.096,-3.0959,-3.1011,-3.1024,-3.1024,-3.1024,-3.1024,-3.1024,-3.1024,-3.1024,-3.1024,-3.1024,-3.0998,-3.0985,-3.096,-3.1011,-3.1024,-3.1024,-3.1024,-3.1024,-3.1024,-3.1024,-3.1024,-3.1024,-3.1024,-3.1024,-3.1024,-3.1024,-3.1024,-3.1024,-3.0986,-3.0911,-3.0596,-3.033,-3.0152,-2.996,-2.9856,-2.9792,-2.9792,-2.9792,-2.9818,-2.9779,-2.9779,-2.9779,-1.6643,-1.6888,-1.7437,-1.8209,-1.9015,-1.939,-1.9784,-2.0216,-2.0479,-2.0848,-2.1215,-2.1359,-2.1397,-2.1512,-2.1655,-2.1883,-2.1987,-2.2252,-2.258,-2.2964,-2.3383,-2.3903,-2.4524,-2.5133,-2.5831,-2.6523,-2.7427,-2.8205,-2.8757,-2.9398,-2.9576,-2.9653,-2.9754,-2.9567,-2.9504,-2.9327,-2.932,-2.9356,-2.9022,-2.8695,-2.8569,-2.8124,-2.779,-2.7738,-2.7633,-2.7503,-2.7503,-2.7503,-2.7503,-2.7503,-2.7503,-2.7503,-2.7469,-2.7462,-2.746,-2.7592,-2.7726,-2.7947,-2.8122,-2.8334,-2.8475,-2.8738,-2.9248,-2.9515,-2.9693,-3.0024,-3.0266,-3.0406,-3.052,-3.0685,-3.0874,-3.0874,-3.0949,-3.0949,-3.0986,-3.1024,-3.1024,-3.1024,-3.1024,-3.1024,-3.1024,-3.1024,-3.1024,-3.1024,-3.1024,-3.1024,-3.1024,-3.1024,-3.1024,-3.1024,-3.1024,-3.1024,-3.1024,-3.1024,-3.1024,-3.1024,-3.1024,-3.1024,-3.1024,-3.1024,-3.1024,-3.1024,-3.0874,-3.0558,-3.033,-3.0177,-2.9998,-2.9818,-2.9779,-2.9779,-2.9779,-2.9779,-2.9779,-2.9779,-2.9779,-1.5843,-1.6092,-1.6667,-1.7491,-1.8381,-1.9063,-1.9341,-1.9578,-2.0206,-2.077,-2.1089,-2.1128,-2.1167,-2.1167,-2.1282,-2.1387,-2.154,-2.1807,-2.2149,-2.2628,-2.3049,-2.3776,-2.4479,-2.5102,-2.5896,-2.7118,-2.7786,-2.839,-2.8993,-2.9277,-2.9534,-2.9753,-2.9779,-2.9845,-3.0012,-2.9854,-2.9891,-2.9983,-2.9536,-2.9314,-2.9131,-2.8686,-2.8425,-2.8281,-2.7915,-2.7673,-2.7673,-2.7529,-2.7516,-2.7503,-2.762,-2.7646,-2.7613,-2.759,-2.7695,-2.7993,-2.7768,-2.8052,-2.8712,-2.8999,-2.8938,-2.8913,-2.9327,-2.9528,-2.9667,-2.9896,-3.0075,-3.0062,-3.0228,-3.0457,-3.0609,-3.0736,-3.0798,-3.0874,-3.0911,-3.0986,-3.0986,-3.1024,-3.1024,-3.1024,-3.1024,-3.1024,-3.1024,-3.1024,-3.1024,-3.1024,-3.1024,-3.1024,-3.1024,-3.1024,-3.1024,-3.1024,-3.1024,-3.1024,-3.1024,-3.1024,-3.1024,-3.1024,-3.1024,-3.1024,-3.1024,-3.1024,-3.0798,-3.0482,-3.033,-3.0216,-2.9998,-2.9779,-2.9779,-2.9779,-2.9779,-2.9779,-2.9779,-2.9779,-2.9779,-1.5114,-1.5304,-1.5867,-1.6495,-1.7236,-1.8049,-1.8745,-1.9341,-1.9902,-2.0303,-2.0547,-2.0576,-2.0693,-2.077,-2.0935,-2.1051,-2.1167,-2.1655,-2.2035,-2.2138,-2.2687,-2.3345,-2.4151,-2.5119,-2.5939,-2.6972,-2.7691,-2.8325,-2.8897,-2.9118,-2.9314,-2.9521,-2.974,-2.996,-3.0177,-3.0238,-3.035,-3.052,-3.0189,-2.98,-2.9735,-2.9314,-2.8974,-2.8983,-2.8412,-2.8111,-2.8072,-2.7829,-2.7673,-2.7699,-2.7855,-2.803,-2.8018,-2.8045,-2.8222,-2.8306,-2.8145,-2.8425,-2.8625,-2.8602,-2.8719,-2.8936,-2.9114,-2.9263,-2.9314,-2.9353,-2.9482,-2.9638,-2.9831,-3.0037,-3.0241,-3.0419,-3.0571,-3.0736,-3.0811,-3.0874,-3.0911,-3.0986,-3.1024,-3.1024,-3.1024,-3.1024,-3.1024,-3.1024,-3.1024,-3.1024,-3.1024,-3.1024,-3.1024,-3.1024,-3.1024,-3.1024,-3.1024,-3.1024,-3.1024,-3.1024,-3.1024,-3.1024,-3.1024,-3.1024,-3.1024,-3.1024,-3.0798,-3.0533,-3.0419,-3.0267,-3.0011,-2.9779,-2.9779,-2.9779,-2.9854,-2.9829,-2.9779,-2.9779,-2.9779,-1.4438,-1.4698,-1.5213,-1.5672,-1.6223,-1.7304,-1.8373,-1.9234,-1.9666,-1.9912,-2.0147,-2.0264,-2.0381,-2.0537,-2.0693,-2.0877,-2.0945,-2.1359,-2.1731,-2.1866,-2.2556,-2.334,-2.4211,-2.5072,-2.6035,-2.6959,-2.7742,-2.8419,-2.8685,-2.8895,-2.9157,-2.9392,-2.956,-2.987,-3.0126,-3.0343,-3.0558,-3.0704,-3.0542,-3.0424,-3.0268,-2.9941,-2.9588,-2.9418,-2.9065,-2.8721,-2.8595,-2.8373,-2.809,-2.8195,-2.8356,-2.856,-2.8575,-2.8495,-2.8624,-2.8535,-2.8535,-2.8582,-2.8311,-2.8195,-2.8359,-2.8554,-2.8657,-2.8697,-2.8697,-2.8736,-2.8895,-2.9091,-2.9339,-2.965,-2.9895,-3.0113,-3.0305,-3.047,-3.0698,-3.0798,-3.0911,-3.0986,-3.1024,-3.1024,-3.1024,-3.1024,-3.1024,-3.1024,-3.1024,-3.1024,-3.1024,-3.1024,-3.1024,-3.1024,-3.1024,-3.1024,-3.1024,-3.1024,-3.1024,-3.1024,-3.1024,-3.1024,-3.1024,-3.1024,-3.1024,-3.0986,-3.0798,-3.0571,-3.0457,-3.0267,-2.9972,-2.9792,-2.9842,-2.9942,-3.0055,-2.998,-2.9829,-2.9867,-2.9942,-1.3935,-1.4147,-1.4638,-1.5016,-1.5479,-1.6845,-1.8171,-1.9253,-1.9478,-1.9715,-1.9902,-2.0147,-2.0264,-2.0342,-2.0527,-2.0693,-2.0867,-2.1138,-2.1397,-2.1865,-2.245,-2.3342,-2.4259,-2.5138,-2.6084,-2.6967,-2.7696,-2.8191,-2.8471,-2.8776,-2.904,-2.9314,-2.9431,-2.9754,-3.0062,-3.0292,-3.0558,-3.0696,-3.0782,-3.0654,-3.0524,-3.0314,-3.0056,-2.9871,-2.9568,-2.9304,-2.9187,-2.9069,-2.9043,-2.9038,-2.9084,-2.9028,-2.8839,-2.8464,-2.8585,-2.8649,-2.8614,-2.8231,-2.7938,-2.7829,-2.776,-2.7841,-2.7841,-2.7881,-2.8042,-2.8231,-2.8379,-2.8578,-2.8776,-2.9221,-2.9585,-2.9818,-3.0049,-3.0279,-3.0584,-3.0723,-3.0911,-3.0949,-3.0986,-3.1024,-3.1024,-3.1024,-3.1024,-3.1024,-3.1024,-3.1024,-3.1024,-3.1024,-3.1024,-3.1024,-3.1024,-3.1024,-3.1024,-3.1024,-3.1037,-3.1063,-3.1024,-3.1024,-3.1024,-3.1024,-3.1024,-3.1013,-3.0836,-3.0685,-3.0495,-3.0318,-3.0122,-3.0018,-2.998,-3.0118,-3.0457,-3.0306,-3.0206,-3.0231,-3.0319,-1.3681,-1.3906,-1.4208,-1.4568,-1.5186,-1.6611,-1.7886,-1.8816,-1.9082,-1.9359,-1.9715,-1.9912,-2.0098,-2.0303,-2.0498,-2.0615,-2.0731,-2.0896,-2.1128,-2.1619,-2.2325,-2.3184,-2.4118,-2.5088,-2.6039,-2.6896,-2.7545,-2.8002,-2.8311,-2.8605,-2.8882,-2.917,-2.9314,-2.9664,-2.9908,-3.0139,-3.033,-3.052,-3.0609,-3.0634,-3.0596,-3.039,-3.0286,-3.0169,-2.993,-2.9733,-2.9668,-2.9382,-2.9265,-2.9129,-2.9284,-2.9255,-2.8886,-2.9089,-2.9299,-2.8536,-2.8136,-2.7632,-2.7441,-2.7249,-2.719,-2.7108,-2.7056,-2.7435,-2.7679,-2.7921,-2.799,-2.8139,-2.8339,-2.8697,-2.9064,-2.9339,-2.9663,-3.0049,-3.0318,-3.0571,-3.0723,-3.0911,-3.0949,-3.1024,-3.1024,-3.1024,-3.1024,-3.1024,-3.1024,-3.1024,-3.105,-3.1052,-3.1013,-3.1026,-3.1117,-3.113,-3.1156,-3.1209,-3.1117,-3.1117,-3.1076,-3.1024,-3.1168,-3.1222,-3.1196,-3.1196,-3.0952,-3.0852,-3.0778,-3.0622,-3.0421,-3.0382,-3.0407,-3.0783,-3.1085,-3.0821,-3.062,-3.067,-3.0756,-1.3346,-1.3564,-1.3884,-1.4373,-1.513,-1.619,-1.7175,-1.7987,-1.8699,-1.9201,-1.9518,-1.9784,-1.999,-2.0137,-2.0411,-2.0605,-2.0644,-2.0819,-2.1022,-2.1423,-2.2272,-2.3121,-2.4084,-2.5117,-2.6073,-2.6823,-2.7383,-2.7829,-2.8151,-2.8459,-2.8776,-2.8961,-2.9197,-2.947,-2.9741,-2.987,-2.9947,-3.0101,-3.0241,-3.0368,-3.0368,-3.0368,-3.0406,-3.0342,-3.0133,-3.0106,-3.0041,-2.9641,-2.9639,-2.9516,-2.9704,-2.953,-2.9163,-2.9333,-2.891,-2.8143,-2.7701,-2.736,-2.7115,-2.6933,-2.6727,-2.6644,-2.6603,-2.685,-2.7149,-2.7342,-2.7545,-2.7736,-2.7978,-2.8219,-2.8538,-2.8855,-2.93,-2.9753,-3.0049,-3.0318,-3.0546,-3.0773,-3.0874,-3.0986,-3.1024,-3.1024,-3.1024,-3.105,-3.1013,-3.1065,-3.1235,-3.1444,-3.13,-3.1117,-3.13,-3.1444,-3.147,-3.1496,-3.1431,-3.1496,-3.1614,-3.1705,-3.1862,-3.1862,-3.164,-3.1628,-3.1681,-3.1448,-3.1163,-3.1066,-3.1004,-3.0962,-3.0997,-3.1361,-3.165,-3.1549,-3.1336,-3.1185,-3.132,-1.2906,-1.3186,-1.363,-1.4277,-1.5123,-1.5634,-1.6213,-1.6985,-1.8204,-1.8982,-1.921,-1.9648,-1.9902,-2.002,-2.0333,-2.0566,-2.0644,-2.078,-2.1022,-2.1255,-2.2385,-2.3257,-2.4119,-2.5273,-2.5994,-2.6595,-2.7126,-2.7655,-2.795,-2.8271,-2.8578,-2.8764,-2.8961,-2.9236,-2.9431,-2.9599,-2.9599,-2.9599,-2.9857,-3.0088,-3.0203,-3.0279,-3.033,-3.033,-3.0406,-3.0482,-3.0419,-3.0419,-3.0546,-3.0254,-2.9973,-2.969,-2.9302,-2.8819,-2.8127,-2.7725,-2.736,-2.7044,-2.6839,-2.6644,-2.6561,-2.6479,-2.655,-2.6561,-2.6685,-2.6933,-2.7126,-2.7371,-2.7563,-2.7805,-2.8127,-2.8498,-2.8958,-2.939,-2.9702,-3.0037,-3.0394,-3.0763,-3.1173,-3.1301,-3.1509,-3.1509,-3.1561,-3.1627,-3.1679,-3.147,-3.1535,-3.1823,-3.1823,-3.1548,-3.1666,-3.1901,-3.1914,-3.2006,-3.215,-3.2241,-3.2411,-3.2529,-3.2555,-3.2463,-3.2202,-3.2319,-3.2527,-3.2095,-3.1678,-3.168,-3.1655,-3.1571,-3.1562,-3.1838,-3.2089,-3.2198,-3.2072,-3.178,-3.1826,-1.2374,-1.2714,-1.3317,-1.4009,-1.4764,-1.5157,-1.5782,-1.6544,-1.7104,-1.787,-1.8649,-1.9303,-1.9754,-1.9942,-2.0225,-2.045,-2.0605,-2.0819,-2.1022,-2.1423,-2.2273,-2.3205,-2.3919,-2.4965,-2.5741,-2.6337,-2.6921,-2.7493,-2.7829,-2.8111,-2.8379,-2.8538,-2.8776,-2.8961,-2.9118,-2.9287,-2.9248,-2.9209,-2.9353,-2.9586,-2.9651,-2.969,-2.9703,-2.9921,-3.0126,-3.0228,-3.0152,-3.0049,-3.0011,-2.9856,-2.9495,-2.9143,-2.8788,-2.8139,-2.7644,-2.7307,-2.7074,-2.6768,-2.652,-2.6354,-2.6271,-2.6146,-2.6104,-2.6188,-2.6313,-2.6561,-2.6768,-2.7003,-2.7237,-2.7482,-2.7812,-2.8238,-2.8686,-2.9071,-2.9477,-2.9906,-3.033,-3.0919,-3.1499,-3.1771,-3.2019,-3.211,-3.215,-3.2202,-3.228,-3.2319,-3.2372,-3.2502,-3.2529,-3.2385,-3.2463,-3.2607,-3.2502,-3.2594,-3.279,-3.2934,-3.3064,-3.2973,-3.2908,-3.2816,-3.2764,-3.2881,-3.301,-3.2537,-3.2167,-3.2245,-3.2241,-3.2126,-3.2194,-3.2353,-3.2449,-3.2489,-3.2504,-3.2256,-3.2381,-1.1936,-1.2459,-1.3179,-1.371,-1.4175,-1.4702,-1.5255,-1.5766,-1.6416,-1.7122,-1.7955,-1.8813,-1.9459,-1.9874,-2.0186,-2.0381,-2.0605,-2.0819,-2.1012,-2.1413,-2.2058,-2.2987,-2.3857,-2.47,-2.5519,-2.6232,-2.6835,-2.74,-2.7626,-2.7909,-2.8151,-2.8271,-2.8459,-2.8645,-2.8855,-2.8934,-2.8961,-2.8973,-2.8973,-2.904,-2.9184,-2.9302,-2.9509,-2.9779,-2.9869,-2.9921,-2.9793,-2.965,-2.9573,-2.9417,-2.9064,-2.8538,-2.8139,-2.7684,-2.7307,-2.7033,-2.6757,-2.6479,-2.6271,-2.6104,-2.6032,-2.5948,-2.5917,-2.6043,-2.6109,-2.6371,-2.6604,-2.6843,-2.6985,-2.7219,-2.78,-2.8234,-2.891,-2.9414,-2.9882,-3.0363,-3.0987,-3.1654,-3.2019,-3.2241,-3.2411,-3.2437,-3.2463,-3.2463,-3.2542,-3.2633,-3.2764,-3.3077,-3.3117,-3.3169,-3.326,-3.3287,-3.3169,-3.3326,-3.3613,-3.3666,-3.3652,-3.3509,-3.3313,-3.3483,-3.3587,-3.3535,-3.3388,-3.3135,-3.2916,-3.2899,-3.2882,-3.2659,-3.2646,-3.278,-3.2807,-3.2778,-3.2711,-3.255,-3.2426,-1.1586,-1.2213,-1.2963,-1.3426,-1.3601,-1.4173,-1.4621,-1.5,-1.5814,-1.6555,-1.7188,-1.8163,-1.9034,-1.9711,-2.0108,-2.0333,-2.0576,-2.0858,-2.1051,-2.1373,-2.2025,-2.2778,-2.3586,-2.4511,-2.5276,-2.603,-2.6693,-2.6992,-2.7226,-2.7522,-2.7788,-2.7921,-2.8111,-2.8287,-2.8498,-2.8657,-2.8764,-2.8776,-2.8764,-2.8803,-2.8961,-2.9145,-2.9365,-2.9585,-2.9714,-2.956,-2.9431,-2.9275,-2.9197,-2.8922,-2.8578,-2.8087,-2.7684,-2.7319,-2.7044,-2.6757,-2.6479,-2.6282,-2.6115,-2.599,-2.5948,-2.5906,-2.5939,-2.6026,-2.6125,-2.6341,-2.663,-2.683,-2.6978,-2.7338,-2.7889,-2.8379,-2.9087,-2.9726,-3.0257,-3.0815,-3.1536,-3.2272,-3.2564,-3.2776,-3.2881,-3.2908,-3.2934,-3.2908,-3.2947,-3.3012,-3.3182,-3.3483,-3.3718,-3.3783,-3.3875,-3.3862,-3.377,-3.4018,-3.4267,-3.4188,-3.4045,-3.4058,-3.3927,-3.4201,-3.4332,-3.4084,-3.3964,-3.3968,-3.3824,-3.3453,-3.328,-3.3081,-3.3147,-3.3025,-3.2896,-3.2711,-3.2463,-3.2288,-3.2125,-1.1146,-1.1813,-1.2297,-1.2849,-1.347,-1.3674,-1.4072,-1.4657,-1.5044,-1.5671,-1.6627,-1.7466,-1.8375,-1.945,-1.9824,-2.0137,-2.0498,-2.0858,-2.1099,-2.1343,-2.1896,-2.2495,-2.3182,-2.4087,-2.4867,-2.5661,-2.6354,-2.6603,-2.6951,-2.7237,-2.7534,-2.7841,-2.807,-2.8259,-2.8419,-2.8498,-2.8498,-2.8498,-2.855,-2.859,-2.8724,-2.8882,-2.9,-2.9131,-2.9209,-2.9209,-2.9091,-2.8855,-2.8697,-2.8419,-2.8087,-2.7632,-2.7319,-2.7033,-2.6757,-2.652,-2.624,-2.6115,-2.599,-2.6025,-2.6016,-2.6059,-2.6179,-2.6485,-2.6649,-2.6911,-2.7118,-2.7293,-2.7477,-2.7888,-2.8362,-2.8683,-2.925,-2.9862,-3.044,-3.1121,-3.1804,-3.2562,-3.3107,-3.3413,-3.3692,-3.377,-3.3875,-3.3862,-3.3849,-3.3888,-3.3875,-3.4123,-3.4097,-3.4267,-3.4397,-3.4319,-3.4241,-3.4306,-3.4371,-3.4345,-3.428,-3.4358,-3.4397,-3.4397,-3.4397,-3.4397,-3.4314,-3.4243,-3.4021,-3.3691,-3.3513,-3.3368,-3.3068,-3.2896,-3.2797,-3.2624,-3.2332,-3.2069,-3.1906]}]]